[[{"header":{"parameterUnit":"m.s-1","parameterCategory":1,"la1":30.6,"la2":29.2853,"lo1":-89.7004,"lo2":-87.6739,"dy":0.0162,"dx":0.0183,"nx":112,"ny":82,"refTime":"2024-07-06T12:00:00:Z","depth":0,"parameterNumber":2,"parameterNumberName":"U-component_of_WINDS"},"data":[0.0,0.0,0.0,0.0,0.0,0.0,0.0,0.0,0.0,0.0,0.0,0.0,0.0,0.0,0.0,0.0,0.0,0.0,0.0,0.0,0.0,0.0,0.0,0.0,0.0,0.0,0.0,0.0,0.0,0.0,0.0,0.0,0.0,0.0,0.0,0.0,0.0,0.0,0.0,0.0,0.0,0.0,0.0,0.0,0.0,0.0,0.0,0.0,0.0,0.0,0.0,0.0,0.0,0.0,0.0,0.0,0.0,0.0,0.0,0.0,0.0,0.0,0.0,0.0,0.0,0.0,0.0,0.0,0.0,0.0,0.0,0.0,0.0,0.0,0.0,0.0,0.0,0.0,0.0,0.0,0.0,0.0,0.0,0.0,0.0,0.0,0.0,0.0,0.0,0.0,1.2422,1.1618,0.9292,0.7559,0.686,0.539,0.436,0.4026,0.0,0.0,0.0,0.0,0.0,0.0,0.0,0.0,0.0,0.0,0.0,0.0,0.0,0.0,0.0,0.0,0.0,0.0,0.0,0.0,0.0,0.0,0.0,0.0,0.0,0.0,0.0,0.0,0.0,0.0,0.0,0.0,0.0,0.0,0.0,0.0,0.0,0.0,0.0,0.0,0.0,0.0,0.0,0.0,0.0,0.0,0.0,0.0,0.0,0.0,0.0,0.0,0.0,0.0,0.0,0.0,0.0,0.0,0.0,0.0,0.0,0.0,0.0,0.0,0.0,0.0,0.0,0.0,0.0,0.0,0.0,0.0,0.0,0.0,0.0,0.0,0.0,0.0,0.0,0.0,0.0,0.0,0.0,0.0,0.0,0.0,0.0,0.0,0.0,0.0,0.0,0.0,0.0,0.0,0.0,0.0,0.0,0.0,0.0,0.0,0.0,0.0,0.0,0.0,1.2278,1.047,0.8063,0.642,0.6005,0.4815,0.4053,0.3993,0.0,0.0,0.0,0.0,0.0,0.0,0.0,0.0,0.0,0.0,0.0,0.0,0.0,0.0,0.0,0.0,0.0,0.0,0.0,0.0,0.0,0.0,0.0,0.0,0.0,0.0,0.0,0.0,0.0,0.0,0.0,0.0,0.0,0.0,0.0,0.0,0.0,0.0,0.0,0.0,0.0,0.0,0.0,0.0,0.0,0.0,0.0,0.0,0.0,0.0,0.0,0.0,0.0,0.0,0.0,0.0,0.0,0.0,0.0,0.0,0.0,0.0,0.0,0.0,0.0,0.0,0.0,0.0,0.0,0.0,0.0,0.0,0.0,0.0,0.0,0.0,0.0,0.0,0.0,0.0,0.0,0.0,0.0,0.0,0.0,0.0,0.0,0.0,0.0,0.0,0.0,0.0,0.0,0.0,0.0,0.0,0.0,0.0,0.0,0.0,0.0,0.0,0.0,0.9425,0.8407,0.78,0.6496,0.5548,0.5173,0.4451,0.3891,0.3626,0.3286,0.0,0.0,0.0,0.0,0.0,0.0,0.0,0.0,0.0,0.0,0.0,0.0,0.0,0.0,0.0,0.0,0.0,0.0,0.0,0.0,0.0,0.0,0.0,0.0,0.0,0.0,0.0,0.0,0.0,0.0,0.0,0.0,0.0,0.0,0.0,0.0,0.0,0.0,0.0,0.0,0.0,0.0,0.0,0.0,0.0,0.0,0.0,0.0,0.0,0.0,0.0,0.0,0.0,0.0,0.0,0.0,0.0,0.0,0.0,0.0,0.0,0.0,0.0,0.0,0.0,0.0,0.0,0.0,0.0,0.0,0.0,0.0,0.0,0.0,0.0,0.0,0.0,0.0,0.0,0.0,0.0,0.0,0.0,0.0,0.0,0.0,0.0,0.0,0.0,0.0,0.0,0.0,0.0,0.0,0.0,0.0,0.0,0.0,0.0,0.0,0.0,0.0,0.6876,0.5074,0.5386,0.5001,0.463,0.4317,0.4108,0.3761,0.3196,0.297,0.0,0.0,0.0,0.0,0.0,0.0,0.0,0.0,0.0,0.0,0.0,0.0,0.0,0.0,0.0,0.0,0.0,0.0,0.0,0.0,0.0,0.0,0.0,0.0,0.0,0.0,0.0,0.0,0.0,0.0,0.0,0.0,0.0,0.0,0.0,0.0,0.0,0.0,0.0,0.0,0.0,0.0,0.0,0.0,0.0,0.0,0.0,0.0,0.0,0.0,0.0,0.0,0.0,0.0,0.0,0.0,0.0,0.0,0.0,0.0,0.0,0.0,0.0,0.0,0.0,0.0,0.0,0.0,0.0,0.0,0.0,0.0,0.0,0.0,0.0,0.0,0.0,0.0,0.0,0.0,0.0,0.0,0.0,0.0,0.0,0.0,0.0,0.0,0.0,0.0,0.0,0.0,0.0,0.0,0.0,0.0,0.0,0.0,0.0,0.0,0.0,0.0,0.6194,0.4685,0.4363,0.377,0.3421,0.3388,0.3756,0.363,0.2812,0.3068,0.0,0.0,0.0,0.0,0.0,0.0,0.0,0.0,0.0,0.0,0.0,0.0,0.0,0.0,0.0,0.0,0.0,0.0,0.0,0.0,0.0,0.0,0.0,0.0,0.0,0.0,0.0,0.0,0.0,0.0,0.0,0.0,0.0,0.0,0.0,0.0,0.0,0.0,0.0,0.0,0.0,0.0,0.0,0.0,0.0,0.0,0.0,0.0,0.0,0.0,0.0,0.0,0.0,0.0,0.0,0.0,0.0,0.0,0.0,0.0,0.0,0.0,0.0,0.0,0.0,0.0,0.0,0.0,0.0,0.0,0.0,0.0,0.0,0.0,0.0,0.0,0.0,0.0,0.0,0.0,0.0,0.0,0.0,0.0,0.0,0.0,0.0,0.0,0.0,0.0,0.0,0.0,0.0,0.0,0.0,0.0,0.0,0.0,0.0,0.0,0.0,0.0,0.5841,0.4258,0.3993,0.3572,0.3196,0.294,0.3331,0.3331,0.2746,0.0,0.0,0.0,0.0,0.0,0.0,0.0,0.0,0.0,0.0,0.0,0.0,0.0,0.0,0.0,0.0,0.0,0.0,0.0,0.0,0.0,0.0,0.0,0.0,0.0,0.0,0.0,0.0,0.0,0.0,0.0,0.0,0.0,0.0,0.0,0.0,0.0,0.0,0.0,0.0,0.0,0.0,0.0,0.0,0.0,0.0,0.0,0.0,0.0,0.0,0.0,0.0,0.0,0.0,0.0,0.0,0.0,0.0,0.0,0.0,0.0,0.0,0.0,0.0,0.0,0.0,0.0,0.0,0.0,0.0,0.0,0.0,0.0,0.0,0.0,0.0,0.0,0.0,0.0,0.0,0.0,0.0,0.0,0.0,0.0,0.0,0.0,0.0,0.0,0.0,0.0,0.0,0.0,0.0,0.0,0.0,0.0,0.0,0.0,0.0,0.0,0.0,0.7566,0.5705,0.4215,0.389,0.3406,0.3003,0.2712,0.3068,0.3134,0.2712,0.0,0.0,0.0,0.0,0.0,0.0,0.0,0.0,0.0,0.0,0.0,0.0,0.0,0.0,0.0,0.0,0.0,0.0,0.0,0.0,0.0,0.0,0.0,0.0,0.0,0.0,0.0,0.0,0.0,0.0,0.0,0.0,0.0,0.0,0.0,0.0,0.0,0.0,0.0,0.0,0.0,0.0,0.0,0.0,0.0,0.0,0.0,0.0,0.0,0.0,0.0,0.0,0.0,0.0,0.0,0.0,0.0,0.0,0.0,0.0,0.0,0.0,0.0,0.0,0.0,0.0,0.0,0.0,0.0,0.0,0.0,0.0,0.0,0.0,0.0,0.0,0.0,0.0,0.0,0.0,0.0,0.0,0.0,0.0,0.0,0.0,0.0,0.0,0.0,0.0,0.0,0.0,0.0,0.0,0.0,0.0,0.0,0.0,0.0,0.0,0.0,0.0,0.7091,0.5761,0.461,0.4071,0.3243,0.2712,0.2712,0.3068,0.313,0.0,0.0,0.0,0.0,0.0,0.0,0.0,0.0,0.0,0.0,0.0,0.0,0.0,0.0,0.0,0.0,0.0,0.0,0.0,0.0,0.0,0.0,0.0,0.0,0.0,0.0,0.0,0.0,0.0,0.0,0.0,0.0,0.0,0.0,0.0,0.0,0.0,0.0,0.0,0.0,0.0,0.0,0.0,0.0,0.0,0.0,0.0,0.0,0.0,0.0,0.0,0.0,0.0,0.0,0.0,0.0,0.0,0.0,0.0,0.0,0.0,0.0,0.0,0.0,0.0,0.0,0.0,0.0,0.0,0.0,0.0,0.0,0.0,0.0,0.0,0.0,0.0,0.0,0.0,0.0,0.0,0.0,0.0,0.0,0.0,0.0,0.0,0.0,0.0,0.0,0.0,0.0,0.0,0.0,0.0,0.0,0.0,0.0,0.0,0.0,0.0,0.0,0.0,0.8372,0.6934,0.5658,0.513,0.3895,0.313,0.313,0.297,0.2815,0.2693,0.0,0.0,0.0,0.0,0.0,0.0,0.0,0.0,0.0,0.0,0.0,0.0,0.0,0.0,0.0,0.0,0.0,0.0,0.0,0.0,0.0,0.0,0.0,0.0,0.0,0.0,0.0,0.0,0.0,0.0,0.0,0.0,0.0,0.0,0.0,0.0,0.0,0.0,0.0,0.0,0.0,0.0,0.0,0.0,0.0,0.0,0.0,0.0,0.0,0.0,0.0,0.0,0.0,0.0,0.0,0.0,0.0,0.0,0.0,0.0,0.0,0.0,0.0,0.0,0.0,0.0,0.0,0.0,0.0,0.0,0.0,0.0,0.0,0.0,0.0,0.0,0.0,0.0,0.0,0.0,0.0,0.0,0.0,0.0,0.0,0.0,0.0,0.0,0.0,0.0,0.0,0.0,0.0,0.0,0.0,0.0,0.0,0.0,0.0,0.0,0.0,0.0,0.8737,0.7197,0.5929,0.5547,0.4034,0.3134,0.329,0.294,0.2686,0.2696,0.0,0.0,0.0,0.0,0.0,0.0,0.0,0.0,0.0,0.0,0.0,0.0,0.0,0.0,0.0,0.0,0.0,0.0,0.0,0.0,0.0,0.0,0.0,0.0,0.0,0.0,0.0,0.0,0.0,0.0,0.0,0.0,0.0,0.0,0.0,0.0,0.0,0.0,0.0,0.0,0.0,0.0,0.0,0.0,0.0,0.0,0.0,0.0,0.0,0.0,0.0,0.0,0.0,0.0,0.0,0.0,0.0,0.0,0.0,0.0,0.0,0.0,0.0,0.0,0.0,0.0,0.0,0.0,0.0,0.0,0.0,0.0,0.0,0.0,0.0,0.0,0.0,0.0,0.0,0.0,0.0,0.0,0.0,0.0,0.0,0.0,0.0,0.0,0.0,0.0,0.0,0.0,0.0,0.0,0.0,0.0,0.0,0.0,0.0,0.0,0.0,0.0,0.8381,0.6924,0.5714,0.5435,0.383,0.2907,0.3261,0.294,0.2686,0.2696,0.0,0.0,0.0,0.0,0.0,0.0,0.0,0.0,0.0,0.0,0.0,0.0,0.0,0.0,0.0,0.0,0.0,0.0,0.0,0.0,0.0,0.0,0.0,0.0,0.0,0.0,0.0,0.0,0.0,0.0,0.0,0.0,0.0,0.0,0.0,0.0,0.0,0.0,0.0,0.0,0.0,0.0,0.0,0.0,0.0,0.0,0.0,0.0,0.0,0.0,0.0,0.0,0.0,0.0,0.0,0.0,0.0,0.0,0.0,0.0,0.5315,0.5041,0.0,0.0,0.0,0.0,0.0,0.0,0.0,0.0,0.0,0.0,0.0,0.0,0.0,0.0,0.0,0.0,0.0,0.0,0.0,0.0,0.0,0.0,0.0,0.0,0.0,0.0,0.0,0.0,0.0,0.0,0.0,0.0,0.0,0.0,0.0,0.0,0.0,0.0,0.0,0.0,0.8208,0.7216,0.6037,0.4904,0.3825,0.3196,0.329,0.294,0.2686,0.2696,0.1642,0.0,0.0,0.0,0.0,0.0,0.0,0.0,0.0,0.0,0.0,0.0,0.0,0.0,0.0,0.0,0.0,0.0,0.0,0.0,0.0,0.0,0.0,0.0,0.0,0.0,0.0,0.0,0.0,0.0,0.0,0.0,0.0,0.0,0.0,0.0,0.0,0.0,0.0,0.0,0.0,0.0,0.0,0.0,0.0,0.0,0.0,0.0,0.0,0.0,0.0,0.0,0.0,0.0,0.0,0.0,0.0,0.0,0.0,0.0,0.4405,0.4549,0.0,0.0,0.0,0.0,0.0,0.0,0.0,0.0,0.0,0.0,0.0,0.0,0.0,0.0,0.0,0.0,0.0,0.0,0.0,0.0,0.0,0.0,0.0,0.0,0.0,0.0,0.0,0.0,0.0,0.0,0.0,0.0,0.0,0.0,0.0,0.0,0.0,0.0,0.0,0.0,0.6371,0.5165,0.4274,0.4371,0.3591,0.3158,0.3298,0.294,0.2686,0.2696,0.1436,0.0,0.0,0.0,0.0,0.0,0.0,0.0,0.0,0.0,0.0,0.0,0.0,0.0,0.0,0.0,0.0,0.0,0.0,0.0,0.0,0.0,0.0,0.0,0.0,0.0,0.0,0.0,0.0,0.0,0.0,0.0,0.0,0.0,0.0,0.0,0.0,0.0,0.0,0.0,0.0,0.0,0.0,0.0,0.0,0.0,0.0,0.0,0.0,0.0,0.0,0.0,0.0,0.0,0.4394,0.4081,0.3858,0.3836,0.3473,0.2832,0.352,0.3862,0.3808,0.2897,0.0,0.0,0.0,0.0,0.0,0.0,0.0,0.0,0.0,0.0,0.0,0.0,0.0,0.0,0.0,0.0,0.0,0.0,0.0,0.0,0.0,0.0,0.1765,0.0725,-0.1399,-0.2535,-0.0182,0.0,0.0,0.0,0.0,0.0,0.0,0.0,0.0,0.0,0.0,0.0,0.3616,0.2299,0.1879,0.3448,0.3169,0.2983,0.3179,0.2874,0.2686,0.2696,0.1133,-0.0299,0.0,0.0,0.0,0.0,0.0,0.0,0.0,0.0,0.0,0.0,0.0,0.0,0.0,0.0,0.0,0.0,0.0,0.0,0.0,0.0,0.0,0.0,0.0,0.0,0.0,0.0,0.0,0.0,0.0,0.0,0.0,0.0,0.6777,0.6341,0.0,0.0,0.0,0.0,0.0,0.0,0.0,0.0,0.0,0.0,0.0,0.0,0.0,0.502,0.4304,0.3371,0.259,0.1874,0.2065,0.2565,0.3213,0.2984,0.3083,0.3475,0.36,0.0,0.1711,0.1861,0.0,0.0,0.0,0.0,0.0,0.0,0.0,0.0,0.0,0.0,0.0,0.0,0.0,0.0,0.0,0.0,0.0,0.0,0.0,0.0,0.0,0.0,-0.0383,-0.2241,-0.3129,-0.3389,-0.2827,-0.1909,-0.1007,-0.0346,0.0154,0.0689,0.0,0.0,0.0,0.0,0.0,0.0,0.0452,0.0205,0.0403,0.1552,0.2421,0.2881,0.2793,0.2746,0.2686,0.2696,0.1709,0.0033,-0.2402,-0.2633,0.0,0.0,0.0,0.0,0.0,0.0,0.0,0.0,0.0,0.0,0.0,0.0,0.0,0.0,0.0,0.0,0.0,0.0,0.0,0.0,0.0,0.0,0.0,0.0,0.0,0.0,0.0,0.0,0.0,0.7293,0.6809,0.6149,0.6254,0.6318,0.0,0.0,0.0,0.0,0.0,0.0,0.0,0.0,0.0,0.409,0.3137,0.2569,0.2424,0.1567,0.0946,0.0551,0.0734,0.17,0.3377,0.3262,0.2958,0.2572,0.2572,0.2588,0.2497,0.1303,0.0715,0.0549,0.0,0.0,0.0,0.0,-0.0132,-0.1244,-0.1935,-0.212,-0.2026,-0.2016,0.0,0.0,0.0,0.0,0.0,0.0,0.0,0.1703,0.0665,-0.0779,-0.2192,-0.3101,-0.3361,-0.3409,-0.3319,-0.2992,-0.2618,-0.2349,-0.2226,-0.2031,-0.1678,-0.243,0.0,0.0,0.0,-0.4492,-0.285,-0.1746,-0.0543,0.0932,0.225,0.2968,0.2822,0.273,0.2686,0.2696,0.1676,0.0401,-0.1111,-0.1646,-0.215,0.0,0.0,0.0,0.0,0.0,0.0,0.0,0.0,0.0,0.0,0.0,0.0,0.0,0.0,0.0,0.0,0.0,0.0,0.0,0.0,0.0,0.0,0.0,0.0,0.0,0.0,0.0,0.0,0.7497,0.7028,0.6322,0.6172,0.6019,0.0,0.0,0.0,0.0,0.0,0.0,0.5383,0.258,0.0702,0.0119,-0.0248,-0.0296,0.0043,-0.0,0.0314,0.0943,0.0941,0.1703,0.3149,0.3462,0.3096,0.2279,0.2277,0.2773,0.3448,0.1642,0.0568,-0.0,-0.0,-0.0652,-0.1646,-0.1493,-0.192,-0.263,-0.3523,-0.3919,-0.4025,-0.4042,-0.3144,-0.1937,-0.1497,0.0,0.0,0.0,0.0,-0.0539,-0.0852,-0.2144,-0.3383,-0.3383,-0.3383,-0.3295,-0.2989,-0.3296,-0.3516,-0.3221,-0.3595,-0.3943,-0.377,-0.4822,0.0,-0.5006,-0.6027,-0.6424,-0.5227,-0.3178,-0.1117,0.0795,0.2284,0.3066,0.292,0.2768,0.2686,0.2696,0.1642,0.0703,0.0034,-0.0637,-0.1308,-0.1986,0.0,0.0,0.0,0.0,0.0,0.0,0.0,0.0,0.0,0.0,0.0,0.0,0.0,0.0,0.0,0.0,0.0,0.0,0.0,0.0,0.0,0.0,0.0,0.0,0.0,0.0,0.0,0.0,0.0,0.7163,0.6399,0.0,0.0,0.0,0.0,0.4926,0.2854,0.203,0.2841,0.0914,-0.119,-0.3277,-0.3372,-0.3376,-0.3344,-0.1123,0.1167,0.343,0.343,0.2876,0.1919,0.3093,0.3551,0.3506,0.3493,0.3537,0.3581,0.3448,0.2058,-0.0,-0.0,-0.0049,-0.0452,-0.3243,-0.4146,-0.3886,-0.3693,-0.4322,-0.5213,-0.5237,-0.4426,-0.3576,-0.4102,-0.3872,0.0,0.0,-0.3785,-0.3393,-0.3393,-0.352,-0.3585,-0.3585,-0.3585,-0.3265,-0.2138,-0.2779,-0.3281,-0.2115,-0.2989,-0.3952,-0.4143,0.0,-0.4451,-0.5475,-0.5193,-0.5139,-0.5917,-0.3835,-0.1387,0.0921,0.2452,0.3194,0.292,0.2768,0.2686,0.2696,0.1811,0.0904,0.0034,-0.0034,-0.0101,-0.0134,-0.1814,0.0,0.0,0.0,0.0,0.0,0.0,0.0,0.0,0.0,0.0,0.0,0.0,0.0,0.0,0.0,0.0,0.0,0.0,0.0,0.0,0.0,0.0,0.0,0.0,0.0,0.0,0.0,0.0,0.679,0.6384,0.0,0.4744,0.5294,0.4781,0.2679,0.2361,0.1204,-0.1226,-0.0568,-0.1189,-0.3526,-0.2831,-0.2059,-0.1297,-0.0447,0.0804,0.2464,0.3958,0.4353,0.3697,0.4644,0.4951,0.4709,0.4705,0.4705,0.4705,0.4709,0.374,0.2237,0.166,0.1159,0.0677,-0.0266,-0.0897,-0.1288,-0.1169,-0.1345,-0.1656,-0.1685,-0.1507,-0.1286,-0.1333,-0.2695,-0.3981,-0.3054,-0.2748,-0.2638,-0.2509,-0.2448,-0.2452,-0.2431,-0.183,-0.1158,-0.0712,-0.0357,-0.0,0.0423,-0.0532,-0.1981,-0.3783,-0.4237,-0.4383,-0.458,-0.5354,-0.5864,-0.5597,-0.3247,-0.1082,0.0305,0.2134,0.3253,0.3159,0.3052,0.2931,0.2904,0.2226,0.1277,0.0035,-0.0,-0.0278,-0.0841,-0.1475,-0.1911,0.0,0.0,0.0,0.0,0.0,0.0,0.0,0.0,0.0,0.0,0.0,0.0,0.0,0.0,0.0,0.0,0.0,0.0,0.0,0.0,0.0,0.0,0.0,0.0,0.0,0.7924,0.718,0.7027,0.6592,0.5793,0.4551,0.4605,0.381,0.1622,0.1671,0.0564,-0.2252,-0.085,-0.0357,-0.1164,-0.0934,-0.0355,0.0579,0.1375,0.2131,0.2807,0.4609,0.5281,0.4941,0.5474,0.555,0.5303,0.5303,0.5303,0.5303,0.5303,0.4906,0.4225,0.3504,0.3141,0.3062,0.3185,0.2834,0.2291,0.1793,0.1697,0.1799,0.1754,0.1621,0.1434,0.0919,-0.0628,-0.2096,-0.1414,-0.0944,-0.0679,-0.0589,-0.0574,-0.0562,-0.0585,0.0044,0.0712,0.1114,0.1896,0.2544,0.2551,0.1383,-0.0252,-0.2407,-0.3166,-0.3447,-0.3406,-0.4362,-0.5114,-0.5054,-0.2542,-0.0279,0.1091,0.2466,0.3313,0.3313,0.3168,0.3,0.2901,0.2509,0.1974,0.1232,0.044,-0.0643,-0.2051,-0.1972,-0.2157,-0.2692,0.0,0.0,0.0,0.0,0.0,0.0,0.0,0.0,0.0,0.0,0.0,0.0,0.0,0.0,0.0,0.0,0.0,0.0,0.0,0.0,0.0,0.0,0.0,0.9649,0.8464,0.7627,0.7947,0.7032,0.6003,0.5054,0.4477,0.351,0.1956,0.0757,0.0045,0.0045,0.0045,0.1157,0.3619,0.2174,0.1547,0.1921,0.4188,0.513,0.4776,0.5533,0.5734,0.5389,0.5389,0.5389,0.5389,0.5389,0.5389,0.5394,0.5394,0.5528,0.5759,0.5442,0.5835,0.6603,0.6608,0.6613,0.6362,0.4986,0.4485,0.4483,0.4483,0.4481,0.4111,0.2167,0.1949,0.2062,0.061,0.1247,0.2261,0.2032,0.191,0.1884,0.1851,0.188,0.2196,0.3376,0.382,0.4024,0.4026,0.2515,0.0964,-0.0053,-0.087,-0.1555,-0.2062,-0.2118,0.0,-0.4012,-0.1695,0.0996,0.334,0.3419,0.3291,0.3291,0.3142,0.2924,0.2679,0.2656,0.295,0.3582,0.1356,-0.1025,-0.3484,-0.3279,-0.3528,-0.439,0.0,0.0,0.0,0.0,0.0,0.0,0.0,0.0,0.0,0.0,0.0,0.0,0.0,0.0,0.0,0.0,0.0,0.0,0.0,0.0,0.0,0.8458,0.7982,0.849,0.7977,0.7603,0.7706,0.7687,0.7258,0.6179,0.5646,0.4754,0.3234,0.1993,0.1287,0.1295,0.1293,0.2578,0.5416,0.4642,0.4523,0.5212,0.5572,0.5728,0.5711,0.6374,0.6826,0.7127,0.757,0.775,0.775,0.775,0.7551,0.7189,0.7189,0.7234,0.7185,0.6192,0.6047,0.6477,0.6587,0.6263,0.5651,0.4794,0.449,0.4516,0.4516,0.4494,0.4419,0.3857,0.4491,0.5317,0.4908,0.5085,0.5379,0.5311,0.4346,0.3332,0.3163,0.3337,0.3588,0.3775,0.3914,0.3982,0.4022,0.3646,0.3329,0.3182,0.205,0.0779,-0.0446,0.0332,0.1254,0.1919,0.2499,0.3088,0.3728,0.3639,0.352,0.352,0.3488,0.3028,0.2113,0.205,0.2531,0.3544,0.2951,0.1074,-0.2236,-0.3055,-0.3613,0.0,0.0,0.0,0.0,0.0,0.0,0.0,0.0,0.0,0.0,0.0,0.0,0.0,0.0,0.0,0.0,0.0,0.0,0.0,0.0,0.0,0.0,0.8537,0.823,0.8068,0.7791,0.7723,0.8055,0.8296,0.8087,0.7147,0.6641,0.5848,0.4665,0.3614,0.3211,0.3604,0.3551,0.4536,0.67,0.6284,0.6235,0.6667,0.6956,0.6972,0.6829,0.7439,0.7867,0.8187,0.8545,0.8716,0.8716,0.8716,0.8602,0.8488,0.8488,0.8505,0.8421,0.0,0.0,0.0,0.0,0.7069,0.6357,0.5982,0.566,0.5391,0.5391,0.5395,0.5403,0.5403,0.5964,0.6589,0.6589,0.6623,0.6607,0.6551,0.5747,0.4931,0.4738,0.4868,0.4984,0.487,0.4693,0.4564,0.4564,0.4442,0.0,0.4467,0.3747,0.2847,0.2011,0.2065,0.2775,0.4328,0.4233,0.4046,0.4009,0.3852,0.368,0.3589,0.3615,0.0,0.0,0.0,0.138,0.2067,0.1133,0.0,0.0,0.0,0.0,0.0,-0.4356,0.0,0.0,-0.5918,-0.6233,0.0,0.0,0.0,0.0,0.0,0.0,0.0,0.0,0.0,0.0,0.0,0.0,0.0,0.0,0.0,0.0,0.8793,0.9013,0.8371,0.7998,0.8089,0.8798,0.8946,0.872,0.8051,0.7563,0.6939,0.6162,0.5513,0.5463,0.6242,0.6157,0.0,0.0,0.0,0.7216,0.7279,0.8312,0.8585,0.8054,0.8594,0.8879,0.8878,0.8878,0.8903,0.8937,0.8937,0.9148,0.9486,0.9486,0.9493,0.9403,0.8401,0.835,0.8804,0.8699,0.8268,0.767,0.7616,0.0,0.0,0.6588,0.6588,0.6588,0.6588,0.6642,0.6696,0.6696,0.6804,0.6811,0.6706,0.6602,0.6488,0.64,0.6319,0.6232,0.6206,0.5829,0.5414,0.5357,0.4962,0.457,0.4519,0.4525,0.448,0.4494,0.3355,0.2959,0.4324,0.4304,0.421,0.421,0.4005,0.0,0.3437,0.3541,0.2565,0.0134,-0.0,-0.0,-0.0,-0.2044,-0.2808,-0.204,-0.3055,-0.3836,-0.4303,-0.4391,-0.4696,-0.5206,-0.59,-0.6336,0.0,0.0,0.0,0.0,0.0,0.0,0.0,0.0,0.0,0.0,0.0,0.0,0.0,0.0,0.0,0.9385,0.8821,0.8651,0.9714,0.9454,0.9202,0.9352,0.9761,0.9789,0.9213,0.9062,0.8594,0.75,0.7596,0.7437,0.6787,0.7091,0.7685,0.8639,0.8312,0.8624,0.9705,0.9666,0.9639,0.967,0.9771,0.0,1.0,1.0,1.0181,1.0454,1.0454,1.047,1.0498,1.0498,1.0403,1.0116,0.9061,0.8711,0.8752,0.8156,0.783,0.7616,0.702,0.6696,0.6588,0.6588,0.6588,0.6588,0.6588,0.702,0.0,0.7509,0.7937,0.8362,0.8357,0.7911,0.7425,0.7261,0.6897,0.6513,0.6381,0.6363,0.6201,0.5599,0.5354,0.5109,0.457,0.4519,0.4525,0.448,0.4245,0.4187,0.448,0.4348,0.42,0.42,0.4046,0.3447,0.2239,0.3061,0.259,0.0135,-0.0,-0.0,-0.0,-0.0452,-0.1488,-0.3225,-0.3481,-0.3649,-0.3751,-0.4176,-0.4478,-0.4604,-0.5688,-0.6337,0.0,0.0,0.0,0.0,0.0,0.0,0.0,0.0,0.0,0.0,0.0,0.7656,0.7994,0.0,0.8862,0.904,0.927,0.9548,0.9818,1.0071,1.0113,0.9933,1.0118,1.0196,0.9922,0.9637,0.9372,0.9041,0.87,0.8506,0.8375,0.8246,0.8629,0.9736,0.9439,0.983,1.0985,1.084,1.0938,1.1286,1.1286,1.151,1.1831,1.1561,1.1521,1.1684,1.14,1.1354,1.1488,1.1352,1.1211,1.1008,1.0148,0.9814,0.9658,0.8626,0.8468,0.8666,0.7931,0.7723,0.7723,0.7723,0.7925,0.8125,0.7824,0.819,0.8666,0.8362,0.8533,0.8804,0.8804,0.8533,0.8231,0.819,0.7893,0.7688,0.7605,0.7365,0.702,0.6686,0.6308,0.5928,0.5605,0.5222,0.4897,0.4525,0.4522,0.4519,0.4525,0.4402,0.4358,0.4365,0.4239,0.3891,0.3208,0.2324,0.1287,0.009,-0.0,-0.0,-0.0,-0.0,-0.0549,-0.1762,-0.2381,-0.3031,-0.3758,-0.4033,-0.4166,-0.4209,-0.5135,-0.5922,0.0,0.0,0.0,0.0,0.0,0.0,0.0,0.9656,0.8572,0.7881,0.751,0.7256,0.7098,0.8145,0.8901,0.8371,0.9524,1.0262,0.9631,1.0312,1.0772,1.0477,1.0417,1.0428,1.0428,0.9961,0.9825,1.0186,0.9533,0.9351,0.9884,0.9603,0.9909,1.0934,1.0927,1.1295,1.2196,1.2196,1.2408,1.2797,1.2797,1.3039,1.3365,1.2909,1.2701,1.2797,1.2243,1.2148,1.2336,1.2106,1.2021,1.1972,1.1266,1.1065,1.1023,0.9666,0.9465,0.971,0.9159,0.9008,0.9008,0.9008,0.9465,0.9917,0.9361,0.9562,0.9865,0.9361,0.9211,0.9211,0.9211,0.9106,0.9008,0.9008,0.891,0.8804,0.8804,0.8321,0.7883,0.7723,0.7235,0.675,0.6642,0.6091,0.5487,0.4787,0.457,0.4519,0.4519,0.4519,0.4522,0.4477,0.4213,0.3924,0.3669,0.1376,-0.0,-0.0,-0.0,-0.0,-0.0,-0.0,-0.0,-0.0,-0.095,-0.2025,-0.3139,-0.3667,-0.3983,-0.4076,-0.455,-0.5313,0.7682,0.9119,1.0677,1.1667,1.1293,1.0615,0.0,0.9319,0.8269,0.788,0.7169,0.6667,0.6893,0.7082,0.7509,0.8502,0.8799,0.9207,0.9928,1.0531,1.0897,1.0847,1.0867,1.0905,1.0905,1.0495,1.0235,1.0273,1.0504,1.0522,1.0244,1.1419,1.2162,1.2266,1.3173,1.3872,1.4348,1.4359,1.4194,1.3902,1.3902,1.3764,1.3406,1.3324,1.3519,1.3925,1.3672,1.3297,1.2812,1.2803,1.2774,1.2715,1.1981,1.2089,1.251,1.1074,1.0269,0.9762,0.971,0.9666,0.9666,0.9666,1.0167,1.0661,1.0618,1.0618,1.0661,1.0618,1.0568,1.0568,1.0568,1.0115,0.9666,0.9666,0.9211,0.8804,0.8804,0.8752,0.848,0.783,0.7616,0.7343,0.6696,0.6534,0.6204,0.5487,0.4897,0.4519,0.4519,0.4519,0.4522,0.4477,0.3284,0.1948,0.0608,0.0194,-0.0,-0.0,-0.0,-0.0,-0.0,-0.0,-0.0,-0.0,-0.0143,-0.0286,-0.0431,-0.2923,-0.4193,-0.4193,-0.4268,-0.4673,0.8607,0.984,1.0922,1.1302,1.133,1.1008,1.0117,0.9067,0.8117,0.7519,0.7231,0.727,0.7901,0.8685,0.9345,0.9734,1.0258,1.0689,1.0879,1.1505,1.2094,1.2475,1.2589,1.2307,1.1531,1.1509,1.1546,1.1579,1.1464,1.1615,1.2036,1.2384,1.2828,1.34,1.388,1.4305,1.4698,1.4698,1.4778,1.4961,1.4961,1.503,1.5181,1.4818,1.4589,1.4418,1.3964,1.3637,1.342,1.3065,1.2881,1.2881,1.2559,1.2618,1.2725,1.1334,1.0864,1.0914,1.0517,1.0364,1.0364,1.0364,1.0864,1.1316,1.0914,1.1065,1.1316,1.0914,1.0813,1.0813,1.0813,1.0312,0.9814,0.9814,0.9316,0.8804,0.8804,0.8804,0.8699,0.8374,0.8321,0.8262,0.7943,0.7182,0.648,0.6204,0.5546,0.4948,0.457,0.4519,0.4184,0.3239,0.181,0.0644,0.0052,-0.0,-0.0,-0.0,-0.0,-0.0,-0.0,-0.0,-0.0,-0.0,-0.0,-0.0,-0.0,-0.1169,-0.2675,-0.435,-0.4355,-0.4537,0.9702,1.0475,1.0982,1.1418,1.1479,1.1143,1.0258,0.9321,0.847,0.788,0.8026,0.8459,0.9107,1.0264,1.1099,1.1064,1.164,1.2029,1.1871,1.2564,1.3319,1.3889,1.4322,1.4186,1.3179,1.2663,1.2366,1.2318,1.2119,1.2358,1.3068,1.3193,1.361,1.4347,1.4638,1.4882,1.5197,1.5197,1.5421,1.5864,1.5864,1.6095,1.6479,1.6051,1.5421,1.4663,1.4236,1.3873,1.3505,1.3055,1.2881,1.2881,1.2881,1.2881,1.2774,1.1742,1.1575,1.1715,1.1266,1.1065,1.1065,1.1065,1.1525,1.203,1.1534,1.1733,1.1981,1.1534,1.1384,1.1325,1.1116,1.0568,1.0012,0.9865,0.9316,0.8804,0.8804,0.8804,0.8804,0.8804,0.8646,0.848,0.848,0.745,0.6534,0.6312,0.5814,0.5273,0.4574,0.4473,0.4082,0.2963,0.1149,-0.0,-0.0,-0.0,-0.0,-0.0,-0.0,-0.0,-0.0,-0.0,-0.0,-0.0,-0.0,-0.0,-0.0,-0.0,-0.1115,-0.3294,-0.4138,-0.4473,1.0588,1.0798,1.0974,1.2473,1.1734,1.0732,1.1149,1.0325,0.9466,0.9425,0.984,1.0217,1.0246,1.1048,1.1806,1.2176,1.2275,1.2387,1.2733,1.3557,1.4285,1.4609,1.5765,1.6471,1.6362,1.3948,1.2224,1.1847,1.2298,1.2607,1.2619,1.407,1.4929,1.4953,1.5899,1.6411,1.6436,1.6436,1.6466,1.6466,1.6466,1.6466,1.6522,1.6466,1.5832,1.4698,1.4698,1.4025,1.2929,1.2929,1.2881,1.2881,1.2881,1.2881,1.2881,1.2832,1.2403,1.1814,1.1765,1.1765,1.1765,1.1765,1.2295,1.2871,1.2822,1.2832,1.2871,1.2822,1.2832,1.2666,1.1972,1.1266,1.0618,0.9961,0.9316,0.8804,0.8804,0.8804,0.8804,0.8804,0.8209,0.7723,0.7723,0.7128,0.6367,0.5651,0.5542,0.5277,0.4584,0.4497,0.4455,0.4455,0.1793,-0.0,-0.0,-0.0,-0.0,-0.0,-0.0,-0.0,-0.0,-0.0,-0.0,-0.0,-0.0,-0.0,-0.0,-0.0,-0.0056,-0.0223,-0.3125,-0.448,1.1189,1.1367,1.1348,1.1945,1.1705,1.1141,1.0458,1.0152,1.002,1.0028,1.0695,1.1492,1.2179,1.3059,1.3602,1.3333,1.3627,1.3878,1.3797,1.4262,1.4946,1.5917,1.6394,1.6747,1.6881,1.6069,1.5358,1.495,1.4747,1.4803,1.517,1.5374,1.5637,1.5966,1.6323,1.6522,1.6522,1.6522,1.6281,1.5908,1.5511,1.5511,1.5908,1.5908,1.5688,1.5276,1.488,1.4247,1.3467,1.3065,1.2881,1.2881,1.2881,1.2881,1.2881,1.2881,1.2725,1.255,1.255,1.255,1.255,1.255,1.2715,1.2881,1.2881,1.2881,1.2881,1.2881,1.2559,1.2129,1.1864,1.0965,1.0064,0.9865,0.9316,0.8804,0.8804,0.8804,0.8646,0.8156,0.7883,0.7557,0.7074,0.6362,0.566,0.4959,0.4853,0.4746,0.4532,0.4501,0.4514,0.4514,0.1794,-0.0,-0.0,-0.0,-0.0,-0.0,-0.0,-0.0,-0.0,-0.0,-0.0,-0.0,-0.0,-0.0,-0.0,-0.0,-0.0,-0.0,-0.1059,-0.2569,1.1907,1.1938,1.1656,1.1948,1.1851,1.1448,1.0424,1.0428,1.0625,1.068,1.175,1.2917,1.369,1.4734,1.5407,1.5278,1.5355,1.5427,1.5424,1.5467,1.5915,1.6937,1.7165,1.7432,1.7959,1.8012,1.76,1.6586,1.6498,1.6495,1.6506,1.6333,1.6341,1.6509,1.668,1.6795,1.6795,1.6795,1.6386,1.5588,1.5186,1.5096,1.5276,1.5276,1.5141,1.4949,1.4549,1.4061,1.3467,1.3065,1.2881,1.2881,1.2881,1.2881,1.2881,1.2881,1.2881,1.2881,1.2881,1.2881,1.2881,1.2881,1.2881,1.2881,1.2881,1.2881,1.2881,1.2881,1.2344,1.1765,1.1516,1.0618,0.9762,0.951,0.9106,0.8752,0.848,0.8427,0.8209,0.7456,0.7069,0.674,0.6308,0.5601,0.5007,0.4581,0.4024,0.386,0.4435,0.3538,0.2865,0.2865,0.1177,-0.0,-0.0,-0.0,-0.0,-0.0,-0.0,-0.0,-0.0,-0.0,-0.0,-0.0,-0.0,-0.0,-0.0,-0.0,-0.0,-0.0,-0.0,-0.162,1.2718,1.247,1.1908,1.2493,1.2171,1.1614,1.1076,1.1116,1.1322,1.1522,1.2996,1.4363,1.4871,1.6009,1.7113,1.7808,1.738,1.7056,1.7371,1.7065,1.7051,1.7629,1.7989,1.8572,1.9591,1.9711,1.8889,1.681,1.7448,1.7559,1.6676,1.7089,1.7118,1.6595,1.7034,1.7312,1.7353,1.7271,1.6659,1.5543,1.5543,1.5231,1.4652,1.4652,1.4329,1.3815,1.3815,1.3467,1.2881,1.2881,1.2881,1.2881,1.2881,1.2881,1.2881,1.2881,1.2881,1.2881,1.2881,1.2881,1.2881,1.2881,1.2881,1.2881,1.2881,1.2881,1.2881,1.2832,1.2295,1.1616,1.0914,1.0261,0.9562,0.8956,0.8804,0.8593,0.783,0.7723,0.745,0.6696,0.5928,0.5433,0.5433,0.4893,0.4519,0.4519,0.3234,0.2796,0.4225,0.1794,-0.0,-0.0,-0.0,-0.0,-0.0,-0.0,-0.0,-0.0,-0.0,-0.0,-0.0,-0.0,-0.0,-0.0,-0.0,-0.0,-0.0,-0.0,-0.0,-0.0,-0.0,-0.1511,1.2979,1.3038,1.2975,1.2967,1.2699,1.2337,1.1884,1.1869,1.2313,1.3593,1.4242,1.5086,1.6714,1.7561,1.8042,1.8248,1.8575,1.847,1.7525,1.7308,1.7355,1.7642,1.7779,1.8323,1.9591,1.9965,1.9813,1.8933,1.8731,1.8544,1.8295,1.8048,1.7827,1.7706,1.7422,1.7504,1.7907,1.7066,1.6046,1.4926,1.4457,1.4179,1.405,1.405,1.3956,1.3815,1.3815,1.3467,1.2881,1.2881,1.2881,1.2881,1.2881,1.2881,1.2881,1.2881,1.2881,1.2881,1.2881,1.2881,1.2881,1.2881,1.2881,1.2881,1.2881,1.2881,1.2774,1.2236,1.1575,1.0914,1.0218,0.9562,0.9008,0.8857,0.8804,0.8593,0.783,0.7723,0.7343,0.6032,0.5222,0.4732,0.4732,0.4625,0.4522,0.4473,0.4138,0.3633,0.2907,0.1175,-0.0,-0.0,-0.0,-0.0,-0.0,-0.0,-0.0,-0.0,-0.0,-0.0,-0.0,-0.0,-0.0,-0.0,-0.0,-0.0,-0.0,-0.0,-0.0,-0.0,-0.0,-0.0392,1.3658,1.3731,1.3616,1.3412,1.3345,1.3179,1.2637,1.2632,1.3178,1.4667,1.4892,1.5424,1.7413,1.8123,1.855,1.9034,1.9443,1.9448,1.8651,1.8266,1.7955,1.7734,1.7951,1.8448,1.9181,1.9743,1.9929,1.9711,1.9594,1.931,1.893,1.8612,1.8263,1.7747,1.7706,1.7787,1.8106,1.7477,1.6579,1.5443,1.4595,1.405,1.3779,1.3552,1.342,1.342,1.342,1.319,1.2881,1.2881,1.2881,1.2881,1.2881,1.2881,1.2881,1.2881,1.2881,1.2832,1.255,1.2618,1.2881,1.2881,1.2881,1.2881,1.2881,1.2881,1.2774,1.2021,1.1316,1.0669,0.9961,0.9309,0.8804,0.8804,0.8804,0.8593,0.783,0.745,0.6799,0.5328,0.4732,0.4519,0.4519,0.4519,0.4519,0.4525,0.4477,0.4196,0.3294,0.134,-0.0,-0.0,-0.0,-0.0,-0.0,-0.0,-0.0,-0.0,-0.0,-0.0,-0.0,-0.0,-0.0,-0.0,-0.0,-0.0,-0.0,-0.0,-0.0,-0.0,-0.0,-0.0,1.4427,1.4402,1.4064,1.3864,1.402,1.4035,1.3327,1.3403,1.3992,1.5166,1.5209,1.5595,1.7464,1.8123,1.8742,1.9891,2.017,2.0245,2.0166,1.9538,1.8817,1.8029,1.8392,1.8732,1.8822,1.9346,1.969,1.969,2.0035,1.9864,1.9043,1.9006,1.8496,1.7422,1.7867,1.8066,1.7987,1.7987,1.7477,1.6391,1.5309,1.4468,1.3768,1.3238,1.2968,1.2881,1.2881,1.2881,1.2881,1.2881,1.2881,1.2881,1.2881,1.2881,1.2881,1.2881,1.2881,1.2822,1.2187,1.2344,1.2881,1.2774,1.2822,1.2881,1.2881,1.2881,1.2774,1.2021,1.1366,1.0762,1.0115,0.951,0.9061,0.8956,0.8956,0.8692,0.7883,0.702,0.6095,0.4897,0.457,0.4519,0.4519,0.4519,0.4519,0.4519,0.4525,0.4477,0.4477,0.2232,0.0447,0.0056,-0.0,0.0168,0.0561,0.0617,0.0449,-0.0,-0.0,-0.0,-0.0,-0.0,-0.0,-0.0,-0.0,-0.0,-0.0,-0.0,-0.0,-0.0,-0.0,-0.0,1.4567,1.4644,1.4558,1.4464,1.4651,1.469,1.4127,1.4253,1.4786,1.5761,1.548,1.5654,1.7464,1.8075,1.8776,2.0199,2.1098,2.1468,2.0974,2.0522,1.9932,1.92,1.8864,1.8912,1.9465,1.9615,1.969,1.969,1.9747,1.9747,1.9566,1.9566,1.908,1.7987,1.8066,1.7907,1.7422,1.7422,1.7079,1.6391,1.5752,1.4869,1.3815,1.3684,1.3372,1.2881,1.2881,1.2881,1.2881,1.2881,1.2881,1.2881,1.2881,1.2881,1.2881,1.2881,1.2881,1.2881,1.2764,1.2774,1.2774,1.2187,1.2393,1.2881,1.2881,1.2881,1.2774,1.2021,1.1715,1.1458,1.0813,1.0517,1.0312,0.9762,0.9614,0.9302,0.7984,0.6632,0.5597,0.5378,0.4897,0.4519,0.4519,0.4519,0.4519,0.4519,0.4519,0.4522,0.4522,0.4036,0.2747,0.0279,-0.0,0.1009,0.3487,0.3713,0.2637,0.0168,-0.0,-0.0,-0.0,-0.0,-0.0,-0.0,-0.0,-0.0,-0.0,-0.0,-0.0,-0.0,-0.0,-0.0,1.4946,1.4967,1.4946,1.467,1.4926,1.5132,1.4638,1.472,1.5184,1.6197,1.5705,1.5669,1.748,1.8058,1.8768,2.0252,2.1341,2.1908,2.1649,2.1273,2.0695,1.9814,1.9615,1.9546,1.9546,1.9836,1.9945,1.9726,1.969,1.969,1.969,1.9169,1.8496,1.7706,1.7666,1.7706,1.7706,1.7706,1.7572,1.7259,1.6421,1.5386,1.4283,1.3956,1.3467,1.2881,1.2881,1.2881,1.2881,1.2881,1.2881,1.2881,1.2881,1.2881,1.2881,1.2881,1.2881,1.2832,1.2452,1.2559,1.2774,1.203,1.2295,1.2881,1.2881,1.2881,1.2774,1.2021,1.1814,1.1665,1.0965,1.0813,1.0712,1.0415,1.0064,0.9399,0.7984,0.6853,0.5982,0.5597,0.4948,0.4519,0.4519,0.4519,0.4519,0.4519,0.4519,0.4519,0.4519,0.4487,0.3758,0.1783,0.0614,0.0559,0.2015,0.3599,0.3884,0.241,0.0894,-0.0,-0.0,-0.0,-0.0,-0.0,-0.0,-0.0,-0.0,-0.0,-0.0,-0.0,-0.0,-0.0,1.5526,1.5331,1.5206,1.4908,1.5288,1.56,1.5147,1.5258,1.5654,1.6353,1.5831,1.5728,1.7302,1.7892,1.8689,2.0333,2.1375,2.2041,2.2287,2.199,2.1358,2.0362,2.0351,2.018,1.9518,1.9953,2.0124,1.9711,1.969,1.9639,1.953,1.8612,1.7867,1.7312,1.7188,1.7394,1.7907,1.7827,1.7827,1.7907,1.6899,1.584,1.4698,1.419,1.36,1.2881,1.2881,1.2881,1.2881,1.2881,1.2881,1.2881,1.2881,1.2881,1.2881,1.2881,1.2881,1.2822,1.2236,1.2403,1.2774,1.203,1.2187,1.2666,1.2666,1.2666,1.2559,1.1972,1.1922,1.1922,1.1375,1.1225,1.1174,1.0864,1.0167,0.9302,0.8203,0.7235,0.6421,0.5873,0.5058,0.4519,0.4519,0.4519,0.4519,0.4519,0.4519,0.4519,0.4522,0.448,0.4089,0.2954,0.173,0.0727,0.0056,0.2464,0.4166,0.4458,0.2294,0.067,-0.0,-0.0,-0.0,-0.0,-0.0,-0.0,-0.0,-0.0,-0.0,-0.0,-0.0,-0.0,1.6376,1.5805,1.5266,1.554,1.6013,1.6315,1.5977,1.6281,1.649,1.5973,1.58,1.597,1.6739,1.732,1.8391,2.0601,2.1439,2.2114,2.2976,2.2735,2.2105,2.1037,2.0927,2.0601,1.9763,2.0058,2.0124,1.9711,1.969,1.9479,1.9006,1.8419,1.7867,1.7312,1.6837,1.6837,1.7394,1.6879,1.6879,1.7394,1.6782,1.5876,1.4698,1.4652,1.3978,1.2881,1.2881,1.2881,1.2881,1.2881,1.2881,1.2881,1.2881,1.2881,1.2881,1.2881,1.2881,1.2881,1.2822,1.2822,1.2774,1.203,1.1864,1.1913,1.1913,1.1913,1.1873,1.1814,1.2286,1.2774,1.2725,1.2725,1.2363,1.1124,0.9814,0.8857,0.8752,0.7616,0.6588,0.6534,0.5445,0.4519,0.4519,0.4519,0.4519,0.4519,0.4519,0.4522,0.4477,0.448,0.3913,0.2454,0.337,0.2981,0.0223,0.1506,0.3023,0.4399,0.4219,0.2856,0.0112,-0.0,-0.0,-0.0,-0.0,-0.0,-0.0,-0.0,-0.0,-0.0,-0.0,-0.0,1.682,1.6631,1.6558,1.5926,1.638,1.683,1.6192,1.628,1.6382,1.5898,1.5799,1.6011,1.6686,1.7117,1.8093,2.0341,2.101,2.1711,2.3023,2.2853,2.2461,2.2068,2.1811,2.135,2.0565,2.0632,2.0431,1.9747,1.9406,1.8968,1.8458,1.8224,1.7706,1.6837,1.6595,1.6752,1.7312,1.7076,1.7076,1.7312,1.7076,1.6201,1.4698,1.4698,1.4025,1.2881,1.2881,1.2881,1.2881,1.2881,1.2881,1.2881,1.2881,1.2881,1.2881,1.2881,1.2881,1.2822,1.2393,1.2236,1.2138,1.1416,1.0914,1.0661,1.1065,1.1216,1.1216,1.1216,1.1425,1.1525,1.109,1.0655,1.0132,0.912,0.8462,0.796,0.7557,0.6686,0.5928,0.5928,0.5167,0.4519,0.4519,0.4522,0.4473,0.4473,0.4477,0.4484,0.449,0.2901,0.223,0.3477,0.4113,0.4002,0.2805,0.1564,0.19,0.434,0.4507,0.3937,0.2751,0.0953,-0.0,-0.0,-0.0,-0.0,-0.0,-0.0,-0.0,-0.0,-0.0,-0.0,1.7653,1.7543,1.7533,1.6715,1.6983,1.7274,1.6591,1.6449,1.6328,1.587,1.5799,1.5983,1.6554,1.6962,1.7833,1.9728,2.0512,2.1369,2.2698,2.273,2.2651,2.266,2.2378,2.1903,2.1212,2.0943,2.0499,1.9747,1.9369,1.8817,1.8145,1.8106,1.7626,1.6522,1.6522,1.668,1.7076,1.7076,1.698,1.6786,1.6786,1.6058,1.4698,1.4698,1.4247,1.343,1.3238,1.3296,1.3382,1.3065,1.3017,1.3152,1.2706,1.2715,1.2881,1.2666,1.2559,1.251,1.1972,1.1665,1.1416,1.0712,1.0167,0.9865,1.0115,1.0364,1.0458,1.0246,1.0372,1.0312,0.9043,0.8074,0.7349,0.7078,0.6823,0.663,0.6583,0.6218,0.5841,0.5841,0.5128,0.4473,0.4473,0.448,0.4369,0.3913,0.3808,0.3984,0.4445,0.184,0.0446,0.1733,0.2238,0.2689,0.3147,0.123,0.0894,0.3033,0.3999,0.4113,0.3203,0.1121,-0.0,-0.0,-0.0,-0.0,-0.0,-0.0,-0.0,-0.0,-0.0,-0.0,1.9126,1.8496,1.7859,1.8106,1.7983,1.7689,1.7294,1.6987,1.6607,1.5926,1.5799,1.5898,1.6246,1.6811,1.7572,1.8737,2.0018,2.1175,2.2012,2.245,2.266,2.2617,2.2412,2.2073,2.1543,2.075,2.0158,1.9711,1.969,1.9244,1.8185,1.8106,1.7626,1.6522,1.6522,1.6522,1.6522,1.6522,1.6194,1.5632,1.5632,1.5276,1.4698,1.4698,1.4698,1.4663,1.405,1.4143,1.4617,1.3382,1.3238,1.3674,1.2355,1.2236,1.2822,1.208,1.1814,1.1814,1.1814,1.1366,1.0712,1.0012,0.9814,0.9666,0.9008,0.9263,0.9651,0.8947,0.9375,0.9532,0.7056,0.5396,0.4577,0.5522,0.5061,0.4822,0.6263,0.6599,0.6579,0.6579,0.5448,0.4497,0.4497,0.4497,0.3981,0.2456,0.2232,0.2794,0.4284,0.1842,-0.1114,-0.411,-0.3023,-0.1563,-0.0056,-0.0,-0.0,0.0056,0.2865,0.3147,0.0168,-0.0,-0.0,-0.0,-0.0,-0.0,-0.0,-0.0,-0.0,-0.0,-0.0,-0.0,1.902,1.9117,1.9167,1.8612,1.8466,1.8305,1.7616,1.7117,1.6607,1.5926,1.5799,1.5898,1.6246,1.6628,1.7434,1.9033,1.9857,2.0815,2.2307,2.2615,2.2678,2.266,2.1915,2.143,2.1549,2.0534,1.9929,2.0089,1.9522,1.9006,1.865,1.8302,1.7626,1.6522,1.6522,1.6522,1.6522,1.6522,1.6194,1.5588,1.5588,1.5096,1.4097,1.4097,1.4097,1.405,1.3467,1.3742,1.4617,1.3382,1.3238,1.3674,1.2297,1.1922,1.208,1.1366,1.1116,1.1065,1.061,1.0312,1.002,0.9309,0.8784,0.8302,0.8096,0.8196,0.8302,0.7901,0.6543,0.4861,0.3361,0.2174,0.1421,0.1749,0.1589,0.1704,0.2874,0.3106,0.3224,0.3514,0.3239,0.2905,0.2905,0.3816,0.4337,0.3822,0.2015,0.0896,0.1345,0.0615,-0.1173,-0.4169,-0.4045,-0.3135,-0.1619,-0.0559,-0.0,-0.0,0.0896,0.1009,0.0056,-0.0,-0.0,-0.0,-0.2023,-0.3095,-0.3091,-0.3091,-0.2523,-0.1452,-0.0447,-0.0559,1.8921,1.9458,1.9656,1.9017,1.882,1.8556,1.7662,1.6987,1.6389,1.5682,1.5551,1.5595,1.5811,1.6459,1.7406,1.8708,1.9611,2.0694,2.209,2.2436,2.2537,2.2537,2.2017,2.1579,2.1399,2.0665,2.0174,2.0089,1.9522,1.9132,1.8893,1.8574,1.7907,1.6837,1.6795,1.671,1.6522,1.6522,1.6194,1.5588,1.5365,1.4869,1.4143,1.3909,1.3909,1.4097,1.3515,1.3789,0.0,1.3382,1.3238,1.3674,1.2297,1.1814,1.1715,1.1065,1.0669,1.0364,0.9969,0.9614,0.9361,0.8956,0.85,0.7979,0.7252,0.7031,0.6923,0.6386,0.4088,0.1599,0.055,-0.0717,-0.1716,-0.1716,-0.1716,-0.1551,-0.0887,0.0111,0.0834,0.0612,0.1004,0.1396,0.1395,0.1228,0.1118,0.1118,0.0448,-0.0,-0.0,-0.0,-0.1174,-0.4169,-0.4504,-0.4095,-0.3132,-0.2237,-0.1229,-0.0056,-0.0,-0.0,-0.0,-0.1066,-0.1684,-0.1682,-0.3548,-0.4231,-0.3649,-0.4219,-0.399,-0.3019,-0.2122,-0.1898,0.0,1.9305,1.9301,1.9181,1.8931,1.8447,1.7405,1.6645,0.0,1.527,1.5104,1.5118,1.5162,1.6338,1.7455,1.7912,1.9414,2.075,2.1506,2.1993,2.231,2.231,2.2405,2.2112,2.1069,2.0847,2.0424,1.9682,1.9621,1.9419,1.8896,1.8939,1.8496,1.7463,1.7435,1.7105,1.6522,1.6522,1.6194,1.5588,1.4971,1.4698,1.4617,1.4003,1.4061,1.4606,1.405,1.4143,1.4606,1.343,1.3286,1.3674,1.2248,1.1715,1.1665,1.0914,1.0261,0.9718,0.9718,0.9309,0.8804,0.8705,0.8645,0.8261,0.6356,0.5918,0.5804,0.4443,0.2052,-0.0389,-0.1444,-0.3118,-0.4477,-0.4477,-0.4477,-0.448,-0.4494,-0.2291,-0.067,-0.184,-0.1118,-0.0224,-0.0056,-0.2298,-0.4228,-0.4458,-0.2127,-0.0223,-0.0,-0.0,-0.1062,-0.3884,-0.4101,-0.4039,-0.415,-0.4392,-0.3314,-0.0503,-0.0112,-0.0112,-0.0336,-0.2986,-0.4584,-0.48,-0.4737,-0.3984,-0.2563,-0.3919,-0.4546,-0.4546,-0.4549,-0.3752,1.5791,0.0,1.78,1.77,1.7832,1.7774,0.0,1.6253,1.562,1.518,0.0,1.5248,1.5768,1.6653,1.7678,1.8858,1.986,2.0763,2.1499,2.2,2.231,2.231,2.1309,2.0639,2.0701,1.9358,1.8556,1.8684,1.8846,1.8892,1.8737,1.9212,1.9207,1.8535,1.8535,1.7867,1.6522,1.6522,1.6194,1.5588,1.4971,1.4468,1.4003,1.3382,1.342,1.4003,1.3862,1.4143,1.4652,1.392,1.3684,1.3627,1.1747,1.1065,1.0914,0.9718,0.9159,0.9061,0.9061,0.8956,0.8705,0.7979,0.7231,0.6361,0.5163,0.6387,0.7131,0.2389,-0.0278,-0.2006,-0.3403,-0.4132,-0.4522,-0.4522,-0.4522,-0.4525,-0.448,-0.3922,-0.2852,-0.0893,-0.2074,-0.2701,-0.0392,-0.056,-0.185,-0.4169,-0.3884,-0.2635,-0.0279,-0.0,-0.0279,-0.1006,-0.0056,0.0167,-0.0944,-0.319,-0.4169,-0.3485,-0.1288,-0.101,-0.3327,-0.412,-0.5545,-0.7755,-0.7083,-0.6519,-0.6168,-0.5559,-0.5281,-0.5226,-0.475,-0.4307,1.3567,1.5275,1.6784,1.6745,1.7114,1.7292,1.6658,1.5902,0.0,0.0,0.0,1.4808,1.5651,1.6576,1.7603,1.8845,1.9798,2.0682,2.1502,2.1823,2.1943,2.1809,2.0747,1.9943,1.9837,1.8732,1.8035,1.8066,1.8462,1.8702,1.8702,1.9331,1.9442,1.893,1.8893,1.838,1.7229,1.6993,1.6685,1.6361,1.5531,1.4789,1.419,1.36,1.3334,1.342,1.3684,1.3826,1.3884,1.3826,1.3647,1.3266,1.1814,1.1065,1.0661,0.9666,0.9061,0.8804,0.8804,0.8586,0.8109,0.7058,0.6009,0.5128,0.4671,0.5605,0.5592,-0.039,-0.2627,-0.3466,-0.4311,-0.4525,-0.4519,-0.4519,-0.4519,-0.4519,-0.4525,-0.4484,-0.4039,-0.24,-0.337,-0.4005,-0.2357,-0.2074,-0.2128,-0.2408,-0.3599,-0.3884,-0.2296,-0.0839,-0.0,-0.0,0.1958,0.291,0.2119,0.0558,-0.1229,-0.3309,-0.2583,-0.2813,-0.4409,-0.5776,-0.7025,-0.8148,-0.7432,-0.7052,-0.7052,-0.6317,-0.5814,-0.5487,-0.5117,-0.4794,1.2039,1.3949,1.5762,1.5731,1.6298,1.6677,1.6099,0.0,0.0,0.0,0.0,0.0,1.5345,1.631,1.734,1.8456,1.9573,2.0601,2.1491,2.1552,2.1424,2.1137,2.0315,1.9489,1.8741,1.8277,1.7854,1.7462,1.7963,1.8331,1.8435,1.8989,1.9141,1.8803,1.8855,1.8688,1.8224,1.7626,1.7312,1.7312,1.6145,1.5276,1.4698,1.4097,1.3467,1.292,1.3552,1.3467,1.2978,1.3552,1.342,1.2822,1.1981,1.1316,1.072,0.9909,0.9316,0.8804,0.8646,0.8103,0.7246,0.6292,0.5293,0.4408,0.4504,0.3834,0.2133,-0.2802,-0.433,-0.4494,-0.448,-0.4525,-0.4519,-0.4519,-0.4519,-0.4519,-0.4519,-0.448,-0.4435,-0.4307,-0.4209,-0.4225,-0.4455,-0.4104,-0.2965,-0.0391,-0.2183,-0.3996,-0.4455,-0.2244,-0.0505,-0.0056,0.2695,0.4514,0.4514,0.4514,0.2687,-0.1615,-0.3543,-0.4577,-0.473,-0.7202,-0.8209,-0.7453,-0.709,-0.6912,-0.6912,-0.6804,-0.647,-0.581,-0.5597,-0.5218,1.2034,1.2966,1.373,1.3674,1.441,1.5049,1.4552,0.0,0.0,0.0,0.0,0.0,1.5434,1.6099,1.6958,1.8584,1.9682,2.0601,2.1491,2.1306,2.0985,2.0726,1.9482,1.8374,1.7713,1.678,1.6157,1.6098,1.6344,1.6702,1.7156,1.749,1.7847,1.821,1.865,1.8855,1.8779,1.7787,1.7312,1.7312,1.6145,1.5276,1.4698,1.4097,1.3467,1.292,1.3552,1.3467,1.2978,1.3552,1.342,1.2774,1.1484,1.0914,1.0669,0.9413,0.891,0.8699,0.8103,0.7139,0.6182,0.6444,0.5563,0.4507,0.4521,0.0952,-0.303,-0.2683,-0.3471,-0.449,-0.4525,-0.4519,-0.4519,-0.4519,-0.4519,-0.4519,-0.4519,-0.4473,-0.4252,-0.34,-0.2845,-0.2965,-0.4281,-0.2408,-0.0558,-0.0056,-0.0391,-0.1621,-0.4169,-0.4113,-0.2809,-0.028,0.2695,0.4514,0.4514,0.4514,0.314,-0.0111,-0.297,-0.4838,-0.5644,-0.6926,-0.7632,-0.7681,-0.8162,-0.848,-0.848,-0.783,-0.745,-0.7337,-0.6086,-0.5433,1.187,1.2633,1.3242,1.3036,1.4172,1.5162,1.4482,1.4059,0.0,0.0,0.0,1.3473,1.4601,1.5182,1.6177,1.8131,1.9059,1.9597,1.992,2.0066,1.9814,1.892,1.7837,1.6862,1.6159,1.5476,1.5104,1.5104,1.5521,1.5891,1.614,1.6606,1.7098,1.7633,1.7927,1.8158,1.8444,1.7706,1.7463,1.7706,1.6912,1.5884,1.4709,1.4422,1.3789,1.292,1.3552,1.3467,1.2978,1.3552,1.342,1.2774,1.1325,1.0813,1.061,0.8823,0.8209,0.8049,0.7085,0.6337,0.5859,0.5563,0.5016,0.3884,0.0615,-0.2298,-0.434,-0.3638,-0.3974,-0.4484,-0.4522,-0.4519,-0.4519,-0.4519,-0.4519,-0.4519,-0.4519,-0.4525,-0.4366,-0.391,-0.363,-0.3694,-0.4396,-0.2631,-0.0893,-0.0112,-0.0,-0.0504,-0.1906,-0.2076,-0.1514,-0.0168,0.1231,0.2747,0.4343,0.3026,0.0781,-0.2235,-0.4196,-0.5703,-0.6683,-0.7268,-0.7794,-0.8262,-0.8646,-0.8804,-0.8804,-0.848,-0.8103,-0.767,-0.6578,-0.5869,1.1785,1.2463,1.3005,1.2785,1.3982,1.5051,1.453,1.4139,1.3785,1.3372,1.3062,1.3095,1.3843,1.4809,1.5945,1.7487,1.8228,1.8651,1.8589,1.8743,1.8436,1.731,1.6439,1.5609,1.4817,1.4355,1.416,1.416,1.456,1.4836,1.4958,1.538,1.5885,1.653,1.666,1.698,1.7491,1.7218,1.7354,1.7907,1.7394,1.6287,1.4698,1.4698,1.4025,1.2929,1.3208,1.317,1.2929,1.3208,1.3064,1.251,1.1275,1.0501,0.9887,0.829,0.7503,0.7069,0.6173,0.5517,0.4963,0.4612,0.3999,0.2467,-0.286,-0.4511,-0.4504,-0.4484,-0.4477,-0.4473,-0.4519,-0.4519,-0.4519,-0.4519,-0.4519,-0.4519,-0.4519,-0.4525,-0.4477,-0.4477,-0.4477,-0.448,-0.4501,-0.3302,-0.1952,-0.0727,-0.0504,-0.0504,-0.0504,-0.0504,-0.0504,-0.0504,-0.0503,0.0447,0.2745,0.0501,-0.2117,-0.4664,-0.5483,-0.6346,-0.7447,-0.7634,-0.8049,-0.8804,-0.8804,-0.8699,-0.8533,-0.8699,-0.8427,-0.767,-0.7128,-0.6475,1.1994,1.2259,1.2406,1.2484,1.2993,1.3573,1.4027,1.3131,1.2505,1.3598,1.3925,1.3976,1.3998,1.5646,1.6915,1.6652,1.7488,1.827,1.8578,1.7836,1.7151,1.6864,1.6033,1.5035,1.3992,1.3413,1.312,1.312,1.2798,1.2854,1.3349,1.3068,1.3345,1.4293,1.4743,1.5223,1.5668,1.615,1.6683,1.7353,1.6795,1.592,1.4698,1.4698,1.4025,1.2871,1.2227,1.2286,1.2832,1.2227,1.1913,1.1823,1.1065,0.9629,0.7931,0.7777,0.6848,0.5655,0.5845,0.4398,0.2679,0.4051,0.2583,-0.028,-0.3543,-0.4507,-0.4494,-0.4484,-0.4473,-0.4519,-0.4519,-0.4519,-0.4519,-0.4519,-0.4519,-0.4519,-0.4519,-0.4519,-0.4519,-0.4519,-0.4519,-0.4522,-0.448,-0.3627,-0.273,-0.2119,-0.2063,-0.2063,-0.2063,-0.2063,-0.2063,-0.2063,-0.2063,-0.1952,-0.1728,-0.3236,-0.4636,-0.5749,-0.5854,-0.6445,-0.7622,-0.767,-0.8049,-0.8804,-0.8804,-0.848,-0.7777,-0.848,-0.8427,-0.7723,-0.767,-0.7235,1.1278,1.2255,1.3241,1.3281,1.3777,0.0,0.0,1.3849,1.383,1.348,1.3737,1.4051,1.4053,1.4947,1.5526,1.5082,1.5958,1.6327,1.5379,1.5432,1.5311,1.4596,1.4199,1.3697,1.3067,1.2531,1.2236,1.2236,1.1757,1.1568,1.1782,1.1301,1.1457,1.2391,1.2595,1.302,1.374,1.3949,1.4167,1.4462,1.5404,1.5285,1.4143,1.369,1.3024,1.2187,1.1475,1.1325,1.1584,1.1266,1.1166,1.1116,1.0415,0.9176,0.767,0.7182,0.6485,0.5677,0.5199,0.4428,0.3423,0.213,0.0953,-0.0392,-0.2462,-0.3758,-0.4494,-0.4473,-0.4522,-0.4519,-0.4519,-0.4519,-0.4519,-0.4519,-0.4519,-0.4519,-0.4519,-0.4519,-0.4519,-0.4519,-0.4519,-0.4522,-0.4477,-0.4193,-0.3855,-0.3638,-0.3641,-0.3641,-0.3641,-0.3641,-0.3641,-0.3641,-0.3641,-0.3638,-0.3633,-0.4138,-0.5026,-0.6273,-0.6327,-0.6756,-0.767,-0.8156,-0.8533,-0.8804,-0.8804,-0.8427,-0.7723,-0.8427,-0.8427,-0.7723,-0.7723,-0.7563,1.1344,1.249,1.3642,1.3784,0.0,0.0,1.417,1.4443,1.4576,1.3866,1.3722,1.3753,1.4002,1.4182,1.4155,1.3842,1.4508,1.4673,1.3606,1.3877,1.3899,1.32,1.2958,1.2671,1.2079,1.1579,1.1244,1.1094,1.0674,1.0387,1.0195,0.9876,1.0034,1.0823,1.0657,1.0931,1.1719,1.1514,1.1456,1.1456,1.2939,1.3481,1.311,1.2657,1.2083,1.1466,1.0762,1.0618,1.0762,1.0559,1.0466,1.0415,0.9496,0.8402,0.7289,0.6593,0.6005,0.5364,0.4716,0.4507,0.3999,0.0953,-0.0,-0.028,-0.173,-0.3299,-0.449,-0.4525,-0.4519,-0.4519,-0.4519,-0.4519,-0.4519,-0.4519,-0.4519,-0.4519,-0.4519,-0.4519,-0.4519,-0.4519,-0.4519,-0.4519,-0.4473,-0.4473,-0.4477,-0.4484,-0.4487,-0.4487,-0.4487,-0.4487,-0.4487,-0.4487,-0.4487,-0.4484,-0.4473,-0.4691,-0.5344,-0.6534,-0.6804,-0.7289,-0.799,-0.8533,-0.8804,-0.8804,-0.8586,-0.8103,-0.7343,-0.783,-0.7717,-0.7015,-0.7503,-0.7557,1.249,1.2971,1.3274,1.3693,0.0,0.0,1.5217,1.4695,1.4314,1.4975,1.3973,1.32,1.3879,1.3622,1.3304,1.3197,1.331,1.3521,1.3912,1.3458,1.3094,1.3094,1.2659,1.2033,1.1084,1.0572,1.0079,0.9558,0.9478,0.9239,0.8716,0.8675,0.8963,0.967,0.9013,0.8985,0.9673,0.8989,0.8671,0.8671,0.9357,1.0386,1.1653,1.1653,1.1323,1.0762,1.0064,1.0167,1.072,1.0064,0.9762,0.9658,0.8249,0.7235,0.6539,0.6069,0.5305,0.4484,0.4504,0.4458,0.3943,0.0953,-0.0,-0.028,-0.173,-0.3299,-0.449,-0.4525,-0.4519,-0.4519,-0.4519,-0.4519,-0.4519,-0.4519,-0.4519,-0.4519,-0.4519,-0.4519,-0.4519,-0.4519,-0.4519,-0.4519,-0.4519,-0.4519,-0.4519,-0.4519,-0.4519,-0.4519,-0.4519,-0.4519,-0.4519,-0.4519,-0.4519,-0.4519,-0.4519,-0.5109,-0.5814,-0.6588,-0.7289,-0.8049,-0.8752,-0.8804,-0.8804,-0.8804,-0.8103,-0.7343,-0.6588,-0.6588,-0.6204,-0.5542,-0.7015,-0.7289,1.1198,1.1821,1.2647,1.2947,1.3751,1.4568,1.5037,1.5241,1.5374,1.5667,1.4809,1.3984,1.4001,1.3862,1.326,1.1865,1.2307,1.2499,1.1545,1.1867,1.2056,1.1681,1.1509,1.1297,1.1019,1.0572,1.0079,0.9558,0.9159,0.8716,0.816,0.7398,0.7144,0.7654,0.7104,0.7016,0.7517,0.7309,0.7202,0.7202,0.7416,0.8233,0.9592,0.957,0.9496,0.9304,0.86,0.8725,0.9361,0.8613,0.8031,0.7486,0.7069,0.6593,0.6064,0.5964,0.5317,0.4504,0.4511,0.3091,0.1177,0.028,-0.0,-0.028,-0.173,-0.3299,-0.449,-0.4525,-0.4519,-0.4519,-0.4519,-0.4519,-0.4519,-0.4519,-0.4519,-0.4519,-0.4519,-0.4897,-0.5218,-0.5218,-0.5601,-0.5991,-0.5991,-0.5991,-0.5991,-0.5991,-0.5991,-0.5769,-0.5273,-0.4787,-0.4519,-0.4519,-0.4519,-0.4677,-0.5164,-0.5378,-0.6032,-0.7289,-0.7563,-0.8049,-0.8752,-0.8804,-0.8804,-0.8804,-0.8103,-0.7343,-0.6588,-0.6588,-0.6204,-0.5542,-0.7015,-0.7563,1.1842,1.2215,1.2663,1.3011,1.3586,1.4241,1.496,1.5448,1.5758,1.5655,1.4971,1.4309,1.3982,1.3593,1.293,1.1768,1.1954,1.2034,1.1287,1.17,1.1884,1.1394,1.1319,1.1169,1.0764,1.0467,1.0,0.9239,0.8878,0.8267,0.728,0.6562,0.6234,0.6338,0.5791,0.5665,0.6081,0.5819,0.5698,0.5773,0.6041,0.645,0.7052,0.7617,0.7847,0.7847,0.7439,0.7509,0.7889,0.7687,0.7317,0.6879,0.6678,0.6415,0.6096,0.5542,0.5001,0.434,0.3147,0.1514,-0.0,-0.0,-0.0784,-0.1849,-0.2122,-0.3297,-0.4487,-0.4522,-0.4519,-0.457,-0.4842,-0.4893,-0.4842,-0.457,-0.468,-0.4893,-0.4893,-0.5437,-0.5928,-0.5928,-0.6312,-0.6588,-0.6588,-0.6588,-0.6588,-0.6588,-0.6367,-0.5982,-0.5542,-0.4897,-0.4519,-0.4519,-0.4732,-0.5054,-0.5487,-0.6032,-0.674,-0.767,-0.7996,-0.8321,-0.8811,-0.8804,-0.8804,-0.8804,-0.7777,-0.702,-0.6588,-0.6041,-0.566,-0.5538,-0.6686,-0.7402,1.3487,1.3396,1.2994,1.3418,1.3578,1.3875,1.487,1.5418,1.5639,1.5225,1.4833,1.4378,1.3928,1.3141,1.2508,1.2411,1.2092,1.1993,1.2389,1.2473,1.2318,1.1847,1.1774,1.1367,1.0428,1.0273,0.9804,0.8756,0.8635,0.7931,0.6349,0.6179,0.5985,0.5672,0.4996,0.4795,0.5199,0.455,0.4314,0.4498,0.5101,0.5113,0.4519,0.5937,0.648,0.6426,0.6534,0.6593,0.6652,0.7122,0.7182,0.69,0.6385,0.6289,0.6243,0.496,0.434,0.3713,0.0953,-0.0,-0.0056,-0.0336,-0.2244,-0.4225,-0.285,-0.3408,-0.4477,-0.4522,-0.4519,-0.4732,-0.5324,-0.5542,-0.5437,-0.4842,-0.5164,-0.5597,-0.5597,-0.6199,-0.6696,-0.6696,-0.675,-0.6804,-0.6804,-0.6804,-0.6804,-0.6804,-0.6195,-0.5701,-0.5701,-0.5113,-0.468,-0.468,-0.5218,-0.5651,-0.5706,-0.6902,-0.7723,-0.7777,-0.8427,-0.8804,-0.8804,-0.8804,-0.8804,-0.8804,-0.7402,-0.6642,-0.6588,-0.5336,-0.4952,-0.5542,-0.6308,-0.7074,1.2422,1.2181,1.213,1.2072,1.2624,1.3486,1.4795,1.5165,1.5329,1.558,1.5566,1.5269,1.4424,1.3842,1.3268,1.2532,1.2365,1.2246,1.1993,1.2258,1.2318,1.1847,1.1431,1.1094,1.0867,1.0147,0.9399,0.8756,0.8316,0.7697,0.6852,0.5996,0.5497,0.554,0.4532,0.4072,0.4264,0.424,0.421,0.4244,0.4569,0.4629,0.4532,0.5572,0.5668,0.4995,0.6105,0.6574,0.6609,0.6728,0.5415,0.3282,0.3176,0.3863,0.4905,0.4626,0.2977,0.0897,0.0224,-0.0,-0.0392,-0.2751,-0.3999,-0.4452,-0.4089,-0.4252,-0.4477,-0.4522,-0.4897,-0.5324,-0.5487,-0.5928,-0.6312,-0.6209,-0.6258,-0.6367,-0.6367,-0.6966,-0.745,-0.745,-0.7943,-0.8321,-0.8321,-0.8321,-0.8321,-0.8321,-0.7717,-0.723,-0.723,-0.6583,-0.6154,-0.6154,-0.6258,-0.6583,-0.7176,-0.7503,-0.7937,-0.8533,-0.8699,-0.8804,-0.8804,-0.8804,-0.8804,-0.8804,-0.7937,-0.7182,-0.6588,-0.6317,-0.5928,-0.5538,-0.6848,-0.7563,1.2977,1.2637,1.2354,1.2056,1.2497,1.3333,1.4536,1.4968,1.5138,1.5309,1.5334,1.5092,1.4395,1.4081,1.3839,1.3472,1.3416,1.3361,1.3144,1.3293,1.3179,1.2507,1.2176,1.1743,1.1084,1.0514,0.9776,0.8756,0.8439,0.7814,0.6683,0.5782,0.5184,0.4983,0.4138,0.3761,0.391,0.3988,0.4066,0.4086,0.4275,0.441,0.4497,0.4265,0.384,0.3448,0.4165,0.4508,0.4529,0.5278,0.4661,0.3137,0.1733,0.1623,0.2357,0.2357,0.1345,-0.0224,-0.1626,-0.2132,-0.23,-0.314,-0.3872,-0.4494,-0.4484,-0.4477,-0.4525,-0.4519,-0.5003,-0.5597,-0.5928,-0.6583,-0.7235,-0.7563,-0.7402,-0.7128,-0.7128,-0.7723,-0.8209,-0.8209,-0.8533,-0.8804,-0.8804,-0.8804,-0.8804,-0.8804,-0.8156,-0.7723,-0.7723,-0.7074,-0.6588,-0.6588,-0.6912,-0.7289,-0.767,-0.8049,-0.8374,-0.8752,-0.8804,-0.8804,-0.8804,-0.8804,-0.8804,-0.8804,-0.8103,-0.7343,-0.6588,-0.6588,-0.6421,-0.6036,-0.7182,-0.7883,1.3571,1.3255,1.2791,1.2558,1.2685,1.3192,1.4255,1.4752,1.4918,1.4686,1.4707,1.4656,1.4123,1.3997,1.4013,1.4223,1.4311,1.4349,1.4349,1.4432,1.4219,1.3444,1.3196,1.2646,1.1472,1.1073,1.0312,0.907,0.8716,0.7972,0.6562,0.5739,0.5087,0.4561,0.3924,0.3636,0.3754,0.3778,0.3856,0.3985,0.4179,0.4325,0.447,0.3153,0.232,0.184,0.184,0.184,0.1898,0.3198,0.3716,0.3487,0.0953,-0.0,-0.0,-0.0,-0.0,-0.0449,-0.3431,-0.4514,-0.4281,-0.3019,-0.3463,-0.448,-0.4477,-0.4525,-0.4519,-0.4519,-0.5058,-0.5814,-0.6421,-0.7235,-0.8049,-0.8646,-0.8321,-0.7883,-0.7883,-0.8374,-0.8804,-0.8804,-0.8804,-0.8804,-0.8804,-0.8804,-0.8804,-0.8804,-0.8262,-0.7883,-0.7883,-0.7343,-0.6966,-0.6966,-0.7509,-0.7883,-0.7883,-0.8427,-0.8804,-0.8804,-0.8804,-0.8804,-0.8804,-0.8804,-0.8804,-0.8804,-0.8209,-0.7509,-0.6804,-0.6912,-0.6912,-0.6804,-0.7563,-0.8209,1.2153,1.2073,1.2249,1.2778,1.2685,1.282,1.4206,1.4533,1.4459,1.4027,1.4393,1.4603,1.3957,1.3563,1.3311,1.3384,1.3528,1.3624,1.3624,1.4139,1.447,1.4328,1.3591,1.3026,1.2854,1.1307,1.0215,1.0021,0.878,0.7912,0.7704,0.6161,0.526,0.5173,0.414,0.3588,0.3609,0.3731,0.3856,0.3938,0.4299,0.4498,0.447,0.4281,0.2762,0.028,0.028,0.028,0.0336,0.0504,0.0617,0.0561,0.0168,-0.0,-0.0,-0.0,-0.0,-0.0449,-0.3431,-0.4514,-0.4455,-0.4258,-0.4311,-0.4477,-0.4522,-0.4519,-0.4519,-0.4519,-0.5441,-0.6475,-0.6588,-0.7616,-0.8699,-0.8752,-0.8699,-0.8646,-0.8646,-0.8752,-0.8804,-0.8804,-0.8804,-0.8804,-0.8804,-0.8804,-0.8804,-0.8804,-0.8699,-0.8646,-0.8646,-0.8586,-0.848,-0.848,-0.8593,-0.8646,-0.8646,-0.8752,-0.8804,-0.8804,-0.8804,-0.8804,-0.8804,-0.8804,-0.8804,-0.8804,-0.8699,-0.8268,-0.7563,-0.8209,-0.8156,-0.7563,-0.8315,-0.8699,1.2058,1.2747,1.336,1.3162,1.3174,1.3402,1.403,1.4342,1.4407,1.4037,1.4101,1.4034,1.3361,1.3104,1.3084,1.348,1.36,1.3795,1.4183,1.4486,1.4702,1.4803,1.446,1.4049,1.3532,1.2471,1.1469,1.0613,0.969,0.8812,0.7953,0.6833,0.5979,0.5303,0.4482,0.3924,0.3626,0.3643,0.3351,0.271,0.291,0.3516,0.4462,0.2754,0.1276,-0.0,-0.0,-0.0,-0.0,-0.0,-0.0,-0.0,-0.0,-0.0,-0.0,-0.0,-0.1065,-0.2581,-0.3026,-0.3758,-0.449,-0.4477,-0.4525,-0.4525,-0.4519,-0.4519,-0.4519,-0.4519,-0.55,-0.6588,-0.6588,-0.767,-0.8804,-0.8804,-0.8804,-0.8804,-0.8804,-0.8804,-0.8804,-0.8804,-0.8804,-0.8804,-0.8804,-0.8804,-0.8804,-0.8804,-0.8804,-0.8804,-0.8804,-0.8804,-0.8804,-0.8804,-0.8804,-0.8804,-0.8804,-0.9159,-0.9361,-0.9361,-0.971,-0.9762,-0.9361,-0.9361,-0.9159,-0.8811,-0.8804,-0.8427,-0.7723,-0.8427,-0.8427,-0.7723,-0.848,-0.8804,1.1827,1.3116,1.4,1.3509,1.3787,1.4141,1.4119,1.4397,1.4596,1.4184,1.395,1.36,1.2936,1.2666,1.2726,1.3211,1.3436,1.378,1.4453,1.4677,1.4911,1.5242,1.5165,1.4831,1.4178,1.3467,1.2506,1.1284,1.0411,0.9422,0.8158,0.7218,0.6319,0.5464,0.4721,0.4113,0.3691,0.3646,0.3129,0.2235,0.1652,0.2052,0.3272,0.1036,-0.0,-0.0,-0.0,-0.0,-0.0,-0.0,-0.0,-0.0,-0.0,-0.0,-0.0,-0.0,-0.1906,-0.434,-0.319,-0.3522,-0.4477,-0.4522,-0.4519,-0.4519,-0.4519,-0.4519,-0.4519,-0.4519,-0.5386,-0.6367,-0.6534,-0.7563,-0.8586,-0.8752,-0.8804,-0.8804,-0.8804,-0.8804,-0.8804,-0.8804,-0.8804,-0.8804,-0.8804,-0.8804,-0.8804,-0.8804,-0.8804,-0.8857,-0.9008,-0.9061,-0.9106,-0.9309,-0.9316,-0.9316,-0.9316,-0.9762,-1.0064,-1.0064,-1.0517,-1.0568,-1.0064,-1.0064,-0.9762,-0.9061,-0.9061,-0.8685,-0.799,-0.8533,-0.858,-0.8243,-0.8784,-0.9159,1.0849,1.2109,1.3213,1.3833,1.44,1.4828,1.4676,1.4985,1.5045,1.4255,1.395,1.36,1.2936,1.2291,1.1865,1.1895,1.2433,1.3077,1.3765,1.4393,1.5037,1.5695,1.5359,1.5074,1.5029,1.3676,1.2659,1.2257,1.0366,0.907,0.8687,0.6949,0.5943,0.5869,0.467,0.4012,0.3971,0.372,0.3585,0.3462,0.1206,0.0135,0.0225,0.009,-0.0,-0.0,-0.0,-0.0,-0.0,-0.0,-0.0,-0.0,-0.0,-0.0,-0.0,-0.0,-0.1906,-0.4511,-0.4386,-0.4432,-0.4477,-0.4522,-0.4519,-0.4519,-0.4519,-0.4519,-0.4519,-0.4519,-0.5003,-0.5706,-0.6421,-0.7182,-0.7943,-0.8646,-0.8804,-0.8804,-0.8804,-0.8804,-0.8804,-0.8804,-0.8804,-0.8804,-0.8804,-0.8804,-0.8804,-0.8804,-0.8804,-0.9008,-0.9666,-0.9762,-1.0012,-1.0618,-1.0712,-1.0712,-1.0712,-1.072,-1.0771,-1.0771,-1.0762,-1.0762,-1.0771,-1.0771,-1.0415,-0.9762,-0.9762,-0.9413,-0.8752,-0.8758,-0.9106,-0.971,-0.971,-1.0064,0.8938,1.0388,1.1868,1.215,1.3287,1.4384,1.4695,1.5025,1.5241,1.5026,1.4456,1.3745,1.2872,1.2205,1.1805,1.1805,1.1999,1.2388,1.3047,1.3735,1.4259,1.4483,1.4735,1.474,1.4313,1.3529,1.2841,1.2383,1.1241,1.0097,0.9067,0.8172,0.728,0.6325,0.5575,0.479,0.3873,0.3782,0.3675,0.3584,0.2188,0.1001,-0.0,-0.0,-0.0,-0.0,-0.0,-0.0,-0.0,-0.0,-0.0,-0.0,-0.0,-0.0,-0.0,-0.0,-0.1287,-0.319,-0.4154,-0.4484,-0.4522,-0.4519,-0.4519,-0.4519,-0.4519,-0.4519,-0.4519,-0.4519,-0.5332,-0.6258,-0.6534,-0.7503,-0.848,-0.8752,-0.8804,-0.8804,-0.8804,-0.8804,-0.8804,-0.8804,-0.8804,-0.8804,-0.8804,-0.8804,-0.8804,-0.8804,-0.9159,-0.9517,-0.9762,-1.0167,-1.0517,-1.0762,-1.0813,-1.0813,-1.0813,-1.1216,-1.1466,-1.1466,-1.1891,-1.194,-1.1466,-1.1434,-1.1133,-1.0466,-1.0415,-1.0115,-0.9465,-0.9465,-0.9762,-1.0415,-1.0415,-1.0559,0.7469,0.8928,1.0601,1.1078,1.23,1.363,1.4575,1.5122,1.5379,1.5271,1.4697,1.3968,1.3135,1.2324,1.1746,1.1652,1.1725,1.2104,1.3002,1.3243,1.3465,1.3908,1.4172,1.4127,1.3672,1.3293,1.2862,1.2398,1.1614,1.0632,0.9475,0.8827,0.784,0.6406,0.5965,0.5255,0.4224,0.408,0.3801,0.3405,0.2991,0.2251,0.1183,0.0799,0.0403,-0.0,-0.0,-0.0,-0.0,-0.0,-0.0,-0.0,-0.0,-0.0,-0.011,-0.1116,-0.179,-0.2399,-0.3978,-0.4477,-0.4519,-0.4519,-0.4519,-0.4519,-0.4519,-0.4519,-0.4519,-0.4519,-0.5332,-0.6312,-0.6534,-0.767,-0.8804,-0.8804,-0.8956,-0.9159,-0.9159,-0.8956,-0.8804,-0.8804,-0.8956,-0.9159,-0.9159,-0.9309,-0.9458,-0.9458,-0.9865,-1.0218,-1.0415,-1.0864,-1.1216,-1.1484,-1.1484,-1.1484,-1.1484,-1.1931,-1.2187,-1.2187,-1.2618,-1.2666,-1.2187,-1.2157,-1.185,-1.1166,-1.1166,-1.0914,-1.0466,-1.0269,-1.0466,-1.1166,-1.1166,-1.1166,0.0,0.0,0.0,1.0775,1.1617,1.2613,1.4345,1.518,1.5406,1.4809,1.4513,1.4208,1.3594,1.2568,1.1717,1.1376,1.1601,1.2246,1.3545,1.2912,1.2795,1.4051,1.366,1.3269,1.324,1.2937,1.2615,1.2313,1.1376,1.0524,0.9869,0.872,0.7489,0.6175,0.5733,0.5344,0.5,0.4615,0.3935,0.302,0.3413,0.3599,0.3563,0.2369,0.1204,0.0089,0.0045,-0.0,-0.0,-0.0,-0.0,-0.0,-0.0,-0.0,-0.0374,-0.3382,-0.3532,-0.2454,-0.3968,-0.4473,-0.4519,-0.4519,-0.4519,-0.4519,-0.4519,-0.4519,-0.4519,-0.4519,-0.5003,-0.5706,-0.6475,-0.7723,-0.8811,-0.8804,-0.9309,-0.9814,-0.9814,-0.9309,-0.8857,-0.8857,-0.9361,-0.9814,-0.9814,-1.0364,-1.0813,-1.0813,-1.0813,-1.1065,-1.1715,-1.1814,-1.2129,-1.2822,-1.2881,-1.2881,-1.2881,-1.2881,-1.2881,-1.2881,-1.2881,-1.2881,-1.2881,-1.2881,-1.2559,-1.1864,-1.1814,-1.1814,-1.1814,-1.1166,-1.1166,-1.1814,-1.1814,-1.1814,0.6167,0.0,0.0,0.0,0.0,0.0,1.2834,1.3752,1.4392,1.475,1.4384,1.3834,1.3362,1.2576,1.1961,1.1842,1.1962,1.2081,1.1998,1.2563,1.2747,1.2197,1.2567,1.2599,1.1914,1.1786,1.1776,1.1926,1.1465,1.0861,1.0195,0.8951,0.7947,0.7293,0.6589,0.588,0.5142,0.4733,0.4177,0.3428,0.3553,0.3614,0.359,0.324,0.2916,0.2509,0.076,-0.0,-0.0,-0.0,-0.0,-0.0,-0.0,-0.0,-0.0373,-0.3401,-0.4242,-0.3922,-0.4366,-0.4473,-0.4519,-0.4519,-0.4519,-0.4519,-0.4519,-0.4519,-0.4519,-0.4519,-0.5391,-0.6583,-0.7883,-0.848,-0.891,-0.9413,-0.9666,-0.9909,-1.0415,-1.0364,-1.0269,-1.0269,-1.0415,-1.0517,-1.0517,-1.0661,-1.0813,-1.0813,-1.1216,-1.1616,-1.1765,-1.2295,-1.2666,-1.2881,-1.2881,-1.2881,-1.2881,-1.2881,-1.2881,-1.2881,-1.2881,-1.2881,-1.2881,-1.2881,-1.2822,-1.2608,-1.2608,-1.2608,-1.2608,-1.1882,-1.1882,-1.2608,-1.2608,-1.2608,0.6091,0.6231,0.6719,0.748,0.0,0.0,1.173,1.2907,1.3728,1.4374,1.4721,1.4728,1.4264,1.4006,1.3786,1.3388,1.3664,1.3568,1.2611,1.2775,1.2724,1.2025,1.2015,1.1828,1.1202,1.1227,1.1445,1.1768,1.1615,1.1144,1.0332,0.9415,0.8684,0.8163,0.7404,0.6743,0.6243,0.5494,0.4855,0.4267,0.4192,0.3948,0.3613,0.3711,0.3707,0.3507,0.2131,0.0938,-0.0089,-0.1076,-0.0912,-0.0093,-0.1091,-0.1522,-0.1735,-0.3582,-0.4233,-0.4251,-0.429,-0.4284,-0.4277,-0.4277,-0.4277,-0.429,-0.4355,-0.4372,-0.444,-0.4824,-0.5928,-0.7343,-0.848,-0.8804,-0.8962,-0.9666,-1.0012,-1.0415,-1.1065,-1.1475,-1.1484,-1.0914,-1.1015,-1.1216,-1.1216,-1.1475,-1.1692,-1.1692,-1.199,-1.2236,-1.2236,-1.2618,-1.2881,-1.2881,-1.2881,-1.2881,-1.2881,-1.2881,-1.2881,-1.2881,-1.2881,-1.2881,-1.2881,-1.2881,-1.2881,-1.2881,-1.2881,-1.2881,-1.2881,-1.2452,-1.2501,-1.2881,-1.2881,-1.2881,0.6484,0.6144,0.6388,0.7333,0.7394,0.0,1.0713,1.225,1.3265,1.3789,1.5118,1.6055,1.5588,1.5885,1.5971,1.5374,1.5857,1.5787,1.428,1.343,1.294,1.2856,1.2075,1.1441,1.1194,1.1315,1.1547,1.1888,1.1813,1.1349,1.0454,1.007,0.956,0.8942,0.8181,0.7791,0.7715,0.654,0.5712,0.5206,0.4912,0.4391,0.3623,0.3797,0.376,0.3565,0.3597,0.2224,-0.0178,-0.2603,-0.2339,-0.0586,-0.2623,-0.3485,-0.3611,-0.3821,-0.392,-0.3933,-0.3973,-0.4019,-0.4019,-0.4019,-0.4019,-0.4046,-0.415,-0.4197,-0.4379,-0.5333,-0.6632,-0.7883,-0.8593,-0.8804,-0.9008,-0.971,-1.0364,-1.1015,-1.1765,-1.2452,-1.252,-1.1283,-1.1516,-1.1922,-1.1922,-1.2452,-1.2881,-1.2881,-1.2881,-1.2881,-1.2881,-1.2881,-1.2881,-1.2881,-1.2881,-1.2881,-1.2881,-1.2881,-1.2881,-1.2881,-1.2881,-1.2881,-1.2881,-1.2881,-1.2881,-1.2881,-1.2881,-1.2881,-1.2881,-1.2881,-1.2881,-1.2881,-1.2881,-1.2881,0.804,0.779,0.7711,0.7494,0.7898,0.0,0.9144,1.0916,1.2579,1.3228,1.4132,1.4989,1.5613,1.5188,1.4935,1.5664,1.615,1.5867,1.4106,1.4353,1.4352,1.3315,1.3467,1.3412,1.2877,1.2384,1.2249,1.2583,1.185,1.1318,1.1136,1.0527,1.002,0.9612,0.8878,0.8241,0.7715,0.6785,0.593,0.5206,0.4513,0.3976,0.3579,0.3257,0.3214,0.3356,0.3527,0.2211,-0.017,-0.2612,-0.334,-0.2839,-0.235,-0.273,-0.3636,-0.3846,-0.3882,-0.3933,-0.3973,-0.4019,-0.4019,-0.4019,-0.4019,-0.4046,-0.415,-0.4197,-0.4485,-0.5986,-0.702,-0.7883,-0.8593,-0.8804,-0.9113,-1.0312,-1.0712,-1.1174,-1.2412,-1.2774,-1.2822,-1.252,-1.2618,-1.2666,-1.2666,-1.2822,-1.2881,-1.2881,-1.2881,-1.2881,-1.2881,-1.2881,-1.2881,-1.2881,-1.2881,-1.2881,-1.2881,-1.2881,-1.2881,-1.2881,-1.2881,-1.2881,-1.2881,-1.2881,-1.2881,-1.2881,-1.2881,-1.2881,-1.2881,-1.2881,-1.2881,-1.2881,-1.2881,-1.2881,0.9053,0.8746,0.8551,0.8259,0.8507,0.0,0.0,1.0878,1.2445,1.3326,1.4585,1.5614,1.5753,1.6218,1.6586,1.6537,1.7314,1.7429,1.6147,1.6224,1.5973,1.4698,1.467,1.4499,1.3861,1.3197,1.2946,1.3262,1.2518,1.1995,1.1817,1.116,1.0661,1.0358,0.9639,0.9077,0.8749,0.7617,0.6717,0.6075,0.5073,0.44,0.3966,0.3554,0.2907,0.2078,0.1911,0.1128,-0.0167,-0.2595,-0.3598,-0.3551,-0.2951,-0.308,-0.3609,-0.3697,-0.3744,-0.3762,-0.3802,-0.3799,-0.3799,-0.3799,-0.3799,-0.3829,-0.3975,-0.463,-0.5471,-0.6362,-0.7396,-0.8321,-0.8699,-0.9061,-0.9562,-1.0568,-1.1065,-1.1575,-1.2666,-1.2881,-1.2881,-1.2881,-1.2881,-1.2881,-1.2881,-1.2881,-1.2881,-1.2881,-1.2881,-1.2881,-1.2881,-1.2881,-1.2881,-1.2881,-1.2881,-1.2881,-1.2881,-1.2881,-1.2881,-1.2881,-1.2881,-1.2881,-1.2881,-1.2881,-1.2881,-1.2881,-1.2881,-1.2881,-1.2881,-1.2881,-1.2881,-1.2881,-1.2881,-1.2881,1.0149,0.9814,0.9552,0.9499,0.9595,0.9766,0.0,0.0,0.0,1.3472,1.5121,1.6263,1.5845,1.7145,1.8082,1.7465,1.8244,1.8774,1.8273,1.8131,1.7649,1.6413,1.6233,1.5866,1.4975,1.4283,1.3916,1.391,1.3609,1.3159,1.2606,1.2066,1.157,1.115,1.05,1.007,0.9869,0.8557,0.7579,0.6996,0.5714,0.4852,0.4389,0.3642,0.2387,0.0678,0.0078,-0.0367,-0.0784,-0.273,-0.3554,-0.3581,-0.3581,-0.3581,-0.3581,-0.3581,-0.3581,-0.3581,-0.3581,-0.3581,-0.3581,-0.3581,-0.3598,-0.3643,-0.3754,-0.5025,-0.6447,-0.6526,-0.7629,-0.8804,-0.8804,-0.9309,-0.9969,-1.0669,-1.1316,-1.1972,-1.2725,-1.2881,-1.2881,-1.2881,-1.2881,-1.2881,-1.2881,-1.2881,-1.2881,-1.2881,-1.2881,-1.2881,-1.2881,-1.2881,-1.2881,-1.2881,-1.2881,-1.2881,-1.2881,-1.2881,-1.2881,-1.2881,-1.2881,-1.2881,-1.2881,-1.2881,-1.2881,-1.2881,-1.2881,-1.2881,-1.2881,-1.2881,-1.2881,-1.2881,-1.2881,-1.2881,1.1993,1.181,1.1607,1.1359,1.1658,1.1797,1.0999,0.0,1.3035,1.3162,0.0,1.5343,1.5593,0.0,0.0,1.7791,1.7831,1.7914,1.846,1.9084,1.9107,1.8127,1.8876,1.8838,1.7221,1.6425,1.5552,1.4341,1.505,1.495,1.3627,1.3463,1.2989,1.1989,1.1649,1.1068,1.0166,0.9109,0.806,0.6996,0.5428,0.4564,0.4345,0.2441,0.1041,0.0068,-0.0537,-0.1621,-0.2932,-0.3204,-0.3423,-0.3581,-0.3581,-0.3581,-0.3581,-0.3581,-0.3581,-0.3581,-0.3581,-0.3581,-0.3581,-0.3581,-0.3663,-0.3771,-0.3785,-0.5025,-0.6411,-0.6437,-0.7593,-0.8804,-0.8804,-0.9309,-0.9969,-1.0669,-1.1316,-1.1972,-1.2725,-1.2881,-1.2881,-1.2881,-1.2881,-1.2881,-1.2881,-1.2881,-1.2881,-1.2881,-1.2881,-1.2881,-1.2881,-1.2881,-1.2881,-1.2881,-1.2881,-1.2881,-1.2881,-1.2881,-1.2881,-1.2881,-1.2881,-1.2881,-1.2881,-1.2881,-1.2881,-1.2881,-1.2881,-1.2881,-1.2881,-1.2881,-1.2881,-1.2881,-1.2881,-1.2881,1.2803,1.2553,1.2332,1.2487,1.2497,1.2402,1.2224,1.246,1.2751,1.3026,0.0,0.0,0.0,0.0,0.0,0.0,1.6713,1.7153,1.7602,1.8512,1.892,1.8377,1.8767,1.8447,1.6905,1.6685,1.6302,1.5516,1.5694,1.5572,1.4947,1.4138,1.3483,1.3041,1.2313,1.1476,1.0506,0.9418,0.8091,0.6522,0.5464,0.4673,0.4076,0.1639,-0.0233,-0.1579,-0.1948,-0.2497,-0.3063,-0.3219,-0.3392,-0.3499,-0.3588,-0.3581,-0.3581,-0.3581,-0.3581,-0.3581,-0.3581,-0.3581,-0.3581,-0.3581,-0.3835,-0.4168,-0.4272,-0.5476,-0.6845,-0.6884,-0.7841,-0.8804,-0.8804,-0.9562,-1.0466,-1.0712,-1.1633,-1.251,-1.2822,-1.2881,-1.2881,-1.2881,-1.2881,-1.2881,-1.2881,-1.2559,-1.2236,-1.2236,-1.2236,-1.2236,-1.2236,-1.2618,-1.2881,-1.2881,-1.2881,-1.2881,-1.2881,-1.2881,-1.2881,-1.2881,-1.2881,-1.2881,-1.2881,-1.2881,-1.2881,-1.2881,-1.2881,-1.2881,-1.2881,-1.2881,-1.3055,-1.342,-1.3055,-1.2881,1.3834,1.3394,1.2989,1.3431,1.3306,1.309,1.3283,1.2936,1.2659,1.2879,1.2864,0.0,0.0,0.0,1.4526,1.4819,0.0,1.6143,1.6574,1.7198,1.7807,1.8361,1.8409,1.7964,1.6858,1.7051,1.7103,1.6756,1.6885,1.6806,1.6482,1.5234,1.4386,1.4095,1.2954,1.189,1.0895,0.9721,0.8143,0.6183,0.5522,0.4646,0.3534,0.1344,-0.0757,-0.2703,-0.2843,-0.2912,-0.2924,-0.3102,-0.3276,-0.3361,-0.3473,-0.3544,-0.3581,-0.3581,-0.3581,-0.3581,-0.3581,-0.3581,-0.3622,-0.3751,-0.4092,-0.446,-0.478,-0.5888,-0.7134,-0.7233,-0.7992,-0.8857,-0.9008,-0.9909,-1.0864,-1.1015,-1.1999,-1.2881,-1.2881,-1.2881,-1.2881,-1.2881,-1.2881,-1.2881,-1.2881,-1.2452,-1.208,-1.208,-1.208,-1.208,-1.208,-1.2559,-1.2881,-1.2881,-1.2881,-1.2881,-1.2881,-1.2881,-1.2881,-1.2881,-1.2881,-1.2881,-1.2881,-1.2881,-1.2881,-1.2881,-1.2881,-1.2968,-1.3152,-1.3152,-1.3467,-1.405,-1.3238,-1.2968,1.5573,1.4763,1.395,1.4371,1.4446,1.4327,1.3969,1.347,1.297,1.2591,1.2461,1.2413,1.2424,1.2871,1.3471,1.4225,1.4405,0.0,0.0,1.5162,1.5797,1.8485,1.8568,1.8238,1.7888,1.8153,1.8222,1.7861,1.9107,1.9379,1.8197,1.7164,1.6132,1.5099,1.3701,1.2461,1.1393,1.0117,0.8368,0.6183,0.5524,0.4315,0.2607,0.1688,-0.019,-0.2696,-0.2703,-0.2781,-0.291,-0.292,-0.3055,-0.3306,-0.3313,-0.3449,-0.3581,-0.3581,-0.3581,-0.3581,-0.3581,-0.3581,-0.3667,-0.422,-0.4391,-0.4522,-0.5096,-0.6129,-0.7098,-0.7104,-0.7942,-0.8962,-0.9614,-1.0261,-1.0965,-1.1616,-1.2344,-1.2881,-1.2881,-1.2881,-1.2881,-1.2881,-1.2881,-1.2881,-1.2881,-1.2881,-1.2871,-1.2871,-1.2871,-1.2871,-1.2871,-1.2881,-1.2881,-1.2881,-1.2881,-1.2881,-1.2881,-1.2881,-1.2881,-1.2881,-1.2881,-1.2881,-1.2881,-1.2881,-1.2881,-1.2881,-1.2881,-1.32,-1.3768,-1.3768,-1.4097,-1.4652,-1.343,-1.319,1.4849,1.4428,1.4069,1.4259,1.4295,1.4283,1.4299,1.32,1.2118,1.193,1.0902,1.0297,1.1172,1.1474,1.2043,1.3369,1.3291,1.3177,0.0,1.3297,1.3428,1.4323,1.5747,1.6547,1.6208,1.6879,1.7517,1.7861,1.8743,1.9213,1.9076,1.8497,1.7504,1.607,1.5101,1.3517,1.1284,1.0079,0.8155,0.5461,0.4252,0.2912,0.1435,0.0559,-0.0526,-0.181,-0.2419,-0.272,-0.2764,-0.2866,-0.2968,-0.3118,-0.3232,-0.343,-0.3584,-0.3588,-0.3581,-0.3581,-0.3581,-0.3581,-0.3667,-0.422,-0.4652,-0.513,-0.5701,-0.6724,-0.7637,-0.7637,-0.82,-0.8956,-0.9614,-1.0312,-1.0965,-1.1665,-1.2344,-1.2881,-1.2881,-1.2881,-1.2881,-1.2881,-1.2881,-1.2881,-1.2881,-1.2881,-1.2715,-1.2236,-1.2178,-1.2178,-1.2178,-1.2608,-1.2881,-1.2881,-1.2881,-1.2881,-1.2881,-1.2881,-1.2881,-1.2881,-1.2881,-1.2881,-1.2881,-1.2881,-1.2881,-1.2881,-1.3286,-1.36,-1.3815,-1.419,-1.4687,-1.5276,-1.4468,-1.4201,1.5001,1.4607,1.4229,1.4348,1.4278,1.4272,1.455,1.3381,1.213,1.1722,1.0376,0.9469,0.9987,1.0351,1.0897,1.1863,1.1881,1.1678,0.0,1.1362,1.1244,1.1023,1.3213,1.4592,1.4214,1.5022,1.5998,1.6939,1.8022,1.9058,1.9961,1.9445,1.8545,1.7288,1.6054,1.4095,1.1372,1.0111,0.8016,0.5083,0.3738,0.244,0.1188,0.0193,-0.047,-0.0922,-0.2153,-0.2714,-0.2696,-0.2795,-0.2866,-0.2861,-0.2686,-0.2989,-0.3608,-0.3597,-0.3581,-0.3581,-0.3581,-0.3581,-0.3711,-0.4482,-0.5,-0.5432,-0.6258,-0.7065,-0.7836,-0.8172,-0.8616,-0.9226,-1.0238,-1.0813,-1.1316,-1.203,-1.2559,-1.2881,-1.2881,-1.2881,-1.2881,-1.2881,-1.2881,-1.2881,-1.2881,-1.2881,-1.2725,-1.2236,-1.2187,-1.2187,-1.2187,-1.2618,-1.2881,-1.2881,-1.2881,-1.2881,-1.2881,-1.2881,-1.2881,-1.2881,-1.2881,-1.3027,-1.319,-1.3238,-1.3334,-1.3525,-1.392,-1.4236,-1.4457,-1.4824,-1.532,-1.5908,-1.5511,-1.5344]},{"header":{"parameterUnit":"m.s-1","parameterCategory":1,"la1":30.6,"la2":29.2853,"lo1":-89.7004,"lo2":-87.6739,"dy":0.0162,"dx":0.0183,"nx":112,"ny":82,"refTime":"2024-07-06T12:00:00:Z","depth":0,"parameterNumber":3,"parameterNumberName":"V-component_of_WINDS"},"data":[0.0,0.0,0.0,0.0,0.0,0.0,0.0,0.0,0.0,0.0,0.0,0.0,0.0,0.0,0.0,0.0,0.0,0.0,0.0,0.0,0.0,0.0,0.0,0.0,0.0,0.0,0.0,0.0,0.0,0.0,0.0,0.0,0.0,0.0,0.0,0.0,0.0,0.0,0.0,0.0,0.0,0.0,0.0,0.0,0.0,0.0,0.0,0.0,0.0,0.0,0.0,0.0,0.0,0.0,0.0,0.0,0.0,0.0,0.0,0.0,0.0,0.0,0.0,0.0,0.0,0.0,0.0,0.0,0.0,0.0,0.0,0.0,0.0,0.0,0.0,0.0,0.0,0.0,0.0,0.0,0.0,0.0,0.0,0.0,0.0,0.0,0.0,0.0,0.0,0.0,-0.78,-0.3414,-0.8934,-1.3092,-1.3537,-1.4228,-1.4719,-1.4895,0.0,0.0,0.0,0.0,0.0,0.0,0.0,0.0,0.0,0.0,0.0,0.0,0.0,0.0,0.0,0.0,0.0,0.0,0.0,0.0,0.0,0.0,0.0,0.0,0.0,0.0,0.0,0.0,0.0,0.0,0.0,0.0,0.0,0.0,0.0,0.0,0.0,0.0,0.0,0.0,0.0,0.0,0.0,0.0,0.0,0.0,0.0,0.0,0.0,0.0,0.0,0.0,0.0,0.0,0.0,0.0,0.0,0.0,0.0,0.0,0.0,0.0,0.0,0.0,0.0,0.0,0.0,0.0,0.0,0.0,0.0,0.0,0.0,0.0,0.0,0.0,0.0,0.0,0.0,0.0,0.0,0.0,0.0,0.0,0.0,0.0,0.0,0.0,0.0,0.0,0.0,0.0,0.0,0.0,0.0,0.0,0.0,0.0,0.0,0.0,0.0,0.0,0.0,0.0,-0.4961,-0.9849,-1.2183,-1.3535,-1.3894,-1.4495,-1.4867,-1.4904,0.0,0.0,0.0,0.0,0.0,0.0,0.0,0.0,0.0,0.0,0.0,0.0,0.0,0.0,0.0,0.0,0.0,0.0,0.0,0.0,0.0,0.0,0.0,0.0,0.0,0.0,0.0,0.0,0.0,0.0,0.0,0.0,0.0,0.0,0.0,0.0,0.0,0.0,0.0,0.0,0.0,0.0,0.0,0.0,0.0,0.0,0.0,0.0,0.0,0.0,0.0,0.0,0.0,0.0,0.0,0.0,0.0,0.0,0.0,0.0,0.0,0.0,0.0,0.0,0.0,0.0,0.0,0.0,0.0,0.0,0.0,0.0,0.0,0.0,0.0,0.0,0.0,0.0,0.0,0.0,0.0,0.0,0.0,0.0,0.0,0.0,0.0,0.0,0.0,0.0,0.0,0.0,0.0,0.0,0.0,0.0,0.0,0.0,0.0,0.0,0.0,0.0,0.0,-0.5889,-0.7117,-1.3177,-1.3931,-1.4083,-1.4309,-1.4672,-1.4911,-1.4957,-1.5136,0.0,0.0,0.0,0.0,0.0,0.0,0.0,0.0,0.0,0.0,0.0,0.0,0.0,0.0,0.0,0.0,0.0,0.0,0.0,0.0,0.0,0.0,0.0,0.0,0.0,0.0,0.0,0.0,0.0,0.0,0.0,0.0,0.0,0.0,0.0,0.0,0.0,0.0,0.0,0.0,0.0,0.0,0.0,0.0,0.0,0.0,0.0,0.0,0.0,0.0,0.0,0.0,0.0,0.0,0.0,0.0,0.0,0.0,0.0,0.0,0.0,0.0,0.0,0.0,0.0,0.0,0.0,0.0,0.0,0.0,0.0,0.0,0.0,0.0,0.0,0.0,0.0,0.0,0.0,0.0,0.0,0.0,0.0,0.0,0.0,0.0,0.0,0.0,0.0,0.0,0.0,0.0,0.0,0.0,0.0,0.0,0.0,0.0,0.0,0.0,0.0,0.0,-1.0439,-0.9645,-1.5,-1.4947,-1.4575,-1.4691,-1.4812,-1.4944,-1.5035,-1.5101,0.0,0.0,0.0,0.0,0.0,0.0,0.0,0.0,0.0,0.0,0.0,0.0,0.0,0.0,0.0,0.0,0.0,0.0,0.0,0.0,0.0,0.0,0.0,0.0,0.0,0.0,0.0,0.0,0.0,0.0,0.0,0.0,0.0,0.0,0.0,0.0,0.0,0.0,0.0,0.0,0.0,0.0,0.0,0.0,0.0,0.0,0.0,0.0,0.0,0.0,0.0,0.0,0.0,0.0,0.0,0.0,0.0,0.0,0.0,0.0,0.0,0.0,0.0,0.0,0.0,0.0,0.0,0.0,0.0,0.0,0.0,0.0,0.0,0.0,0.0,0.0,0.0,0.0,0.0,0.0,0.0,0.0,0.0,0.0,0.0,0.0,0.0,0.0,0.0,0.0,0.0,0.0,0.0,0.0,0.0,0.0,0.0,0.0,0.0,0.0,0.0,0.0,-1.1349,-1.0163,-1.5471,-1.5405,-1.4966,-1.4973,-1.4925,-1.4976,-1.5171,-1.5082,0.0,0.0,0.0,0.0,0.0,0.0,0.0,0.0,0.0,0.0,0.0,0.0,0.0,0.0,0.0,0.0,0.0,0.0,0.0,0.0,0.0,0.0,0.0,0.0,0.0,0.0,0.0,0.0,0.0,0.0,0.0,0.0,0.0,0.0,0.0,0.0,0.0,0.0,0.0,0.0,0.0,0.0,0.0,0.0,0.0,0.0,0.0,0.0,0.0,0.0,0.0,0.0,0.0,0.0,0.0,0.0,0.0,0.0,0.0,0.0,0.0,0.0,0.0,0.0,0.0,0.0,0.0,0.0,0.0,0.0,0.0,0.0,0.0,0.0,0.0,0.0,0.0,0.0,0.0,0.0,0.0,0.0,0.0,0.0,0.0,0.0,0.0,0.0,0.0,0.0,0.0,0.0,0.0,0.0,0.0,0.0,0.0,0.0,0.0,0.0,0.0,0.0,-1.4366,-1.4607,-1.6014,-1.5472,-1.5035,-1.5127,-1.5026,-1.5026,-1.5183,0.0,0.0,0.0,0.0,0.0,0.0,0.0,0.0,0.0,0.0,0.0,0.0,0.0,0.0,0.0,0.0,0.0,0.0,0.0,0.0,0.0,0.0,0.0,0.0,0.0,0.0,0.0,0.0,0.0,0.0,0.0,0.0,0.0,0.0,0.0,0.0,0.0,0.0,0.0,0.0,0.0,0.0,0.0,0.0,0.0,0.0,0.0,0.0,0.0,0.0,0.0,0.0,0.0,0.0,0.0,0.0,0.0,0.0,0.0,0.0,0.0,0.0,0.0,0.0,0.0,0.0,0.0,0.0,0.0,0.0,0.0,0.0,0.0,0.0,0.0,0.0,0.0,0.0,0.0,0.0,0.0,0.0,0.0,0.0,0.0,0.0,0.0,0.0,0.0,0.0,0.0,0.0,0.0,0.0,0.0,0.0,0.0,0.0,0.0,0.0,0.0,0.0,-1.493,-1.6337,-1.7226,-1.6681,-1.5689,-1.5095,-1.5189,-1.5082,-1.5068,-1.5189,0.0,0.0,0.0,0.0,0.0,0.0,0.0,0.0,0.0,0.0,0.0,0.0,0.0,0.0,0.0,0.0,0.0,0.0,0.0,0.0,0.0,0.0,0.0,0.0,0.0,0.0,0.0,0.0,0.0,0.0,0.0,0.0,0.0,0.0,0.0,0.0,0.0,0.0,0.0,0.0,0.0,0.0,0.0,0.0,0.0,0.0,0.0,0.0,0.0,0.0,0.0,0.0,0.0,0.0,0.0,0.0,0.0,0.0,0.0,0.0,0.0,0.0,0.0,0.0,0.0,0.0,0.0,0.0,0.0,0.0,0.0,0.0,0.0,0.0,0.0,0.0,0.0,0.0,0.0,0.0,0.0,0.0,0.0,0.0,0.0,0.0,0.0,0.0,0.0,0.0,0.0,0.0,0.0,0.0,0.0,0.0,0.0,0.0,0.0,0.0,0.0,0.0,-1.6212,-1.6731,-1.7206,-1.7461,-1.6122,-1.5189,-1.5189,-1.5082,-1.5049,0.0,0.0,0.0,0.0,0.0,0.0,0.0,0.0,0.0,0.0,0.0,0.0,0.0,0.0,0.0,0.0,0.0,0.0,0.0,0.0,0.0,0.0,0.0,0.0,0.0,0.0,0.0,0.0,0.0,0.0,0.0,0.0,0.0,0.0,0.0,0.0,0.0,0.0,0.0,0.0,0.0,0.0,0.0,0.0,0.0,0.0,0.0,0.0,0.0,0.0,0.0,0.0,0.0,0.0,0.0,0.0,0.0,0.0,0.0,0.0,0.0,0.0,0.0,0.0,0.0,0.0,0.0,0.0,0.0,0.0,0.0,0.0,0.0,0.0,0.0,0.0,0.0,0.0,0.0,0.0,0.0,0.0,0.0,0.0,0.0,0.0,0.0,0.0,0.0,0.0,0.0,0.0,0.0,0.0,0.0,0.0,0.0,0.0,0.0,0.0,0.0,0.0,0.0,-1.5501,-1.6238,-1.691,-1.718,-1.5917,-1.5049,-1.5049,-1.5101,-1.519,-1.5272,0.0,0.0,0.0,0.0,0.0,0.0,0.0,0.0,0.0,0.0,0.0,0.0,0.0,0.0,0.0,0.0,0.0,0.0,0.0,0.0,0.0,0.0,0.0,0.0,0.0,0.0,0.0,0.0,0.0,0.0,0.0,0.0,0.0,0.0,0.0,0.0,0.0,0.0,0.0,0.0,0.0,0.0,0.0,0.0,0.0,0.0,0.0,0.0,0.0,0.0,0.0,0.0,0.0,0.0,0.0,0.0,0.0,0.0,0.0,0.0,0.0,0.0,0.0,0.0,0.0,0.0,0.0,0.0,0.0,0.0,0.0,0.0,0.0,0.0,0.0,0.0,0.0,0.0,0.0,0.0,0.0,0.0,0.0,0.0,0.0,0.0,0.0,0.0,0.0,0.0,0.0,0.0,0.0,0.0,0.0,0.0,0.0,0.0,0.0,0.0,0.0,0.0,-1.5365,-1.6165,-1.6859,-1.7071,-1.5882,-1.5068,-1.4995,-1.5127,-1.5234,-1.5291,0.0,0.0,0.0,0.0,0.0,0.0,0.0,0.0,0.0,0.0,0.0,0.0,0.0,0.0,0.0,0.0,0.0,0.0,0.0,0.0,0.0,0.0,0.0,0.0,0.0,0.0,0.0,0.0,0.0,0.0,0.0,0.0,0.0,0.0,0.0,0.0,0.0,0.0,0.0,0.0,0.0,0.0,0.0,0.0,0.0,0.0,0.0,0.0,0.0,0.0,0.0,0.0,0.0,0.0,0.0,0.0,0.0,0.0,0.0,0.0,0.0,0.0,0.0,0.0,0.0,0.0,0.0,0.0,0.0,0.0,0.0,0.0,0.0,0.0,0.0,0.0,0.0,0.0,0.0,0.0,0.0,0.0,0.0,0.0,0.0,0.0,0.0,0.0,0.0,0.0,0.0,0.0,0.0,0.0,0.0,0.0,0.0,0.0,0.0,0.0,0.0,0.0,-1.5762,-1.6412,-1.6954,-1.7107,-1.5953,-1.5133,-1.5021,-1.5127,-1.5234,-1.5291,0.0,0.0,0.0,0.0,0.0,0.0,0.0,0.0,0.0,0.0,0.0,0.0,0.0,0.0,0.0,0.0,0.0,0.0,0.0,0.0,0.0,0.0,0.0,0.0,0.0,0.0,0.0,0.0,0.0,0.0,0.0,0.0,0.0,0.0,0.0,0.0,0.0,0.0,0.0,0.0,0.0,0.0,0.0,0.0,0.0,0.0,0.0,0.0,0.0,0.0,0.0,0.0,0.0,0.0,0.0,0.0,0.0,0.0,0.0,0.0,-1.2597,-1.2477,0.0,0.0,0.0,0.0,0.0,0.0,0.0,0.0,0.0,0.0,0.0,0.0,0.0,0.0,0.0,0.0,0.0,0.0,0.0,0.0,0.0,0.0,0.0,0.0,0.0,0.0,0.0,0.0,0.0,0.0,0.0,0.0,0.0,0.0,0.0,0.0,0.0,0.0,0.0,0.0,-1.6553,-1.6797,-1.7049,-1.7246,-1.5934,-1.5035,-1.4995,-1.5127,-1.5234,-1.5291,-1.5303,0.0,0.0,0.0,0.0,0.0,0.0,0.0,0.0,0.0,0.0,0.0,0.0,0.0,0.0,0.0,0.0,0.0,0.0,0.0,0.0,0.0,0.0,0.0,0.0,0.0,0.0,0.0,0.0,0.0,0.0,0.0,0.0,0.0,0.0,0.0,0.0,0.0,0.0,0.0,0.0,0.0,0.0,0.0,0.0,0.0,0.0,0.0,0.0,0.0,0.0,0.0,0.0,0.0,0.0,0.0,0.0,0.0,0.0,0.0,-1.4522,-1.4211,0.0,0.0,0.0,0.0,0.0,0.0,0.0,0.0,0.0,0.0,0.0,0.0,0.0,0.0,0.0,0.0,0.0,0.0,0.0,0.0,0.0,0.0,0.0,0.0,0.0,0.0,0.0,0.0,0.0,0.0,0.0,0.0,0.0,0.0,0.0,0.0,0.0,0.0,0.0,0.0,-1.7385,-1.7577,-1.7634,-1.7369,-1.6368,-1.5522,-1.5033,-1.5127,-1.5234,-1.5291,-1.5265,0.0,0.0,0.0,0.0,0.0,0.0,0.0,0.0,0.0,0.0,0.0,0.0,0.0,0.0,0.0,0.0,0.0,0.0,0.0,0.0,0.0,0.0,0.0,0.0,0.0,0.0,0.0,0.0,0.0,0.0,0.0,0.0,0.0,0.0,0.0,0.0,0.0,0.0,0.0,0.0,0.0,0.0,0.0,0.0,0.0,0.0,0.0,0.0,0.0,0.0,0.0,0.0,0.0,-1.6838,-1.6997,-1.777,-1.6954,-1.7072,-1.7883,-1.6384,-1.6086,-1.666,-1.6644,0.0,0.0,0.0,0.0,0.0,0.0,0.0,0.0,0.0,0.0,0.0,0.0,0.0,0.0,0.0,0.0,0.0,0.0,0.0,0.0,0.0,0.0,-1.6448,-1.6605,-1.6836,-1.696,-1.6679,0.0,0.0,0.0,0.0,0.0,0.0,0.0,0.0,0.0,0.0,0.0,-1.8179,-1.8392,-1.8263,-1.7535,-1.6893,-1.6093,-1.5119,-1.514,-1.5234,-1.5291,-1.5251,-1.5251,0.0,0.0,0.0,0.0,0.0,0.0,0.0,0.0,0.0,0.0,0.0,0.0,0.0,0.0,0.0,0.0,0.0,0.0,0.0,0.0,0.0,0.0,0.0,0.0,0.0,0.0,0.0,0.0,0.0,0.0,0.0,0.0,-0.8832,-0.9269,0.0,0.0,0.0,0.0,0.0,0.0,0.0,0.0,0.0,0.0,0.0,0.0,0.0,-1.6948,-1.7103,-1.8186,-1.8432,-1.7831,-1.8479,-1.885,-1.8948,-1.8076,-1.8178,-1.8981,-1.8739,0.0,-1.7769,-1.8481,0.0,0.0,0.0,0.0,0.0,0.0,0.0,0.0,0.0,0.0,0.0,0.0,0.0,0.0,0.0,0.0,0.0,0.0,0.0,0.0,0.0,0.0,-1.7574,-1.7612,-1.821,-1.8739,-1.8634,-1.8162,-1.7725,-1.7614,-1.7597,-1.7545,0.0,0.0,0.0,0.0,0.0,0.0,-1.8842,-1.8807,-1.8472,-1.7745,-1.6957,-1.6131,-1.5254,-1.5183,-1.5234,-1.5291,-1.5295,-1.5312,-1.538,-1.5322,0.0,0.0,0.0,0.0,0.0,0.0,0.0,0.0,0.0,0.0,0.0,0.0,0.0,0.0,0.0,0.0,0.0,0.0,0.0,0.0,0.0,0.0,0.0,0.0,0.0,0.0,0.0,0.0,0.0,-0.7993,-0.9077,-0.956,-1.046,-1.1281,0.0,0.0,0.0,0.0,0.0,0.0,0.0,0.0,0.0,-1.7035,-1.7792,-1.8277,-1.8415,-1.937,-1.9704,-1.9426,-1.9772,-1.9928,-1.9911,-1.9495,-1.9503,-1.9873,-1.9873,-1.9655,-1.9292,-1.9233,-1.9264,-1.9367,0.0,0.0,0.0,0.0,-2.0175,-1.9629,-1.9651,-1.9357,-1.8876,-1.8406,0.0,0.0,0.0,0.0,0.0,0.0,0.0,-1.8986,-1.9031,-1.8792,-1.8523,-1.8531,-1.8823,-1.9092,-1.9069,-1.9162,-1.9237,-1.9134,-1.9541,-1.9739,-1.9184,-1.9793,0.0,0.0,0.0,-1.985,-1.9658,-1.9473,-1.9133,-1.8551,-1.7689,-1.683,-1.6003,-1.5484,-1.5234,-1.5291,-1.5299,-1.5327,-1.5409,-1.5342,-1.5299,0.0,0.0,0.0,0.0,0.0,0.0,0.0,0.0,0.0,0.0,0.0,0.0,0.0,0.0,0.0,0.0,0.0,0.0,0.0,0.0,0.0,0.0,0.0,0.0,0.0,0.0,0.0,0.0,-0.87,-0.9717,-1.0167,-1.125,-1.2341,0.0,0.0,0.0,0.0,0.0,0.0,-1.7205,-1.7526,-1.7857,-1.8203,-1.8924,-1.9392,-1.9551,-2.0195,-2.0544,-2.0564,-2.0525,-2.0496,-2.0462,-2.0412,-2.0411,-2.04,-2.0381,-2.0379,-2.0335,-1.9756,-2.0031,-2.082,-2.082,-2.1338,-2.2146,-2.2783,-2.2516,-2.1815,-2.1629,-2.1144,-2.0467,-1.9647,-1.9573,-1.967,-1.9023,0.0,0.0,0.0,0.0,-2.0598,-2.0549,-1.9983,-1.9434,-1.9434,-1.9434,-1.943,-1.942,-1.9964,-2.0462,-2.0629,-2.1201,-2.1537,-2.1111,-2.1977,0.0,-2.0853,-2.0845,-2.0849,-2.0395,-2.0062,-1.9675,-1.9163,-1.8276,-1.7388,-1.6561,-1.5695,-1.5234,-1.5291,-1.5303,-1.5335,-1.5391,-1.5358,-1.5335,-1.5341,0.0,0.0,0.0,0.0,0.0,0.0,0.0,0.0,0.0,0.0,0.0,0.0,0.0,0.0,0.0,0.0,0.0,0.0,0.0,0.0,0.0,0.0,0.0,0.0,0.0,0.0,0.0,0.0,0.0,-1.1576,-1.3047,0.0,0.0,0.0,0.0,-1.7179,-1.7285,-1.7814,-1.9008,-1.9021,-1.9456,-2.0403,-2.0427,-2.0446,-2.053,-2.0575,-2.0553,-2.0496,-2.0496,-2.0463,-2.0398,-2.0392,-2.0396,-2.0404,-2.0327,-2.0319,-2.0312,-2.0335,-2.0895,-2.1738,-2.1738,-2.2266,-2.3023,-2.3074,-2.2929,-2.2618,-2.1779,-2.1484,-2.1305,-2.0433,-2.0824,-2.166,-2.1606,-2.2244,0.0,0.0,-2.2318,-2.1729,-2.1729,-2.1036,-2.0331,-2.0331,-2.0331,-2.0325,-2.0337,-2.0417,-2.0718,-2.1478,-2.1611,-2.1853,-2.2632,0.0,-2.2633,-2.2166,-2.1631,-2.1202,-2.0978,-2.0444,-1.9834,-1.9177,-1.8313,-1.7444,-1.6561,-1.5695,-1.5234,-1.5291,-1.5303,-1.5325,-1.5391,-1.5391,-1.539,-1.539,-1.5323,0.0,0.0,0.0,0.0,0.0,0.0,0.0,0.0,0.0,0.0,0.0,0.0,0.0,0.0,0.0,0.0,0.0,0.0,0.0,0.0,0.0,0.0,0.0,0.0,0.0,0.0,0.0,0.0,-1.2001,-1.3768,0.0,-1.5889,-1.6414,-1.724,-1.8479,-1.8561,-1.9005,-2.0041,-2.0031,-2.016,-2.052,-2.0469,-2.0443,-2.0467,-2.0464,-2.0453,-2.0438,-2.0361,-2.026,-2.0192,-2.0115,-2.0042,-2.0,-1.9981,-1.9981,-1.9981,-2.0,-2.068,-2.1741,-2.2341,-2.3076,-2.3877,-2.4393,-2.4183,-2.3598,-2.3271,-2.2812,-2.2282,-2.2025,-2.2254,-2.2639,-2.2597,-2.3203,-2.379,-2.3198,-2.3217,-2.3151,-2.2025,-2.1482,-2.1108,-2.054,-2.0406,-2.0397,-2.0398,-2.0427,-2.0684,-2.1539,-2.2162,-2.2648,-2.2912,-2.3726,-2.3938,-2.2766,-2.2737,-2.247,-2.145,-2.1099,-2.0655,-1.9959,-1.91,-1.8446,-1.8145,-1.7311,-1.6837,-1.6901,-1.6905,-1.6689,-1.6191,-1.6172,-1.5935,-1.5407,-1.532,-1.5291,0.0,0.0,0.0,0.0,0.0,0.0,0.0,0.0,0.0,0.0,0.0,0.0,0.0,0.0,0.0,0.0,0.0,0.0,0.0,0.0,0.0,0.0,0.0,0.0,0.0,-1.1475,-1.2499,-1.2875,-1.4381,-1.5808,-1.6837,-1.749,-1.8319,-1.9523,-1.9597,-1.9894,-2.0561,-2.049,-2.0446,-2.0494,-2.0369,-2.0329,-2.0402,-2.0305,-2.0279,-2.0295,-2.0164,-2.0059,-2.0004,-1.9906,-1.9844,-1.979,-1.979,-1.979,-1.979,-1.979,-2.0435,-2.1483,-2.2443,-2.3463,-2.4497,-2.5033,-2.4878,-2.4346,-2.4133,-2.3533,-2.2859,-2.2921,-2.3186,-2.3452,-2.34,-2.3996,-2.4579,-2.3982,-2.4024,-2.3936,-2.2512,-2.1926,-2.1477,-2.0617,-2.0391,-2.0398,-2.0399,-2.0636,-2.1097,-2.1962,-2.2614,-2.3124,-2.3392,-2.4464,-2.4919,-2.386,-2.3823,-2.3553,-2.2566,-2.1884,-2.1307,-2.0811,-1.9729,-1.903,-1.903,-1.7965,-1.7459,-1.7812,-1.7576,-1.7329,-1.7084,-1.6791,-1.6374,-1.5844,-1.5776,-1.585,-1.6085,0.0,0.0,0.0,0.0,0.0,0.0,0.0,0.0,0.0,0.0,0.0,0.0,0.0,0.0,0.0,0.0,0.0,0.0,0.0,0.0,0.0,0.0,0.0,-1.1915,-1.2549,-1.348,-1.4264,-1.4995,-1.6272,-1.838,-1.865,-1.9173,-2.0316,-2.0396,-2.0449,-2.0586,-2.041,-2.0377,-2.0523,-2.0255,-2.0214,-2.0418,-2.0135,-2.0017,-2.0085,-1.995,-1.9832,-1.9767,-1.9767,-1.9767,-1.9767,-1.9767,-1.9767,-1.9786,-1.9786,-2.0276,-2.1124,-2.2033,-2.3405,-2.4861,-2.4879,-2.4898,-2.4823,-2.4238,-2.3621,-2.3064,-2.3064,-2.3602,-2.4244,-2.4161,-2.4767,-2.5483,-2.5403,-2.4832,-2.4034,-2.3232,-2.2399,-2.1539,-2.064,-2.0461,-2.0468,-2.0446,-2.1122,-2.1978,-2.2831,-2.2968,-2.3242,-2.418,-2.4926,-2.5421,-2.5483,-2.4832,0.0,-2.43,-2.2808,-2.1735,-2.1698,-2.0161,-1.9153,-1.9153,-1.7593,-1.7016,-1.7926,-1.7258,-1.717,-1.8007,-1.7232,-1.6766,-1.6751,-1.6673,-1.6961,-1.7606,0.0,0.0,0.0,0.0,0.0,0.0,0.0,0.0,0.0,0.0,0.0,0.0,0.0,0.0,0.0,0.0,0.0,0.0,0.0,0.0,0.0,-1.3277,-1.44,-1.3787,-1.4693,-1.5502,-1.5712,-1.6392,-1.7203,-1.8074,-1.8759,-1.9427,-2.0133,-2.0234,-2.0311,-2.0447,-2.0408,-2.0621,-2.1133,-2.0516,-2.0403,-2.0903,-2.0263,-1.9814,-1.9595,-1.9472,-1.9276,-1.9063,-1.8975,-1.8945,-1.8945,-1.8945,-1.9046,-1.9227,-1.9227,-2.0147,-2.1631,-2.2139,-2.2967,-2.3964,-2.4582,-2.4888,-2.4974,-2.4954,-2.4832,-2.4668,-2.4668,-2.4851,-2.5063,-2.5056,-2.5149,-2.5287,-2.525,-2.4996,-2.4514,-2.3709,-2.3448,-2.2982,-2.1487,-2.1678,-2.2034,-2.1408,-2.1919,-2.2581,-2.2812,-2.335,-2.4068,-2.5013,-2.5347,-2.5496,-2.5562,-2.5349,-2.4968,-2.4378,-2.3284,-2.2326,-2.1694,-2.0639,-1.9965,-1.9965,-1.9535,-1.9394,-1.9692,-1.9502,-1.9229,-1.8889,-1.8635,-1.8211,-1.7573,-1.7549,-1.7562,0.0,0.0,0.0,0.0,0.0,0.0,0.0,0.0,0.0,0.0,0.0,0.0,0.0,0.0,0.0,0.0,0.0,0.0,0.0,0.0,0.0,0.0,-1.442,-1.5643,-1.5749,-1.6062,-1.6376,-1.6607,-1.701,-1.7542,-1.8261,-1.8886,-1.9432,-1.981,-1.9988,-2.0275,-2.0704,-2.0396,-2.046,-2.109,-2.0238,-1.9926,-2.0218,-1.9644,-1.9286,-1.9151,-1.9006,-1.8875,-1.8717,-1.8643,-1.8585,-1.8585,-1.8585,-1.8875,-1.9289,-1.9289,-2.0408,-2.2082,0.0,0.0,0.0,0.0,-2.4651,-2.4804,-2.4917,-2.5012,-2.5091,-2.5091,-2.5111,-2.5149,-2.5149,-2.5082,-2.5026,-2.5026,-2.4936,-2.4657,-2.3823,-2.3708,-2.3452,-2.2055,-2.2187,-2.2481,-2.1967,-2.2564,-2.3208,-2.3208,-2.3967,0.0,-2.5332,-2.5448,-2.5486,-2.5546,-2.5522,-2.5337,-2.486,-2.4005,-2.3244,-2.2735,-2.1573,-2.0869,-2.0885,-2.0246,0.0,0.0,0.0,-1.9737,-1.9264,-1.9205,0.0,0.0,0.0,0.0,0.0,-1.8498,0.0,0.0,-1.8079,-1.7849,0.0,0.0,0.0,0.0,0.0,0.0,0.0,0.0,0.0,0.0,0.0,0.0,0.0,0.0,0.0,0.0,-1.5782,-1.6952,-1.7452,-1.6958,-1.6677,-1.7174,-1.7186,-1.7586,-1.8627,-1.8957,-1.9194,-1.9396,-1.9712,-2.0212,-2.0904,-2.0298,0.0,0.0,0.0,-1.9301,-1.934,-1.9004,-1.8839,-1.886,-1.8749,-1.8616,-1.8508,-1.8508,-1.8561,-1.8632,-1.8632,-1.9072,-1.9776,-1.9776,-2.083,-2.2425,-2.2173,-2.2942,-2.419,-2.4228,-2.4358,-2.4512,-2.4528,0.0,0.0,-2.4804,-2.4804,-2.4804,-2.4804,-2.479,-2.4775,-2.4775,-2.4746,-2.4561,-2.3779,-2.3606,-2.3394,-2.2506,-2.2407,-2.2472,-2.2378,-2.3164,-2.3926,-2.3919,-2.4662,-2.5274,-2.5303,-2.5341,-2.5409,-2.5486,-2.5483,-2.5473,-2.5495,-2.4726,-2.4187,-2.4187,-2.2716,0.0,-2.1702,-2.0339,-1.9815,-2.0546,-1.9863,-1.9492,-1.959,-1.9444,-1.9368,-1.9405,-1.9291,-1.9509,-2.0031,-2.0012,-1.9943,-1.9775,-1.8024,-1.7647,0.0,0.0,0.0,0.0,0.0,0.0,0.0,0.0,0.0,0.0,0.0,0.0,0.0,0.0,0.0,-1.562,-1.6678,-1.7446,-1.7706,-1.778,-1.7867,-1.7965,-1.7791,-1.7843,-1.8278,-1.8375,-1.8534,-1.8919,-1.9532,-1.976,-1.9435,-1.9887,-2.0418,-2.0987,-2.0192,-2.0316,-2.1419,-2.0728,-1.9984,-1.9185,-1.9177,0.0,-1.7949,-1.7949,-1.8273,-1.8859,-1.8859,-1.9384,-2.0275,-2.0275,-2.098,-2.2198,-2.33,-2.3933,-2.4209,-2.4375,-2.4461,-2.4528,-2.4685,-2.4775,-2.4804,-2.4804,-2.4804,-2.4804,-2.4804,-2.4685,0.0,-2.4561,-2.4426,-2.4284,-2.41,-2.4168,-2.4097,-2.3207,-2.3664,-2.4096,-2.3404,-2.3955,-2.4642,-2.4745,-2.492,-2.5111,-2.5274,-2.5303,-2.5341,-2.5409,-2.537,-2.536,-2.5409,-2.4659,-2.4129,-2.4129,-2.3244,-2.2393,-2.176,-2.1443,-2.1092,-2.0625,-2.0449,-2.0664,-2.1367,-2.0718,-2.063,-2.1261,-2.0527,-2.018,-2.0241,-2.0078,-1.9993,-1.9944,-1.9357,-1.9504,0.0,0.0,0.0,0.0,0.0,0.0,0.0,0.0,0.0,0.0,0.0,-1.3328,-1.4058,0.0,-1.5744,-1.6649,-1.6724,-1.6791,-1.7177,-1.7098,-1.7255,-1.7919,-1.7883,-1.7839,-1.7992,-1.8125,-1.8197,-1.8233,-1.8872,-1.9217,-1.9147,-1.9309,-1.9846,-2.076,-2.0015,-2.0043,-2.0991,-2.0604,-2.0041,-1.9352,-1.9352,-1.8968,-1.8306,-1.8501,-1.8801,-1.916,-1.9353,-1.9966,-2.0831,-2.1349,-2.1885,-2.2446,-2.3338,-2.3692,-2.3756,-2.4192,-2.4248,-2.4136,-2.4408,-2.4495,-2.4495,-2.4495,-2.4389,-2.4282,-2.4442,-2.4301,-2.4136,-2.4284,-2.4266,-2.419,-2.419,-2.4266,-2.4247,-2.3786,-2.4112,-2.4383,-2.3938,-2.4279,-2.4685,-2.4737,-2.4836,-2.493,-2.5024,-2.5107,-2.5192,-2.5341,-2.5322,-2.5303,-2.5341,-2.4966,-2.4716,-2.4755,-2.4043,-2.3251,-2.2467,-2.1653,-2.1035,-2.0625,-2.0605,-2.0801,-2.123,-2.0801,-2.095,-2.1784,-2.1313,-2.123,-2.1589,-2.15,-2.1435,-2.1406,-2.1183,-2.0997,0.0,0.0,0.0,0.0,0.0,0.0,0.0,-1.36,-1.3989,-1.365,-1.4124,-1.4714,-1.4965,-1.5731,-1.648,-1.6974,-1.6332,-1.5879,-1.6269,-1.6032,-1.6198,-1.7265,-1.7597,-1.7704,-1.7704,-1.7971,-1.8001,-1.7732,-1.8312,-1.8755,-1.8988,-1.8847,-1.9239,-2.0244,-1.9713,-1.9662,-2.0197,-2.0197,-1.9953,-1.9519,-1.9519,-1.924,-1.8824,-1.9139,-1.9372,-1.9519,-2.0077,-2.0726,-2.1475,-2.2297,-2.2608,-2.2634,-2.2972,-2.3069,-2.3111,-2.3774,-2.3876,-2.3735,-2.4016,-2.4094,-2.4094,-2.4094,-2.3876,-2.3649,-2.3917,-2.3816,-2.3671,-2.3917,-2.3996,-2.3996,-2.3996,-2.4036,-2.4094,-2.4094,-2.4151,-2.419,-2.419,-2.4339,-2.4444,-2.4495,-2.4623,-2.476,-2.479,-2.4891,-2.501,-2.5214,-2.5274,-2.5303,-2.5303,-2.5303,-2.5322,-2.539,-2.4841,-2.4097,-2.3168,-2.1714,-2.0781,-2.0605,-2.0605,-2.0684,-2.0859,-2.0644,-2.0937,-2.1797,-2.1757,-2.2036,-2.2694,-2.2832,-2.2879,-2.2822,-2.2872,-2.2346,-1.4297,-1.4245,-1.3915,-1.3304,-1.3699,-1.428,0.0,-1.4419,-1.4395,-1.459,-1.43,-1.4217,-1.4952,-1.5188,-1.5395,-1.5741,-1.5712,-1.5476,-1.5071,-1.5466,-1.5855,-1.6007,-1.6814,-1.7368,-1.7368,-1.7641,-1.7816,-1.7794,-1.8472,-1.8597,-1.8014,-1.8818,-1.9369,-1.9535,-1.9715,-2.0185,-2.0877,-2.0893,-2.0556,-1.9855,-1.9855,-1.9475,-1.8795,-1.8853,-1.9217,-1.9887,-2.0953,-2.1699,-2.2192,-2.2287,-2.2349,-2.236,-2.2652,-2.2616,-2.2453,-2.3087,-2.3477,-2.3714,-2.3735,-2.3774,-2.3774,-2.3774,-2.3522,-2.3259,-2.33,-2.33,-2.3259,-2.33,-2.3323,-2.3323,-2.3323,-2.3544,-2.3774,-2.3774,-2.3996,-2.419,-2.419,-2.4209,-2.4284,-2.4461,-2.4528,-2.4591,-2.4775,-2.4818,-2.4883,-2.501,-2.5192,-2.5303,-2.5303,-2.5303,-2.5322,-2.539,-2.5374,-2.4748,-2.3234,-2.2265,-2.1426,-2.0644,-2.0605,-2.0957,-2.1719,-2.0996,-2.0996,-2.1875,-2.1816,-2.1834,-2.1929,-2.2585,-2.2901,-2.2901,-2.3602,-2.3764,-1.4832,-1.4589,-1.417,-1.3894,-1.4372,-1.4742,-1.4183,-1.4232,-1.4347,-1.4141,-1.4268,-1.4424,-1.4401,-1.4967,-1.5325,-1.4918,-1.4514,-1.4249,-1.4178,-1.4081,-1.4098,-1.4414,-1.5339,-1.6258,-1.6935,-1.6903,-1.6878,-1.6926,-1.7403,-1.7631,-1.7513,-1.8103,-1.884,-1.968,-1.9823,-2.0241,-2.0991,-2.0991,-2.0719,-2.0127,-2.0127,-1.9855,-1.9344,-1.9575,-1.9988,-2.0591,-2.1299,-2.1718,-2.1899,-2.218,-2.231,-2.231,-2.2426,-2.2415,-2.2377,-2.2982,-2.3165,-2.3141,-2.3346,-2.3414,-2.3414,-2.3414,-2.3165,-2.2947,-2.3141,-2.3069,-2.2947,-2.3141,-2.3189,-2.3189,-2.3189,-2.3437,-2.3692,-2.3692,-2.3955,-2.419,-2.419,-2.419,-2.4228,-2.4321,-2.4339,-2.4339,-2.4445,-2.4639,-2.4832,-2.4883,-2.5018,-2.5163,-2.5274,-2.5303,-2.534,-2.5459,-2.5091,-2.4581,-2.3906,-2.2656,-2.1738,-2.1387,-2.0879,-2.0762,-2.1133,-2.1289,-2.1758,-2.2578,-2.3066,-2.3535,-2.4004,-2.4327,-2.4424,-2.4361,-2.4697,-2.4783,-1.4798,-1.4551,-1.4247,-1.4227,-1.4627,-1.4787,-1.3863,-1.395,-1.4096,-1.3718,-1.3972,-1.4148,-1.3694,-1.439,-1.4796,-1.4034,-1.3509,-1.3243,-1.3359,-1.301,-1.2975,-1.3649,-1.4322,-1.5213,-1.6495,-1.6354,-1.6262,-1.6421,-1.6834,-1.7167,-1.7421,-1.7911,-1.8647,-1.9657,-1.9782,-2.0112,-2.0632,-2.0632,-2.0465,-2.0124,-2.0124,-1.9965,-1.9726,-2.0,-2.0465,-2.1039,-2.1306,-2.1568,-2.1823,-2.2163,-2.231,-2.231,-2.231,-2.231,-2.2349,-2.2798,-2.284,-2.2746,-2.2972,-2.3069,-2.3069,-2.3069,-2.2865,-2.2625,-2.2883,-2.2781,-2.2652,-2.2883,-2.2958,-2.2965,-2.3045,-2.3323,-2.3588,-2.3671,-2.3955,-2.419,-2.419,-2.419,-2.419,-2.419,-2.4247,-2.4284,-2.4284,-2.4559,-2.4818,-2.4855,-2.4937,-2.5077,-2.5293,-2.537,-2.5416,-2.5512,-2.5071,-2.4668,-2.4414,-2.3281,-2.248,-2.2266,-2.168,-2.1328,-2.1328,-2.1914,-2.2519,-2.3125,-2.3965,-2.4687,-2.5273,-2.5488,-2.5542,-2.5452,-2.5407,-2.537,-1.4178,-1.4265,-1.4302,-1.4286,-1.4298,-1.4241,-1.3892,-1.3765,-1.3709,-1.3714,-1.3298,-1.2961,-1.2938,-1.3166,-1.3286,-1.3001,-1.2935,-1.2827,-1.2567,-1.2697,-1.3147,-1.4169,-1.4132,-1.4572,-1.6009,-1.6187,-1.6369,-1.6763,-1.7401,-1.7757,-1.7773,-1.8671,-1.9194,-1.9225,-1.9546,-1.9732,-1.9762,-1.9762,-1.9711,-1.9711,-1.9711,-1.9711,-1.969,-1.9711,-2.0174,-2.0991,-2.0991,-2.1493,-2.2282,-2.2282,-2.231,-2.231,-2.231,-2.231,-2.231,-2.2338,-2.249,-2.2695,-2.2721,-2.2721,-2.2721,-2.2721,-2.2527,-2.2293,-2.2321,-2.2338,-2.2293,-2.2321,-2.2338,-2.2388,-2.2634,-2.2972,-2.33,-2.361,-2.3955,-2.419,-2.419,-2.419,-2.419,-2.419,-2.4357,-2.4495,-2.4495,-2.4654,-2.4842,-2.4974,-2.4998,-2.5096,-2.5351,-2.5505,-2.5592,-2.5592,-2.564,-2.5312,-2.4473,-2.4355,-2.3984,-2.3203,-2.3144,-2.3125,-2.3125,-2.3086,-2.3105,-2.3203,-2.3984,-2.4414,-2.4434,-2.5215,-2.5605,-2.5585,-2.5453,-2.5409,-1.3633,-1.379,-1.3705,-1.2922,-1.2718,-1.2648,-1.2463,-1.2261,-1.2318,-1.301,-1.2467,-1.19,-1.2073,-1.2285,-1.2301,-1.19,-1.2216,-1.255,-1.2754,-1.2618,-1.2935,-1.402,-1.4126,-1.4494,-1.5604,-1.5722,-1.5904,-1.6315,-1.689,-1.7409,-1.784,-1.8485,-1.9053,-1.9541,-1.9626,-1.969,-1.969,-1.969,-1.9839,-2.0089,-2.0398,-2.0398,-2.0089,-2.0089,-2.0261,-2.055,-2.0862,-2.1323,-2.1869,-2.218,-2.231,-2.231,-2.231,-2.231,-2.231,-2.231,-2.2377,-2.2409,-2.2409,-2.2409,-2.2409,-2.2409,-2.236,-2.231,-2.231,-2.231,-2.231,-2.231,-2.2426,-2.2573,-2.2669,-2.3117,-2.3566,-2.3671,-2.3955,-2.419,-2.419,-2.419,-2.4247,-2.4375,-2.4444,-2.4526,-2.467,-2.4823,-2.5012,-2.522,-2.5261,-2.5301,-2.538,-2.5524,-2.5601,-2.5601,-2.566,-2.5586,-2.5293,-2.4727,-2.4277,-2.4004,-2.3496,-2.3184,-2.3144,-2.3672,-2.3965,-2.4004,-2.4824,-2.5254,-2.5254,-2.5527,-2.5644,-2.5605,-2.5544,-2.5515,-1.2825,-1.2635,-1.2176,-1.1639,-1.1345,-1.1201,-1.1376,-1.1531,-1.1853,-1.2505,-1.2221,-1.1836,-1.1848,-1.1878,-1.1876,-1.1723,-1.1943,-1.2326,-1.2885,-1.2525,-1.2716,-1.4212,-1.4213,-1.4563,-1.575,-1.5866,-1.5917,-1.6087,-1.6426,-1.7006,-1.7856,-1.8461,-1.9049,-1.9675,-1.953,-1.9406,-1.9406,-1.9406,-1.9702,-2.0314,-2.0616,-2.0682,-2.055,-2.055,-2.0649,-2.0765,-2.107,-2.1446,-2.1869,-2.218,-2.231,-2.231,-2.231,-2.231,-2.231,-2.231,-2.231,-2.231,-2.231,-2.231,-2.231,-2.231,-2.231,-2.231,-2.231,-2.231,-2.231,-2.231,-2.25,-2.2721,-2.2848,-2.33,-2.3714,-2.3837,-2.4036,-2.4209,-2.4284,-2.4303,-2.4357,-2.4578,-2.4651,-2.4723,-2.4836,-2.5005,-2.5171,-2.5331,-2.5406,-2.5451,-2.5476,-2.5577,-2.5641,-2.5641,-2.5676,-2.5703,-2.5703,-2.5195,-2.4863,-2.4863,-2.4375,-2.4062,-2.4023,-2.457,-2.4863,-2.4863,-2.541,-2.5703,-2.5703,-2.5703,-2.5684,-2.5644,-2.5605,-2.5574,-1.1705,-1.084,-0.9904,-1.0483,-1.0168,-0.9919,-1.0743,-1.1611,-1.2248,-1.2302,-1.255,-1.2652,-1.2205,-1.1955,-1.1927,-1.2296,-1.2057,-1.211,-1.2971,-1.2399,-1.2617,-1.4662,-1.4438,-1.4773,-1.6366,-1.6466,-1.6347,-1.6163,-1.6199,-1.6736,-1.7805,-1.8487,-1.9095,-1.9603,-1.9169,-1.8893,-1.8855,-1.893,-1.9419,-2.0348,-2.0348,-2.0583,-2.1023,-2.1023,-2.1244,-2.1582,-2.1582,-2.1869,-2.231,-2.231,-2.231,-2.231,-2.231,-2.231,-2.231,-2.231,-2.231,-2.231,-2.231,-2.231,-2.231,-2.231,-2.231,-2.231,-2.231,-2.231,-2.231,-2.2338,-2.2527,-2.2797,-2.3141,-2.3459,-2.3816,-2.4113,-2.419,-2.4266,-2.4461,-2.4495,-2.4559,-2.4775,-2.493,-2.5022,-2.5022,-2.5173,-2.5303,-2.5303,-2.542,-2.5531,-2.5591,-2.566,-2.5703,-2.5703,-2.5703,-2.5703,-2.5703,-2.5703,-2.5703,-2.5703,-2.5703,-2.5703,-2.5703,-2.5703,-2.5703,-2.5703,-2.5703,-2.5703,-2.5703,-2.5703,-2.5703,-2.5703,-2.5625,-2.5619,-0.9046,-0.8961,-0.9085,-0.8542,-0.8485,-0.9004,-1.0795,-1.1412,-1.2047,-1.3475,-1.305,-1.2436,-1.2481,-1.2069,-1.1773,-1.185,-1.2063,-1.24,-1.3027,-1.2925,-1.3317,-1.4738,-1.4787,-1.5172,-1.6366,-1.6095,-1.5972,-1.6386,-1.6792,-1.7142,-1.7437,-1.797,-1.838,-1.8496,-1.8765,-1.8688,-1.8302,-1.9037,-1.9904,-2.0829,-2.1134,-2.1321,-2.143,-2.143,-2.1491,-2.1582,-2.1582,-2.1869,-2.231,-2.231,-2.231,-2.231,-2.231,-2.231,-2.231,-2.231,-2.231,-2.231,-2.231,-2.231,-2.231,-2.231,-2.231,-2.231,-2.231,-2.231,-2.2349,-2.2537,-2.284,-2.3141,-2.35,-2.3816,-2.4094,-2.417,-2.419,-2.4266,-2.4461,-2.4495,-2.4591,-2.4885,-2.5107,-2.5224,-2.5224,-2.5264,-2.5322,-2.537,-2.5407,-2.5445,-2.5518,-2.5637,-2.5703,-2.5703,-2.5703,-2.5703,-2.5703,-2.5703,-2.5703,-2.5703,-2.5703,-2.5703,-2.5703,-2.5703,-2.5703,-2.5703,-2.5703,-2.5703,-2.5703,-2.5703,-2.5703,-2.5703,-2.5684,-2.5661,-0.7262,-0.7416,-0.7782,-0.676,-0.7627,-0.91,-1.0463,-1.1626,-1.2726,-1.3797,-1.3467,-1.2885,-1.2651,-1.211,-1.1704,-1.1664,-1.1857,-1.233,-1.3304,-1.3271,-1.3592,-1.475,-1.513,-1.548,-1.6095,-1.6059,-1.6139,-1.6466,-1.6514,-1.6786,-1.7271,-1.7585,-1.7947,-1.8458,-1.8496,-1.8419,-1.8106,-1.866,-1.9411,-2.04,-2.1039,-2.143,-2.1628,-2.1794,-2.1899,-2.1899,-2.1899,-2.2061,-2.231,-2.231,-2.231,-2.231,-2.231,-2.231,-2.231,-2.231,-2.231,-2.2338,-2.2409,-2.2415,-2.231,-2.231,-2.231,-2.231,-2.231,-2.231,-2.2349,-2.2608,-2.2947,-2.3277,-2.361,-2.3937,-2.419,-2.419,-2.419,-2.4266,-2.4461,-2.4559,-2.4727,-2.5065,-2.5224,-2.5303,-2.5303,-2.5303,-2.5303,-2.5341,-2.539,-2.5418,-2.5452,-2.557,-2.5664,-2.5664,-2.5684,-2.5703,-2.5703,-2.5703,-2.5703,-2.5703,-2.5703,-2.5703,-2.5703,-2.5703,-2.5703,-2.5703,-2.5703,-2.5703,-2.5703,-2.5703,-2.5703,-2.5703,-2.5703,-2.5703,-0.5792,-0.5855,-0.6006,-0.508,-0.7029,-0.9334,-0.9997,-1.191,-1.3571,-1.3776,-1.3815,-1.3557,-1.2747,-1.211,-1.1655,-1.1484,-1.147,-1.1925,-1.3411,-1.3365,-1.3609,-1.473,-1.5364,-1.5718,-1.5793,-1.6233,-1.6522,-1.6522,-1.6008,-1.6157,-1.7146,-1.7188,-1.7706,-1.8765,-1.8341,-1.8145,-1.8224,-1.8224,-1.866,-1.9621,-2.0501,-2.115,-2.1612,-2.2032,-2.2237,-2.231,-2.231,-2.231,-2.231,-2.231,-2.231,-2.231,-2.231,-2.231,-2.231,-2.231,-2.231,-2.2321,-2.2563,-2.25,-2.231,-2.2349,-2.2321,-2.231,-2.231,-2.231,-2.2349,-2.2608,-2.2923,-2.3212,-2.3544,-2.3837,-2.4074,-2.4113,-2.4113,-2.4209,-2.4444,-2.4685,-2.491,-2.5192,-2.5274,-2.5303,-2.5303,-2.5303,-2.5303,-2.5303,-2.5341,-2.539,-2.539,-2.5508,-2.5602,-2.5605,-2.5664,-2.5703,-2.5697,-2.5696,-2.5699,-2.5684,-2.5684,-2.5684,-2.5703,-2.5703,-2.5703,-2.5703,-2.5703,-2.5703,-2.5703,-2.5703,-2.5703,-2.5703,-2.5703,-2.5703,-0.3497,-0.3247,-0.3361,-0.3506,-0.526,-0.7566,-0.9892,-1.1542,-1.291,-1.4253,-1.4185,-1.3608,-1.2747,-1.2077,-1.145,-1.0853,-1.0692,-1.0998,-1.2109,-1.2638,-1.3445,-1.4666,-1.5344,-1.5869,-1.6333,-1.6459,-1.6522,-1.6522,-1.6423,-1.6423,-1.6637,-1.6637,-1.7105,-1.8224,-1.8145,-1.8302,-1.8765,-1.8765,-1.9051,-1.9621,-2.0162,-2.0846,-2.1582,-2.1688,-2.1928,-2.231,-2.231,-2.231,-2.231,-2.231,-2.231,-2.231,-2.231,-2.231,-2.231,-2.231,-2.231,-2.231,-2.2332,-2.2349,-2.2349,-2.2563,-2.2473,-2.231,-2.231,-2.231,-2.2349,-2.2608,-2.2746,-2.2855,-2.3189,-2.3346,-2.3437,-2.3714,-2.3795,-2.3919,-2.4391,-2.4752,-2.4986,-2.5034,-2.5192,-2.5303,-2.5303,-2.5303,-2.5303,-2.5303,-2.5303,-2.5322,-2.5322,-2.5483,-2.5595,-2.5604,-2.5664,-2.5683,-2.5623,-2.5611,-2.5626,-2.5624,-2.5625,-2.5644,-2.5703,-2.5703,-2.5703,-2.5703,-2.5703,-2.5703,-2.5703,-2.5703,-2.5703,-2.5703,-2.5703,-2.5703,-0.167,-0.1474,-0.1835,-0.2389,-0.5359,-0.8475,-0.9873,-1.1709,-1.3375,-1.4204,-1.4141,-1.3621,-1.2758,-1.2066,-1.1389,-1.0711,-1.0466,-1.0863,-1.2186,-1.2909,-1.3568,-1.4264,-1.5119,-1.5618,-1.5618,-1.5849,-1.6151,-1.6479,-1.6522,-1.6522,-1.6522,-1.7034,-1.7706,-1.8496,-1.8535,-1.8496,-1.8496,-1.8496,-1.8598,-1.8835,-1.957,-2.0418,-2.1275,-2.1491,-2.1869,-2.231,-2.231,-2.231,-2.231,-2.231,-2.231,-2.231,-2.231,-2.231,-2.231,-2.231,-2.231,-2.2338,-2.2463,-2.2426,-2.2349,-2.2625,-2.2527,-2.231,-2.231,-2.231,-2.2349,-2.2608,-2.2695,-2.2772,-2.3117,-2.3189,-2.3236,-2.3392,-2.3566,-2.386,-2.4391,-2.4712,-2.4917,-2.4986,-2.5163,-2.5303,-2.5303,-2.5303,-2.5303,-2.5303,-2.5303,-2.5303,-2.5303,-2.5447,-2.5526,-2.5504,-2.5598,-2.5638,-2.5604,-2.5608,-2.5605,-2.5609,-2.559,-2.5605,-2.5644,-2.5684,-2.5703,-2.5703,-2.5703,-2.5703,-2.5703,-2.5703,-2.5703,-2.5703,-2.5703,-2.5703,-0.0169,-0.0167,-0.093,-0.183,-0.5564,-0.9189,-0.9883,-1.1814,-1.3548,-1.3844,-1.3822,-1.3493,-1.2571,-1.1787,-1.1064,-1.0472,-1.0081,-1.0454,-1.2164,-1.2888,-1.3476,-1.3994,-1.4854,-1.5345,-1.5181,-1.5449,-1.5864,-1.6466,-1.6522,-1.6552,-1.668,-1.7585,-1.8341,-1.8893,-1.9006,-1.8817,-1.8302,-1.838,-1.838,-1.8302,-1.9185,-2.0093,-2.0991,-2.1337,-2.1764,-2.231,-2.231,-2.231,-2.231,-2.231,-2.231,-2.231,-2.231,-2.231,-2.231,-2.231,-2.231,-2.2321,-2.2537,-2.249,-2.2349,-2.2625,-2.2563,-2.2388,-2.2388,-2.2388,-2.2426,-2.2634,-2.266,-2.266,-2.294,-2.3014,-2.3038,-2.3165,-2.3522,-2.3919,-2.4338,-2.4623,-2.4828,-2.4943,-2.5141,-2.5303,-2.5303,-2.5303,-2.5303,-2.5303,-2.5303,-2.5303,-2.5322,-2.5409,-2.5455,-2.5434,-2.5547,-2.5615,-2.5605,-2.5585,-2.5581,-2.5611,-2.5581,-2.5597,-2.5625,-2.5664,-2.5703,-2.5703,-2.5703,-2.5703,-2.5703,-2.5703,-2.5703,-2.5703,-2.5703,-2.5703,0.1002,0.069,-0.0466,-0.2115,-0.4667,-0.7435,-0.9887,-1.1242,-1.2258,-1.3109,-1.3257,-1.299,-1.205,-1.0981,-1.0089,-0.9661,-0.8771,-0.8822,-1.0714,-1.1522,-1.257,-1.4391,-1.4721,-1.5174,-1.6219,-1.5884,-1.5864,-1.6466,-1.6522,-1.671,-1.7188,-1.7787,-1.8341,-1.8893,-1.9369,-1.9369,-1.8817,-1.9332,-1.9332,-1.8817,-1.9391,-2.0139,-2.0991,-2.1023,-2.1524,-2.231,-2.231,-2.231,-2.231,-2.231,-2.231,-2.231,-2.231,-2.231,-2.231,-2.231,-2.231,-2.231,-2.2321,-2.2321,-2.2349,-2.2625,-2.2669,-2.2643,-2.2643,-2.2643,-2.2686,-2.2695,-2.251,-2.2349,-2.2377,-2.2377,-2.2535,-2.3063,-2.3692,-2.417,-2.4209,-2.4528,-2.4804,-2.4818,-2.508,-2.5303,-2.5303,-2.5303,-2.5303,-2.5303,-2.5303,-2.5322,-2.539,-2.5409,-2.5423,-2.5488,-2.5599,-2.5667,-2.5604,-2.5542,-2.5544,-2.5601,-2.5552,-2.5564,-2.5683,-2.5703,-2.5703,-2.5703,-2.5703,-2.5703,-2.5703,-2.5703,-2.5703,-2.5703,-2.5703,-2.5703,0.1954,0.1272,-0.0397,-0.2026,-0.4736,-0.7625,-0.9874,-1.1346,-1.2401,-1.3047,-1.3198,-1.2908,-1.1957,-1.1116,-1.0498,-1.0197,-0.952,-0.9384,-1.0614,-1.1332,-1.2006,-1.287,-1.3301,-1.4064,-1.5287,-1.5197,-1.5466,-1.6423,-1.6795,-1.7229,-1.7747,-1.7987,-1.8496,-1.9369,-1.9603,-1.9442,-1.8893,-1.9132,-1.9132,-1.8893,-1.9132,-1.9829,-2.0991,-2.0991,-2.1493,-2.231,-2.231,-2.231,-2.231,-2.231,-2.231,-2.231,-2.231,-2.231,-2.231,-2.231,-2.231,-2.2321,-2.2473,-2.2537,-2.259,-2.2898,-2.3141,-2.3259,-2.3069,-2.2996,-2.2996,-2.2996,-2.2915,-2.2865,-2.2992,-2.3111,-2.3303,-2.3759,-2.4063,-2.4316,-2.4526,-2.4737,-2.493,-2.493,-2.5118,-2.5303,-2.5303,-2.5322,-2.537,-2.537,-2.539,-2.5428,-2.5466,-2.546,-2.5489,-2.5546,-2.5609,-2.5627,-2.5609,-2.5577,-2.5574,-2.5592,-2.5563,-2.5578,-2.5634,-2.5685,-2.5703,-2.5703,-2.5703,-2.5703,-2.5703,-2.5703,-2.5703,-2.5703,-2.5703,-2.5703,0.252,0.1612,-0.0459,-0.2015,-0.483,-0.7781,-0.9969,-1.1411,-1.2473,-1.3082,-1.3198,-1.2943,-1.2138,-1.1387,-1.0821,-1.0656,-1.0116,-0.9908,-1.0524,-1.1271,-1.1729,-1.1796,-1.2404,-1.3226,-1.4307,-1.4732,-1.5377,-1.6423,-1.6837,-1.7394,-1.8066,-1.8106,-1.8574,-1.969,-1.969,-1.953,-1.9132,-1.9132,-1.9192,-1.931,-1.931,-1.9919,-2.0991,-2.0991,-2.1323,-2.1915,-2.2032,-2.202,-2.1945,-2.218,-2.2209,-2.2106,-2.2343,-2.236,-2.231,-2.2388,-2.2426,-2.2453,-2.2634,-2.2772,-2.2898,-2.3236,-2.3522,-2.3671,-2.3544,-2.3414,-2.3351,-2.3424,-2.3432,-2.3437,-2.3558,-2.3784,-2.4038,-2.4282,-2.4396,-2.453,-2.4785,-2.494,-2.5051,-2.5051,-2.5206,-2.537,-2.537,-2.5409,-2.5428,-2.5423,-2.5479,-2.5511,-2.5534,-2.552,-2.5523,-2.5586,-2.5586,-2.5582,-2.5628,-2.5615,-2.5609,-2.5622,-2.5608,-2.5609,-2.5621,-2.5679,-2.5703,-2.5703,-2.5703,-2.5703,-2.5703,-2.5703,-2.5703,-2.5703,-2.5703,-2.5703,0.256,0.17,-0.0663,-0.2223,-0.4651,-0.7463,-1.0238,-1.135,-1.2066,-1.3012,-1.3198,-1.3047,-1.2579,-1.1608,-1.0874,-1.0709,-1.0145,-0.9818,-1.0148,-1.1132,-1.1796,-1.1711,-1.2423,-1.3132,-1.3658,-1.4869,-1.582,-1.6466,-1.6522,-1.6951,-1.8027,-1.8106,-1.8574,-1.969,-1.969,-1.969,-1.969,-1.969,-1.9909,-2.028,-2.028,-2.055,-2.0991,-2.0991,-2.0991,-2.1039,-2.143,-2.1368,-2.1071,-2.1945,-2.2032,-2.1672,-2.2405,-2.2537,-2.2321,-2.2599,-2.2695,-2.2695,-2.2695,-2.2923,-2.3236,-2.3588,-2.3692,-2.3774,-2.4094,-2.3976,-2.3738,-2.3929,-2.3953,-2.3891,-2.3821,-2.4091,-2.4399,-2.4403,-2.4602,-2.4809,-2.4888,-2.5064,-2.521,-2.521,-2.5359,-2.5505,-2.5505,-2.5505,-2.5492,-2.5507,-2.5508,-2.5511,-2.5601,-2.5539,-2.5523,-2.559,-2.5544,-2.5558,-2.5683,-2.5644,-2.5625,-2.5683,-2.5641,-2.5628,-2.5703,-2.5703,-2.5703,-2.5703,-2.5703,-2.5703,-2.5703,-2.5703,-2.5703,-2.5703,-2.5703,-2.5703,0.0373,-0.0375,-0.2396,-0.4383,-0.6179,-0.7959,-0.9916,-1.1116,-1.2066,-1.3012,-1.3198,-1.3047,-1.2579,-1.197,-1.1594,-1.1778,-1.1349,-1.1067,-1.1244,-1.1585,-1.1805,-1.1796,-1.3168,-1.405,-1.3794,-1.5264,-1.6139,-1.5908,-1.66,-1.7188,-1.7544,-1.7907,-1.8574,-1.969,-1.969,-1.969,-1.969,-1.969,-1.9909,-2.0314,-2.0314,-2.0682,-2.1399,-2.1399,-2.1399,-2.143,-2.1869,-2.1675,-2.1071,-2.1945,-2.2032,-2.1672,-2.2415,-2.266,-2.2599,-2.2923,-2.3045,-2.3069,-2.3282,-2.3437,-2.3606,-2.3937,-2.4135,-2.4284,-2.4374,-2.432,-2.4284,-2.45,-2.4634,-2.4722,-2.4694,-2.4846,-2.5018,-2.5017,-2.5086,-2.5157,-2.5227,-2.5298,-2.5343,-2.5403,-2.5459,-2.5499,-2.5499,-2.5537,-2.5572,-2.5575,-2.5604,-2.5648,-2.5668,-2.5618,-2.5579,-2.56,-2.5541,-2.5531,-2.5554,-2.5599,-2.5605,-2.5625,-2.5648,-2.5683,-2.5703,-2.5703,-2.5703,-2.5703,-2.5702,-2.5673,-2.5635,-2.5635,-2.5618,-2.5564,-2.5602,-2.5619,-0.2617,-0.3125,-0.4719,-0.6317,-0.7271,-0.8262,-0.9993,-1.1244,-1.2294,-1.3276,-1.3459,-1.3378,-1.3091,-1.2687,-1.2359,-1.2324,-1.2254,-1.2008,-1.1622,-1.1929,-1.2236,-1.2236,-1.3034,-1.3747,-1.4097,-1.5152,-1.5832,-1.5908,-1.66,-1.7076,-1.7312,-1.7626,-1.8302,-1.9369,-1.9406,-1.9479,-1.969,-1.969,-1.9909,-2.0314,-2.0483,-2.0846,-2.1368,-2.1521,-2.1521,-2.1399,-2.184,-2.1645,0.0,-2.1945,-2.2032,-2.1672,-2.2415,-2.2695,-2.2746,-2.3069,-2.3277,-2.3414,-2.3628,-2.3795,-2.3917,-2.4113,-2.434,-2.4557,-2.4679,-2.4723,-2.4753,-2.4917,-2.5099,-2.5242,-2.5228,-2.5283,-2.5333,-2.5333,-2.5333,-2.5363,-2.5414,-2.5468,-2.5475,-2.55,-2.5547,-2.5567,-2.5548,-2.5576,-2.5601,-2.5601,-2.5641,-2.5664,-2.5664,-2.5625,-2.5598,-2.56,-2.5543,-2.5493,-2.5511,-2.5566,-2.5595,-2.5605,-2.5664,-2.5703,-2.5703,-2.5701,-2.5687,-2.5668,-2.5654,-2.563,-2.5561,-2.5552,-2.555,-2.5506,-2.5537,-2.5535,0.0,-0.6319,-0.7216,-0.7896,-0.8036,-0.8504,-1.051,-1.1709,0.0,-1.3689,-1.3901,-1.3914,-1.3954,-1.3588,-1.3153,-1.2659,-1.285,-1.2715,-1.1556,-1.2253,-1.2881,-1.2881,-1.2355,-1.2638,-1.4413,-1.4665,-1.5182,-1.6225,-1.6391,-1.6659,-1.7164,-1.7203,-1.7706,-1.8727,-1.8779,-1.908,-1.969,-1.969,-1.9909,-2.0314,-2.0797,-2.0991,-2.1071,-2.146,-2.1446,-2.1055,-2.143,-2.1368,-2.1055,-2.1915,-2.2003,-2.1672,-2.2441,-2.2746,-2.2772,-2.3141,-2.3459,-2.3753,-2.3753,-2.3937,-2.419,-2.4246,-2.4413,-2.469,-2.5026,-2.5133,-2.5139,-2.5197,-2.5366,-2.5485,-2.5428,-2.5395,-2.539,-2.539,-2.539,-2.5409,-2.5486,-2.5542,-2.5577,-2.552,-2.5601,-2.5683,-2.5625,-2.562,-2.561,-2.5611,-2.5595,-2.5604,-2.5605,-2.5605,-2.5603,-2.5605,-2.5532,-2.5502,-2.5484,-2.5563,-2.5607,-2.56,-2.5664,-2.5703,-2.5701,-2.5706,-2.5668,-2.5589,-2.5561,-2.5511,-2.5457,-2.5462,-2.5457,-2.5457,-2.5476,-2.5487,-0.8574,0.0,-0.7602,-0.7881,-0.8794,-0.9954,0.0,-1.2248,-1.3107,-1.3789,0.0,-1.4033,-1.4449,-1.385,-1.3504,-1.4146,-1.3586,-1.3101,-1.3175,-1.3024,-1.2881,-1.2881,-1.3186,-1.3403,-1.3379,-1.4259,-1.476,-1.4598,-1.5397,-1.5923,-1.6074,-1.6481,-1.6993,-1.7666,-1.7666,-1.8341,-1.969,-1.969,-1.9909,-2.0314,-2.0797,-2.115,-2.146,-2.1945,-2.1899,-2.146,-2.1552,-2.1368,-2.1023,-2.1538,-2.1688,-2.1702,-2.2686,-2.3069,-2.3141,-2.3753,-2.4016,-2.4074,-2.4074,-2.4113,-2.4246,-2.4557,-2.4807,-2.5045,-2.5378,-2.5381,-2.5283,-2.5396,-2.5467,-2.5488,-2.5418,-2.5369,-2.5322,-2.5322,-2.5322,-2.5341,-2.5409,-2.5481,-2.5525,-2.557,-2.5639,-2.5698,-2.5681,-2.5677,-2.5656,-2.56,-2.5605,-2.5607,-2.5604,-2.5605,-2.5604,-2.5605,-2.5547,-2.5488,-2.5432,-2.5524,-2.56,-2.5604,-2.5651,-2.5703,-2.5703,-2.5648,-2.5538,-2.5364,-2.5114,-2.4984,-2.4972,-2.5075,-2.5115,-2.5126,-2.532,-2.5399,-0.95,-0.9087,-0.883,-0.8903,-0.9732,-1.0805,-1.1827,-1.2763,0.0,0.0,0.0,-1.4552,-1.4917,-1.4601,-1.4511,-1.5057,-1.465,-1.4148,-1.3831,-1.3505,-1.312,-1.2655,-1.3345,-1.3707,-1.313,-1.3924,-1.4474,-1.4435,-1.5219,-1.5693,-1.5693,-1.622,-1.6752,-1.7271,-1.7312,-1.7827,-1.8968,-1.9207,-1.9449,-1.9671,-2.0333,-2.0926,-2.1337,-2.1764,-2.1974,-2.1899,-2.1688,-2.1598,-2.1584,-2.1598,-2.1735,-2.1969,-2.2695,-2.3069,-2.3259,-2.3774,-2.4074,-2.419,-2.419,-2.4247,-2.4411,-2.4817,-2.5031,-2.5206,-2.5513,-2.5545,-2.5487,-2.5524,-2.5529,-2.5468,-2.5418,-2.5341,-2.5303,-2.5303,-2.5303,-2.5303,-2.5341,-2.5428,-2.5502,-2.5512,-2.5599,-2.5646,-2.5654,-2.5639,-2.5615,-2.559,-2.5608,-2.5605,-2.56,-2.5631,-2.5644,-2.5644,-2.5589,-2.5538,-2.5498,-2.556,-2.5595,-2.5568,-2.5651,-2.5686,-2.5659,-2.5526,-2.5333,-2.5077,-2.4891,-2.4798,-2.4798,-2.4874,-2.4937,-2.501,-2.5149,-2.5252,-0.9837,-1.0042,-1.0334,-1.0167,-1.0584,-1.1355,-1.2354,0.0,0.0,0.0,0.0,0.0,-1.548,-1.5613,-1.5681,-1.5833,-1.5709,-1.5174,-1.3956,-1.3862,-1.3518,-1.2451,-1.3256,-1.371,-1.3245,-1.3586,-1.4075,-1.4588,-1.5207,-1.5587,-1.5676,-1.629,-1.686,-1.7381,-1.7353,-1.7504,-1.7987,-1.8574,-1.8893,-1.8893,-1.9849,-2.055,-2.0991,-2.1399,-2.1869,-2.2265,-2.1794,-2.1869,-2.2254,-2.1794,-2.1899,-2.2321,-2.2652,-2.2947,-2.3253,-2.3631,-2.3955,-2.419,-2.4247,-2.4393,-2.466,-2.5002,-2.5172,-2.5322,-2.5543,-2.5653,-2.5673,-2.5589,-2.5534,-2.5486,-2.5409,-2.5341,-2.5303,-2.5303,-2.5303,-2.5303,-2.5303,-2.5409,-2.5476,-2.5399,-2.5495,-2.5591,-2.5592,-2.5551,-2.5531,-2.5583,-2.5591,-2.5588,-2.5592,-2.5644,-2.5698,-2.5703,-2.564,-2.5601,-2.5601,-2.5601,-2.5562,-2.5496,-2.5615,-2.563,-2.5522,-2.5324,-2.5077,-2.4762,-2.4726,-2.4716,-2.4716,-2.4746,-2.4795,-2.4917,-2.4986,-2.5088,-1.0978,-1.1371,-1.147,-1.0445,-1.1058,-1.2078,-1.2762,0.0,0.0,0.0,0.0,0.0,-1.6479,-1.6382,-1.6376,-1.6955,-1.6225,-1.5174,-1.3956,-1.4236,-1.4155,-1.3014,-1.3515,-1.3783,-1.3167,-1.3228,-1.3378,-1.3448,-1.4333,-1.5105,-1.5652,-1.6525,-1.731,-1.7973,-1.7544,-1.7353,-1.7435,-1.8419,-1.8893,-1.8893,-1.9849,-2.055,-2.0991,-2.1399,-2.1869,-2.2265,-2.1794,-2.1869,-2.2254,-2.1794,-2.1899,-2.2349,-2.2908,-2.3141,-2.3277,-2.3896,-2.4151,-2.4228,-2.4393,-2.4692,-2.5029,-2.5144,-2.5354,-2.5563,-2.564,-2.5646,-2.5602,-2.5523,-2.5507,-2.5466,-2.5341,-2.5303,-2.5303,-2.5303,-2.5303,-2.5303,-2.5303,-2.537,-2.5408,-2.5398,-2.5466,-2.5531,-2.5582,-2.559,-2.558,-2.5605,-2.5602,-2.5593,-2.56,-2.5609,-2.5647,-2.5682,-2.564,-2.5601,-2.5601,-2.5601,-2.557,-2.5508,-2.557,-2.5482,-2.5196,-2.4975,-2.4769,-2.4549,-2.4393,-2.4284,-2.4284,-2.4461,-2.4559,-2.4572,-2.4872,-2.5022,-1.0548,-1.1276,-1.1767,-1.0746,-1.1579,-1.2892,-1.3623,-1.4059,0.0,0.0,0.0,-1.6128,-1.7324,-1.7236,-1.7121,-1.7663,-1.7011,-1.6083,-1.4943,-1.478,-1.433,-1.3125,-1.3811,-1.4149,-1.3559,-1.3752,-1.3901,-1.3901,-1.46,-1.5146,-1.5451,-1.6177,-1.6876,-1.7556,-1.7312,-1.7382,-1.7733,-1.8496,-1.8727,-1.8496,-1.92,-2.0058,-2.1007,-2.1181,-2.1645,-2.2265,-2.1794,-2.1869,-2.2254,-2.1794,-2.1899,-2.2349,-2.2965,-2.3189,-2.3282,-2.4079,-2.4357,-2.441,-2.4707,-2.495,-2.5127,-2.5354,-2.5508,-2.5605,-2.5637,-2.562,-2.5592,-2.5484,-2.5453,-2.5428,-2.5322,-2.5303,-2.5303,-2.5303,-2.5303,-2.5303,-2.5303,-2.5341,-2.5409,-2.5404,-2.5426,-2.5476,-2.5582,-2.5568,-2.557,-2.5644,-2.5644,-2.5659,-2.5652,-2.5658,-2.5678,-2.5703,-2.5634,-2.5595,-2.5611,-2.5564,-2.5554,-2.5547,-2.5418,-2.5203,-2.494,-2.4735,-2.4534,-2.4339,-2.4247,-2.419,-2.419,-2.4284,-2.4393,-2.4512,-2.4766,-2.4924,-1.0289,-1.1026,-1.171,-1.1311,-1.2048,-1.3141,-1.397,-1.4201,-1.4463,-1.5316,-1.5987,-1.6761,-1.796,-1.7964,-1.7865,-1.803,-1.745,-1.6647,-1.5737,-1.5245,-1.4534,-1.3343,-1.4164,-1.462,-1.4122,-1.4481,-1.4727,-1.4727,-1.5209,-1.5566,-1.5693,-1.6208,-1.6886,-1.7727,-1.7632,-1.7893,-1.8593,-1.8873,-1.8774,-1.8302,-1.8817,-1.9758,-2.0991,-2.0991,-2.1493,-2.2282,-2.1982,-2.2027,-2.2282,-2.1982,-2.2068,-2.2453,-2.2989,-2.331,-2.3577,-2.4247,-2.4543,-2.4651,-2.4991,-2.5144,-2.5239,-2.5504,-2.5608,-2.5624,-2.5602,-2.5582,-2.5543,-2.5428,-2.539,-2.537,-2.5303,-2.5303,-2.5303,-2.5303,-2.5303,-2.5303,-2.5303,-2.5341,-2.539,-2.539,-2.539,-2.5409,-2.5524,-2.551,-2.5511,-2.5634,-2.5659,-2.5659,-2.5659,-2.5659,-2.5659,-2.5659,-2.56,-2.5582,-2.5576,-2.5522,-2.5479,-2.5475,-2.5251,-2.4988,-2.4743,-2.4584,-2.441,-2.419,-2.419,-2.4228,-2.4266,-2.4228,-2.4303,-2.4512,-2.4654,-2.4814,-1.1136,-1.1282,-1.1468,-1.243,-1.2384,-1.2275,-1.2966,-1.3247,-1.3707,-1.4905,-1.5948,-1.703,-1.8161,-1.8563,-1.8541,-1.8014,-1.7036,-1.6164,-1.5658,-1.5504,-1.5041,-1.3902,-1.4564,-1.51,-1.4939,-1.5228,-1.543,-1.543,-1.5874,-1.6379,-1.6933,-1.7421,-1.8284,-1.9672,-1.9214,-1.9311,-2.0054,-1.9592,-1.9192,-1.8855,-1.9406,-2.0104,-2.0991,-2.0991,-2.1493,-2.2293,-2.252,-2.251,-2.2338,-2.252,-2.2643,-2.2712,-2.3069,-2.3684,-2.4408,-2.4478,-2.4693,-2.4993,-2.507,-2.5265,-2.5485,-2.558,-2.5651,-2.5682,-2.5615,-2.5563,-2.5486,-2.5428,-2.537,-2.5303,-2.5303,-2.5303,-2.5303,-2.5303,-2.5303,-2.5303,-2.5303,-2.5303,-2.5303,-2.5303,-2.5303,-2.5322,-2.5409,-2.5406,-2.544,-2.5498,-2.5503,-2.5503,-2.5503,-2.5503,-2.5503,-2.5503,-2.5503,-2.5511,-2.5508,-2.5439,-2.5321,-2.5152,-2.5108,-2.4922,-2.4547,-2.4512,-2.441,-2.419,-2.419,-2.4284,-2.4478,-2.4284,-2.4303,-2.4495,-2.4512,-2.4623,-0.989,-1.0701,-1.1561,-1.1958,-1.2135,0.0,0.0,-1.355,-1.4012,-1.5169,-1.6084,-1.6969,-1.8069,-1.9304,-1.9694,-1.8296,-1.7801,-1.7356,-1.6637,-1.605,-1.5513,-1.4984,-1.5227,-1.555,-1.5781,-1.6111,-1.6311,-1.6311,-1.6636,-1.691,-1.7142,-1.7486,-1.8336,-1.9733,-1.958,-2.0049,-2.1259,-2.1075,-2.0906,-2.075,-2.0258,-2.0469,-2.1368,-2.1592,-2.2,-2.2563,-2.289,-2.2965,-2.2857,-2.2972,-2.3021,-2.3045,-2.3392,-2.3905,-2.4512,-2.4639,-2.4851,-2.5088,-2.5271,-2.5438,-2.5573,-2.5634,-2.5685,-2.5681,-2.5565,-2.5526,-2.5486,-2.537,-2.5322,-2.5303,-2.5303,-2.5303,-2.5303,-2.5303,-2.5303,-2.5303,-2.5303,-2.5303,-2.5303,-2.5303,-2.5303,-2.5322,-2.539,-2.5398,-2.5412,-2.5484,-2.5503,-2.5503,-2.5503,-2.5503,-2.5503,-2.5503,-2.5503,-2.5484,-2.5445,-2.5407,-2.5267,-2.4926,-2.4912,-2.4779,-2.4512,-2.4375,-2.4266,-2.419,-2.419,-2.4303,-2.4495,-2.4303,-2.4303,-2.4495,-2.4495,-2.4545,-0.9604,-1.0668,-1.1755,-1.1618,0.0,0.0,-1.2984,-1.3351,-1.3893,-1.487,-1.5995,-1.7136,-1.8084,-1.9342,-1.9844,-1.8622,-1.8158,-1.7721,-1.7029,-1.6248,-1.571,-1.5593,-1.5719,-1.6001,-1.6549,-1.6926,-1.715,-1.7248,-1.7419,-1.7546,-1.7659,-1.7817,-1.8577,-2.0037,-2.0148,-2.0887,-2.2392,-2.2476,-2.2484,-2.2484,-2.1642,-2.147,-2.1927,-2.2146,-2.2487,-2.2873,-2.3212,-2.33,-2.3212,-2.3305,-2.3369,-2.3392,-2.3801,-2.4229,-2.4607,-2.4823,-2.5012,-2.5237,-2.5446,-2.5563,-2.5608,-2.5685,-2.5703,-2.5662,-2.5547,-2.549,-2.5466,-2.5341,-2.5303,-2.5303,-2.5303,-2.5303,-2.5303,-2.5303,-2.5303,-2.5303,-2.5303,-2.5303,-2.5303,-2.5303,-2.5303,-2.5303,-2.537,-2.537,-2.539,-2.5428,-2.5447,-2.5447,-2.5447,-2.5447,-2.5447,-2.5447,-2.5447,-2.5428,-2.537,-2.5311,-2.5141,-2.4818,-2.4746,-2.4607,-2.4409,-2.4266,-2.419,-2.419,-2.4247,-2.4393,-2.4591,-2.4461,-2.4476,-2.4666,-2.4543,-2.4526,-1.0668,-1.1425,-1.2111,-1.1695,0.0,0.0,-1.1835,-1.2386,-1.3174,-1.3782,-1.5724,-1.7517,-1.8252,-1.8493,-1.8651,-1.8847,-1.7825,-1.6922,-1.6653,-1.6039,-1.5605,-1.5605,-1.5985,-1.6486,-1.7231,-1.7595,-1.7905,-1.8166,-1.8208,-1.833,-1.8585,-1.8604,-1.9332,-2.0856,-2.1105,-2.1963,-2.3497,-2.3725,-2.3823,-2.3823,-2.3603,-2.3191,-2.2625,-2.2625,-2.2835,-2.3212,-2.3566,-2.3522,-2.3253,-2.3566,-2.3714,-2.3756,-2.4302,-2.4623,-2.4837,-2.5037,-2.5229,-2.5428,-2.5543,-2.5611,-2.5616,-2.5685,-2.5703,-2.5662,-2.5547,-2.549,-2.5466,-2.5341,-2.5303,-2.5303,-2.5303,-2.5303,-2.5303,-2.5303,-2.5303,-2.5303,-2.5303,-2.5303,-2.5303,-2.5303,-2.5303,-2.5303,-2.5303,-2.5303,-2.5303,-2.5303,-2.5303,-2.5303,-2.5303,-2.5303,-2.5303,-2.5303,-2.5303,-2.5303,-2.5303,-2.5111,-2.4937,-2.4804,-2.4607,-2.441,-2.4209,-2.419,-2.419,-2.419,-2.4393,-2.4591,-2.4804,-2.4804,-2.4883,-2.4998,-2.4666,-2.4607,-0.9951,-1.069,-1.1639,-1.2233,-1.2545,-1.2832,-1.3187,-1.319,-1.3424,-1.4356,-1.5538,-1.6592,-1.7061,-1.7822,-1.825,-1.7841,-1.7658,-1.7523,-1.7443,-1.6869,-1.6517,-1.6761,-1.6903,-1.7069,-1.7296,-1.7595,-1.7905,-1.8166,-1.8371,-1.8585,-1.8878,-1.9148,-2.0034,-2.1614,-2.1863,-2.2772,-2.4396,-2.4479,-2.4511,-2.4511,-2.4447,-2.4081,-2.3446,-2.3539,-2.3653,-2.3771,-2.4118,-2.4135,-2.3917,-2.4155,-2.4355,-2.4487,-2.4651,-2.4823,-2.5018,-2.5082,-2.5287,-2.5543,-2.5582,-2.5635,-2.5676,-2.5682,-2.5703,-2.5662,-2.5547,-2.549,-2.5466,-2.5341,-2.5303,-2.5303,-2.5303,-2.5303,-2.5303,-2.5303,-2.5303,-2.5303,-2.5303,-2.5192,-2.5088,-2.5088,-2.5005,-2.4955,-2.4955,-2.4955,-2.4955,-2.4955,-2.4955,-2.4987,-2.5077,-2.5214,-2.5303,-2.5303,-2.5303,-2.5234,-2.5099,-2.5034,-2.4885,-2.4607,-2.4545,-2.441,-2.4209,-2.419,-2.419,-2.419,-2.4393,-2.4591,-2.4804,-2.4804,-2.4883,-2.4998,-2.4666,-2.4545,-1.0899,-1.1643,-1.2444,-1.2898,-1.3063,-1.328,-1.3769,-1.3547,-1.3458,-1.4283,-1.4971,-1.5684,-1.6517,-1.7089,-1.7474,-1.7529,-1.7474,-1.7348,-1.7216,-1.6866,-1.6738,-1.7052,-1.7101,-1.7199,-1.7479,-1.7681,-1.7949,-1.833,-1.8508,-1.8789,-1.9214,-1.9471,-2.0233,-2.1569,-2.1803,-2.2722,-2.439,-2.4474,-2.4683,-2.5006,-2.4923,-2.4719,-2.4392,-2.4344,-2.4332,-2.4332,-2.4522,-2.4561,-2.4462,-2.4568,-2.4701,-2.4806,-2.4922,-2.5031,-2.5151,-2.5258,-2.5431,-2.5592,-2.5628,-2.5678,-2.5703,-2.5703,-2.5672,-2.5636,-2.5537,-2.5471,-2.5447,-2.5322,-2.5303,-2.5274,-2.5203,-2.5173,-2.5203,-2.5274,-2.5253,-2.5173,-2.5173,-2.5041,-2.493,-2.493,-2.4855,-2.4804,-2.4804,-2.4804,-2.4804,-2.4804,-2.4842,-2.4917,-2.4998,-2.5192,-2.5303,-2.5303,-2.5224,-2.5122,-2.501,-2.4885,-2.4723,-2.4512,-2.4428,-2.4339,-2.4208,-2.419,-2.419,-2.419,-2.4478,-2.4685,-2.4804,-2.4923,-2.5012,-2.4979,-2.4737,-2.4594,-1.2743,-1.3396,-1.3813,-1.3595,-1.3519,-1.3635,-1.3866,-1.3581,-1.3357,-1.3769,-1.4076,-1.476,-1.6307,-1.63,-1.6449,-1.7561,-1.7189,-1.6659,-1.6367,-1.6328,-1.6421,-1.6763,-1.6815,-1.7093,-1.7704,-1.7794,-1.8057,-1.8566,-1.8623,-1.8912,-1.9541,-1.9596,-2.0044,-2.0985,-2.1217,-2.2083,-2.3694,-2.3966,-2.4466,-2.5187,-2.5072,-2.513,-2.5303,-2.4968,-2.4832,-2.4847,-2.4818,-2.4823,-2.4827,-2.4839,-2.4842,-2.4881,-2.5139,-2.5224,-2.5275,-2.5518,-2.5592,-2.5611,-2.5685,-2.5703,-2.5703,-2.5681,-2.5644,-2.5591,-2.5505,-2.5456,-2.539,-2.5322,-2.5303,-2.5224,-2.5046,-2.4998,-2.5041,-2.5203,-2.5099,-2.4986,-2.4986,-2.4864,-2.4775,-2.4775,-2.476,-2.4746,-2.4746,-2.4746,-2.4746,-2.4746,-2.4845,-2.4943,-2.4943,-2.513,-2.5253,-2.5253,-2.5088,-2.4974,-2.4962,-2.4678,-2.4495,-2.4478,-2.4303,-2.419,-2.419,-2.419,-2.419,-2.419,-2.4594,-2.479,-2.4804,-2.5103,-2.5182,-2.4998,-2.4836,-2.467,-1.2048,-1.2181,-1.2451,-1.3467,-1.3837,-1.3965,-1.3918,-1.3835,-1.3682,-1.3425,-1.3412,-1.3749,-1.4742,-1.5106,-1.5535,-1.6406,-1.6483,-1.6474,-1.6659,-1.649,-1.6421,-1.6763,-1.7027,-1.7248,-1.7392,-1.7844,-1.8249,-1.8566,-1.8789,-1.9051,-1.935,-1.9612,-2.0162,-2.1041,-2.1321,-2.197,-2.3007,-2.3745,-2.4187,-2.4379,-2.4956,-2.5283,-2.538,-2.5132,-2.505,-2.5113,-2.4947,-2.4969,-2.5102,-2.511,-2.5206,-2.5355,-2.5408,-2.547,-2.5529,-2.5581,-2.5628,-2.5687,-2.5683,-2.5703,-2.5681,-2.5634,-2.5608,-2.5572,-2.5455,-2.5408,-2.539,-2.5322,-2.5192,-2.5046,-2.501,-2.493,-2.4855,-2.4902,-2.4869,-2.4842,-2.4842,-2.47,-2.4559,-2.4559,-2.4445,-2.4339,-2.4339,-2.4339,-2.4339,-2.4339,-2.4476,-2.4604,-2.4604,-2.4785,-2.4915,-2.4915,-2.4869,-2.4785,-2.462,-2.4543,-2.4426,-2.4266,-2.4228,-2.419,-2.419,-2.419,-2.419,-2.419,-2.4426,-2.4639,-2.4804,-2.4874,-2.493,-2.4979,-2.4693,-2.4545,-1.2315,-1.2637,-1.3075,-1.4053,-1.4187,-1.4112,-1.416,-1.4019,-1.369,-1.296,-1.281,-1.3004,-1.3601,-1.3898,-1.4331,-1.5228,-1.5433,-1.5506,-1.5665,-1.5565,-1.5636,-1.6154,-1.638,-1.6693,-1.7231,-1.7585,-1.8005,-1.8566,-1.8734,-1.8982,-1.9409,-1.9676,-2.0044,-2.0557,-2.0803,-2.1331,-2.2177,-2.262,-2.3062,-2.3475,-2.3938,-2.439,-2.487,-2.5149,-2.5316,-2.5333,-2.5225,-2.5245,-2.536,-2.5375,-2.5456,-2.555,-2.5586,-2.5613,-2.5654,-2.5654,-2.5668,-2.5702,-2.5671,-2.5654,-2.5639,-2.557,-2.5528,-2.5486,-2.5428,-2.539,-2.5341,-2.5303,-2.5152,-2.4986,-2.493,-2.4785,-2.4623,-2.4545,-2.4594,-2.4654,-2.4654,-2.4495,-2.4357,-2.4357,-2.4266,-2.419,-2.419,-2.419,-2.419,-2.419,-2.4375,-2.4495,-2.4495,-2.467,-2.4804,-2.4804,-2.4716,-2.4607,-2.4512,-2.441,-2.4321,-2.4209,-2.419,-2.419,-2.419,-2.419,-2.419,-2.419,-2.4393,-2.4591,-2.4804,-2.4804,-2.4828,-2.4904,-2.4639,-2.4444,-1.2711,-1.3371,-1.4081,-1.4574,-1.4464,-1.427,-1.4443,-1.4246,-1.367,-1.2488,-1.2341,-1.2462,-1.2716,-1.2826,-1.3124,-1.3977,-1.4249,-1.4349,-1.4349,-1.4432,-1.4724,-1.533,-1.5519,-1.597,-1.6928,-1.7215,-1.7682,-1.8393,-1.8585,-1.8895,-1.9471,-1.9688,-1.9847,-1.9954,-2.0188,-2.0619,-2.1293,-2.1427,-2.187,-2.2601,-2.2824,-2.3333,-2.412,-2.4781,-2.5245,-2.552,-2.552,-2.552,-2.5535,-2.5582,-2.563,-2.5623,-2.5685,-2.5703,-2.5703,-2.5703,-2.5703,-2.5699,-2.5631,-2.5601,-2.5582,-2.5506,-2.5449,-2.5409,-2.539,-2.5341,-2.5303,-2.5303,-2.5141,-2.4937,-2.4828,-2.4623,-2.441,-2.4247,-2.4339,-2.4444,-2.4444,-2.4321,-2.419,-2.419,-2.419,-2.419,-2.419,-2.419,-2.419,-2.419,-2.4339,-2.4444,-2.4444,-2.4591,-2.47,-2.47,-2.4561,-2.4444,-2.4444,-2.4303,-2.419,-2.419,-2.419,-2.419,-2.419,-2.419,-2.419,-2.419,-2.4357,-2.4561,-2.4746,-2.4716,-2.4716,-2.4746,-2.4545,-2.4357,-1.2153,-1.2722,-1.3544,-1.4067,-1.4464,-1.4683,-1.4519,-1.447,-1.3902,-1.2086,-1.2077,-1.2253,-1.1868,-1.2053,-1.2359,-1.2481,-1.3236,-1.3803,-1.3803,-1.4201,-1.4533,-1.4645,-1.5227,-1.5662,-1.5803,-1.6922,-1.7693,-1.7803,-1.8512,-1.8984,-1.9069,-1.954,-1.9802,-1.9824,-2.0125,-2.035,-2.0465,-2.1158,-2.1592,-2.1776,-2.2642,-2.3141,-2.3266,-2.3381,-2.4238,-2.5662,-2.5662,-2.5662,-2.5662,-2.5679,-2.5696,-2.5697,-2.5703,-2.5703,-2.5703,-2.5703,-2.5703,-2.5699,-2.5631,-2.5601,-2.5592,-2.5447,-2.5418,-2.539,-2.5322,-2.5303,-2.5303,-2.5303,-2.5061,-2.4814,-2.4804,-2.4528,-2.4228,-2.4209,-2.4228,-2.4247,-2.4247,-2.4209,-2.419,-2.419,-2.419,-2.419,-2.419,-2.419,-2.419,-2.419,-2.4228,-2.4247,-2.4247,-2.4247,-2.4284,-2.4284,-2.4266,-2.4247,-2.4247,-2.4209,-2.419,-2.419,-2.419,-2.419,-2.419,-2.419,-2.419,-2.419,-2.4228,-2.4358,-2.4545,-2.4357,-2.4375,-2.4545,-2.4321,-2.4228,-1.3217,-1.367,-1.414,-1.4877,-1.5022,-1.495,-1.485,-1.4658,-1.4096,-1.2694,-1.215,-1.1776,-1.1211,-1.1242,-1.1474,-1.1822,-1.2246,-1.2641,-1.294,-1.3158,-1.3531,-1.4109,-1.446,-1.4805,-1.5228,-1.6034,-1.6765,-1.7319,-1.7941,-1.8475,-1.8966,-1.9295,-1.9556,-1.979,-2.0012,-2.0188,-2.0304,-2.0658,-2.0865,-2.0939,-2.1385,-2.1887,-2.2432,-2.2429,-2.3364,-2.4961,-2.4961,-2.5254,-2.5703,-2.5703,-2.5703,-2.5703,-2.5703,-2.5703,-2.5703,-2.5703,-2.5681,-2.5632,-2.5564,-2.5526,-2.5466,-2.539,-2.5341,-2.5341,-2.5303,-2.5303,-2.5303,-2.5303,-2.5068,-2.4804,-2.4804,-2.4512,-2.419,-2.419,-2.419,-2.419,-2.419,-2.419,-2.419,-2.419,-2.419,-2.419,-2.419,-2.419,-2.419,-2.419,-2.419,-2.419,-2.419,-2.419,-2.419,-2.419,-2.419,-2.419,-2.419,-2.4016,-2.3917,-2.3917,-2.3735,-2.3714,-2.3917,-2.3917,-2.4016,-2.4208,-2.419,-2.4303,-2.4495,-2.4303,-2.4303,-2.4495,-2.4284,-2.419,-1.4347,-1.476,-1.5013,-1.5817,-1.5861,-1.5705,-1.5408,-1.504,-1.4406,-1.3227,-1.2234,-1.1412,-1.0806,-1.0581,-1.0631,-1.1086,-1.1274,-1.1563,-1.2128,-1.2316,-1.2735,-1.3604,-1.3835,-1.4136,-1.4682,-1.5023,-1.5582,-1.6418,-1.6824,-1.7353,-1.8111,-1.8442,-1.8749,-1.9056,-1.9475,-1.9772,-1.9915,-2.0161,-2.0327,-2.0405,-2.0422,-2.0837,-2.157,-2.1577,-2.2363,-2.3789,-2.4004,-2.4453,-2.5059,-2.5273,-2.5371,-2.5391,-2.5605,-2.5703,-2.5703,-2.5703,-2.5652,-2.5592,-2.5524,-2.5461,-2.539,-2.5322,-2.5303,-2.5303,-2.5303,-2.5303,-2.5303,-2.5303,-2.5072,-2.4842,-2.4818,-2.4545,-2.4247,-2.4209,-2.419,-2.419,-2.419,-2.419,-2.419,-2.419,-2.419,-2.419,-2.419,-2.419,-2.419,-2.419,-2.419,-2.417,-2.4094,-2.4074,-2.4036,-2.3937,-2.3955,-2.3955,-2.3955,-2.3714,-2.3566,-2.3566,-2.3346,-2.3323,-2.3566,-2.3566,-2.3714,-2.4074,-2.4074,-2.4191,-2.4409,-2.4266,-2.4229,-2.4284,-2.4135,-2.4016,-1.4932,-1.5499,-1.5887,-1.6413,-1.7085,-1.7285,-1.63,-1.5722,-1.4979,-1.3351,-1.2234,-1.1412,-1.0806,-1.0268,-0.9956,-0.9981,-1.0433,-1.0973,-1.155,-1.2077,-1.2617,-1.317,-1.3648,-1.3934,-1.3954,-1.4162,-1.4435,-1.4803,-1.5082,-1.5398,-1.5752,-1.6571,-1.7019,-1.7045,-1.822,-1.8875,-1.8884,-1.983,-2.0331,-2.0412,-2.0453,-2.0566,-2.0663,-2.0664,-2.1172,-2.207,-2.2891,-2.3242,-2.3301,-2.4121,-2.4473,-2.4551,-2.5371,-2.5703,-2.5703,-2.5703,-2.5652,-2.5582,-2.5524,-2.5457,-2.539,-2.5322,-2.5303,-2.5303,-2.5303,-2.5303,-2.5303,-2.5303,-2.5152,-2.4962,-2.4828,-2.4639,-2.4445,-2.4247,-2.419,-2.419,-2.419,-2.419,-2.419,-2.419,-2.419,-2.419,-2.419,-2.419,-2.419,-2.419,-2.419,-2.4094,-2.3774,-2.3714,-2.3588,-2.33,-2.3236,-2.3236,-2.3236,-2.3253,-2.323,-2.323,-2.3212,-2.3212,-2.323,-2.323,-2.3392,-2.3714,-2.3714,-2.3896,-2.4209,-2.4227,-2.4036,-2.3735,-2.3735,-2.3566,-1.4658,-1.5114,-1.5537,-1.5763,-1.6408,-1.6842,-1.6178,-1.5764,-1.5308,-1.4637,-1.3422,-1.2376,-1.2056,-1.0846,-0.9905,-0.9905,-1.0069,-1.0395,-1.0947,-1.1525,-1.1964,-1.2153,-1.2641,-1.2814,-1.2442,-1.2727,-1.3067,-1.3396,-1.3943,-1.4555,-1.5241,-1.5783,-1.6257,-1.6694,-1.7287,-1.7723,-1.8026,-1.8384,-1.8904,-1.9577,-1.9585,-1.9936,-2.0547,-2.0547,-2.0723,-2.1074,-2.1406,-2.2148,-2.3184,-2.3496,-2.3926,-2.4434,-2.4746,-2.5215,-2.5703,-2.5703,-2.5632,-2.5524,-2.5504,-2.5428,-2.5322,-2.5303,-2.5303,-2.5303,-2.5303,-2.5303,-2.5303,-2.5303,-2.5084,-2.4869,-2.4818,-2.4543,-2.4284,-2.4209,-2.419,-2.419,-2.419,-2.419,-2.419,-2.419,-2.419,-2.419,-2.419,-2.419,-2.419,-2.419,-2.4016,-2.3855,-2.3714,-2.3522,-2.3346,-2.3212,-2.3189,-2.3189,-2.3189,-2.2996,-2.2873,-2.2873,-2.2721,-2.2695,-2.2873,-2.2933,-2.308,-2.3369,-2.3392,-2.3544,-2.3876,-2.3876,-2.3714,-2.3392,-2.3392,-2.3305,-1.4739,-1.5233,-1.5866,-1.6346,-1.6775,-1.7059,-1.7141,-1.6502,-1.5857,-1.5608,-1.4443,-1.3371,-1.3078,-1.1953,-1.0858,-1.0174,-0.997,-1.0157,-1.091,-1.126,-1.1602,-1.1984,-1.2157,-1.2119,-1.178,-1.1709,-1.1838,-1.2184,-1.2564,-1.3129,-1.3916,-1.4405,-1.5141,-1.6159,-1.639,-1.6795,-1.7425,-1.7499,-1.7882,-1.8597,-1.8886,-1.9381,-2.0063,-2.0336,-2.0504,-2.0566,-2.0566,-2.123,-2.2344,-2.2637,-2.3086,-2.3613,-2.418,-2.4746,-2.5293,-2.5562,-2.5601,-2.5493,-2.5473,-2.539,-2.5303,-2.5303,-2.5303,-2.5303,-2.5303,-2.5303,-2.5303,-2.5303,-2.5084,-2.4855,-2.4818,-2.4512,-2.419,-2.419,-2.4113,-2.4016,-2.4016,-2.4113,-2.419,-2.419,-2.4113,-2.4016,-2.4016,-2.3937,-2.3858,-2.3858,-2.3671,-2.35,-2.3392,-2.3165,-2.2996,-2.2908,-2.2908,-2.2908,-2.2908,-2.2678,-2.2563,-2.2563,-2.2415,-2.2388,-2.2563,-2.2624,-2.2764,-2.3021,-2.3021,-2.3141,-2.3369,-2.3477,-2.3369,-2.3021,-2.3021,-2.3021,0.0,0.0,0.0,-1.8202,-1.8235,-1.8182,-1.9124,-1.8011,-1.6666,-1.6232,-1.5227,-1.427,-1.3833,-1.3596,-1.2787,-1.0796,-1.0173,-1.0321,-1.1416,-1.1374,-1.1622,-1.2708,-1.2354,-1.2,-1.1974,-1.1197,-1.0822,-1.1135,-1.0938,-1.1042,-1.1657,-1.2396,-1.358,-1.5284,-1.5539,-1.6089,-1.7015,-1.7224,-1.7392,-1.7574,-1.8417,-1.8958,-1.9223,-2.0016,-2.0414,-2.0508,-2.0508,-2.0547,-2.0664,-2.1504,-2.1875,-2.2051,-2.3691,-2.4355,-2.4489,-2.5263,-2.5538,-2.5488,-2.5415,-2.537,-2.5303,-2.5303,-2.5303,-2.5303,-2.5303,-2.5303,-2.5303,-2.5303,-2.5152,-2.4962,-2.4814,-2.4495,-2.4208,-2.419,-2.3937,-2.3692,-2.3692,-2.3937,-2.417,-2.417,-2.3917,-2.3692,-2.3692,-2.3414,-2.3189,-2.3189,-2.3189,-2.3069,-2.2746,-2.2695,-2.2573,-2.2321,-2.231,-2.231,-2.231,-2.231,-2.231,-2.231,-2.231,-2.231,-2.231,-2.231,-2.2426,-2.2669,-2.2695,-2.2695,-2.2695,-2.3021,-2.3021,-2.2695,-2.2695,-2.2695,-1.4441,0.0,0.0,0.0,0.0,0.0,-1.8075,-1.7212,-1.6629,-1.7043,-1.5906,-1.49,-1.5169,-1.479,-1.4005,-1.2699,-1.1653,-1.0926,-1.0756,-1.1412,-1.1732,-1.1176,-1.1925,-1.2061,-1.0965,-1.0612,-1.0418,-1.0276,-1.0414,-1.0766,-1.1373,-1.2376,-1.3226,-1.3862,-1.4211,-1.4645,-1.5147,-1.5362,-1.5866,-1.6663,-1.6896,-1.7761,-1.9139,-1.936,-1.9806,-2.0432,-2.0474,-2.0508,-2.0547,-2.084,-2.1328,-2.1953,-2.2402,-2.332,-2.4411,-2.459,-2.5014,-2.5481,-2.5409,-2.537,-2.5303,-2.5303,-2.5303,-2.5303,-2.5303,-2.5303,-2.5303,-2.5303,-2.5091,-2.4785,-2.4444,-2.4284,-2.4151,-2.3896,-2.3774,-2.3631,-2.3392,-2.3414,-2.3477,-2.3477,-2.3392,-2.3346,-2.3346,-2.3259,-2.3189,-2.3189,-2.2996,-2.2797,-2.2721,-2.2527,-2.2388,-2.231,-2.231,-2.231,-2.231,-2.231,-2.231,-2.231,-2.231,-2.231,-2.231,-2.231,-2.2321,-2.2398,-2.2398,-2.2398,-2.2398,-2.2704,-2.2704,-2.2398,-2.2398,-2.2398,-1.4092,-1.486,-1.5735,-1.6509,0.0,0.0,-1.8325,-1.7443,-1.6653,-1.7055,-1.6207,-1.5453,-1.5566,-1.5352,-1.4784,-1.3624,-1.2466,-1.1691,-1.1505,-1.2017,-1.2128,-1.1361,-1.2015,-1.2036,-1.0724,-1.047,-1.026,-0.9919,-1.0097,-1.053,-1.1275,-1.2051,-1.2635,-1.3001,-1.3426,-1.3748,-1.3939,-1.4314,-1.4831,-1.5518,-1.5922,-1.6768,-1.796,-1.8658,-1.9296,-1.9888,-2.0279,-2.0467,-2.0508,-2.0538,-2.0878,-2.1386,-2.173,-2.2468,-2.3354,-2.3617,-2.4005,-2.4418,-2.4332,-2.4293,-2.4255,-2.4255,-2.4255,-2.4332,-2.4697,-2.4793,-2.4861,-2.5107,-2.493,-2.4591,-2.4284,-2.419,-2.4132,-2.3774,-2.3588,-2.3392,-2.3069,-2.289,-2.2908,-2.3141,-2.3093,-2.2996,-2.2996,-2.289,-2.2824,-2.2824,-2.2669,-2.2537,-2.2537,-2.2415,-2.231,-2.231,-2.231,-2.231,-2.231,-2.231,-2.231,-2.231,-2.231,-2.231,-2.231,-2.231,-2.231,-2.231,-2.231,-2.231,-2.231,-2.2463,-2.2436,-2.231,-2.231,-2.231,-1.4066,-1.4387,-1.5048,-1.7172,-1.7209,0.0,-1.9229,-1.8076,-1.6601,-1.6653,-1.6213,-1.5708,-1.5319,-1.5407,-1.509,-1.3661,-1.2726,-1.2279,-1.2745,-1.2689,-1.2551,-1.2469,-1.2395,-1.2003,-1.1096,-1.0691,-1.0352,-1.0019,-0.9956,-1.0309,-1.1162,-1.1483,-1.1911,-1.2478,-1.2967,-1.3227,-1.3295,-1.3867,-1.4228,-1.44,-1.5346,-1.597,-1.6341,-1.7863,-1.8688,-1.9004,-1.9892,-2.0308,-2.0351,-2.046,-2.0531,-2.0656,-2.1363,-2.1695,-2.1872,-2.253,-2.281,-2.2887,-2.2821,-2.2793,-2.2793,-2.2793,-2.2793,-2.2947,-2.3841,-2.411,-2.4217,-2.4824,-2.4752,-2.4444,-2.4266,-2.419,-2.4094,-2.3735,-2.3414,-2.3093,-2.2721,-2.2463,-2.247,-2.3007,-2.2848,-2.266,-2.266,-2.2463,-2.231,-2.231,-2.231,-2.231,-2.231,-2.231,-2.231,-2.231,-2.231,-2.231,-2.231,-2.231,-2.231,-2.231,-2.231,-2.231,-2.231,-2.231,-2.231,-2.231,-2.231,-2.231,-2.231,-2.231,-2.231,-2.231,-2.231,-2.231,-1.4211,-1.5539,-1.692,-1.7549,-1.7949,0.0,-1.8748,-1.7384,-1.6246,-1.6855,-1.5765,-1.473,-1.4816,-1.4666,-1.4111,-1.2685,-1.206,-1.1688,-1.1628,-1.1727,-1.1883,-1.2095,-1.2449,-1.2452,-1.1851,-1.1348,-1.0885,-1.0558,-1.0392,-1.0371,-1.0567,-1.1093,-1.1527,-1.187,-1.2332,-1.2813,-1.3295,-1.3684,-1.4054,-1.44,-1.4877,-1.5514,-1.6311,-1.6757,-1.7341,-1.811,-1.9031,-1.9406,-1.9433,-2.0183,-2.0511,-2.0527,-2.0628,-2.1094,-2.1729,-2.1812,-2.2301,-2.2887,-2.2821,-2.2793,-2.2793,-2.2793,-2.2793,-2.2947,-2.3841,-2.411,-2.4197,-2.4695,-2.4685,-2.4444,-2.4266,-2.419,-2.4054,-2.3437,-2.3236,-2.3038,-2.2508,-2.2349,-2.2321,-2.247,-2.2415,-2.2388,-2.2388,-2.2321,-2.231,-2.231,-2.231,-2.231,-2.231,-2.231,-2.231,-2.231,-2.231,-2.231,-2.231,-2.231,-2.231,-2.231,-2.231,-2.231,-2.231,-2.231,-2.231,-2.231,-2.231,-2.231,-2.231,-2.231,-2.231,-2.231,-2.231,-2.231,-1.3612,-1.4773,-1.5914,-1.7028,-1.7538,0.0,0.0,-1.6992,-1.5929,-1.6023,-1.5103,-1.4183,-1.3999,-1.3851,-1.3252,-1.1796,-1.1136,-1.0733,-1.0386,-1.1255,-1.2036,-1.2443,-1.2865,-1.294,-1.2481,-1.1935,-1.1453,-1.1177,-1.0786,-1.0612,-1.0781,-1.0824,-1.0992,-1.1304,-1.1797,-1.2211,-1.2495,-1.3193,-1.3695,-1.3971,-1.4427,-1.4972,-1.5617,-1.6197,-1.6702,-1.7238,-1.8574,-1.9127,-1.9179,-2.0048,-2.0408,-2.0396,-2.0354,-2.0611,-2.1001,-2.0966,-2.1235,-2.1609,-2.1562,-2.1543,-2.1543,-2.1543,-2.1543,-2.1716,-2.2543,-2.3274,-2.3933,-2.4601,-2.4575,-2.4339,-2.4228,-2.4074,-2.3816,-2.3323,-2.3069,-2.284,-2.2388,-2.231,-2.231,-2.231,-2.231,-2.231,-2.231,-2.231,-2.231,-2.231,-2.231,-2.231,-2.231,-2.231,-2.231,-2.231,-2.231,-2.231,-2.231,-2.231,-2.231,-2.231,-2.231,-2.231,-2.231,-2.231,-2.231,-2.231,-2.231,-2.231,-2.231,-2.231,-2.231,-2.231,-2.231,-2.231,-1.2816,-1.3632,-1.45,-1.6369,-1.6787,-1.6915,0.0,0.0,0.0,-1.5228,-1.4539,-1.389,-1.3295,-1.2979,-1.2311,-1.086,-1.0113,-0.9617,-0.931,-1.0627,-1.1905,-1.2651,-1.2912,-1.2963,-1.296,-1.2416,-1.1885,-1.1467,-1.0971,-1.0751,-1.0862,-1.0442,-1.0326,-1.0581,-1.1065,-1.1432,-1.1606,-1.2627,-1.326,-1.3511,-1.4143,-1.4606,-1.4935,-1.5776,-1.6212,-1.6353,-1.7929,-1.8688,-1.8909,-1.9734,-2.0158,-2.0312,-2.0312,-2.0312,-2.0312,-2.0312,-2.0312,-2.0312,-2.0312,-2.0312,-2.0312,-2.0312,-2.0408,-2.0658,-2.1293,-2.2432,-2.3649,-2.4356,-2.4381,-2.419,-2.419,-2.3937,-2.3628,-2.3277,-2.2947,-2.2634,-2.2377,-2.231,-2.231,-2.231,-2.231,-2.231,-2.231,-2.231,-2.231,-2.231,-2.231,-2.231,-2.231,-2.231,-2.231,-2.231,-2.231,-2.231,-2.231,-2.231,-2.231,-2.231,-2.231,-2.231,-2.231,-2.231,-2.231,-2.231,-2.231,-2.231,-2.231,-2.231,-2.231,-2.231,-2.231,-2.231,-1.2257,-1.3646,-1.4924,-1.6223,-1.6419,-1.6463,-1.71,0.0,-1.5604,-1.5548,0.0,-1.3754,-1.32,0.0,0.0,-0.9761,-0.8841,-0.8353,-0.8706,-0.9257,-1.016,-1.1604,-1.1624,-1.1943,-1.2977,-1.2603,-1.188,-1.0955,-1.0785,-1.0419,-0.972,-0.9647,-0.9568,-0.9494,-0.9818,-1.0412,-1.1241,-1.2089,-1.2836,-1.3511,-1.4234,-1.4698,-1.4907,-1.5196,-1.5375,-1.5488,-1.6397,-1.7229,-1.8005,-1.889,-1.9665,-2.0312,-2.0312,-2.0312,-2.0312,-2.0312,-2.0312,-2.0312,-2.0312,-2.0312,-2.0312,-2.0312,-2.0773,-2.1389,-2.1466,-2.2432,-2.3517,-2.3611,-2.3901,-2.419,-2.419,-2.3937,-2.3628,-2.3277,-2.2947,-2.2634,-2.2377,-2.231,-2.231,-2.231,-2.231,-2.231,-2.231,-2.231,-2.231,-2.231,-2.231,-2.231,-2.231,-2.231,-2.231,-2.231,-2.231,-2.231,-2.231,-2.231,-2.231,-2.231,-2.231,-2.231,-2.231,-2.231,-2.231,-2.231,-2.231,-2.231,-2.231,-2.231,-2.231,-2.231,-2.231,-2.231,-1.0507,-1.1654,-1.2826,-1.4429,-1.4959,-1.5315,-1.6075,-1.6092,-1.5887,-1.5662,0.0,0.0,0.0,0.0,0.0,0.0,-0.9169,-0.8882,-0.8776,-0.878,-0.9588,-1.1539,-1.1614,-1.1865,-1.2681,-1.229,-1.1953,-1.1798,-1.1194,-1.0653,-1.0321,-0.9808,-0.9484,-0.9431,-0.9491,-0.9629,-0.9926,-1.0834,-1.1502,-1.1949,-1.3191,-1.3966,-1.4334,-1.4969,-1.5272,-1.5349,-1.6153,-1.6709,-1.7151,-1.8491,-1.9234,-1.9592,-2.0092,-2.0312,-2.0312,-2.0312,-2.0312,-2.0312,-2.0312,-2.0312,-2.0312,-2.0312,-2.0444,-2.0718,-2.1235,-2.1964,-2.2742,-2.324,-2.378,-2.419,-2.419,-2.3816,-2.3369,-2.3236,-2.2832,-2.2453,-2.2321,-2.231,-2.231,-2.231,-2.231,-2.231,-2.231,-2.2426,-2.2537,-2.2537,-2.2537,-2.2537,-2.2537,-2.2415,-2.231,-2.231,-2.231,-2.231,-2.231,-2.231,-2.231,-2.231,-2.231,-2.231,-2.231,-2.231,-2.231,-2.231,-2.231,-2.231,-2.231,-2.231,-2.2163,-2.1899,-2.2163,-2.231,-0.8856,-0.9776,-1.0803,-1.2802,-1.3541,-1.4099,-1.5213,-1.5762,-1.5985,-1.5834,-1.5745,0.0,0.0,0.0,-1.2851,-1.0571,0.0,-0.9652,-0.9377,-0.9049,-0.9568,-1.1417,-1.1671,-1.189,-1.2417,-1.205,-1.1976,-1.2456,-1.1605,-1.0914,-1.0551,-0.9893,-0.9298,-0.8808,-0.8945,-0.8919,-0.8705,-0.9807,-1.0517,-1.0819,-1.2186,-1.3211,-1.3914,-1.4626,-1.5079,-1.533,-1.592,-1.6305,-1.658,-1.7818,-1.8581,-1.9061,-1.9696,-2.01,-2.0312,-2.0312,-2.0312,-2.0312,-2.0312,-2.0312,-2.0285,-2.0241,-2.0115,-2.0117,-2.0705,-2.1412,-2.212,-2.2765,-2.3544,-2.417,-2.4094,-2.3631,-2.3165,-2.3093,-2.2686,-2.231,-2.231,-2.231,-2.231,-2.231,-2.231,-2.231,-2.231,-2.2463,-2.2599,-2.2599,-2.2599,-2.2599,-2.2599,-2.2426,-2.231,-2.231,-2.231,-2.231,-2.231,-2.231,-2.231,-2.231,-2.231,-2.231,-2.231,-2.231,-2.231,-2.231,-2.231,-2.2237,-2.2106,-2.2106,-2.1869,-2.143,-2.2032,-2.2237,-0.768,-0.8609,-0.9633,-1.1952,-1.2557,-1.3014,-1.472,-1.536,-1.5734,-1.6188,-1.6239,-1.6177,-1.6119,-1.4742,-1.3238,-1.2095,-1.0904,0.0,0.0,-1.0179,-1.0064,-1.0834,-1.1379,-1.1901,-1.2352,-1.1959,-1.189,-1.2391,-1.1881,-1.0964,-0.9625,-0.9563,-0.8805,-0.7041,-0.787,-0.8209,-0.794,-0.9311,-1.0288,-1.0819,-1.1582,-1.2622,-1.3898,-1.4,-1.4491,-1.5291,-1.533,-1.5772,-1.6503,-1.6561,-1.7549,-1.8992,-1.903,-1.9561,-2.0312,-2.0312,-2.0312,-2.0312,-2.0312,-2.0312,-2.0277,-2.0069,-2.0012,-1.9983,-1.9885,-2.0856,-2.2009,-2.2027,-2.3065,-2.4132,-2.3795,-2.3459,-2.3117,-2.2797,-2.25,-2.231,-2.231,-2.231,-2.231,-2.231,-2.231,-2.231,-2.231,-2.231,-2.2293,-2.2293,-2.2293,-2.2293,-2.2293,-2.231,-2.231,-2.231,-2.231,-2.231,-2.231,-2.231,-2.231,-2.231,-2.231,-2.231,-2.231,-2.231,-2.231,-2.231,-2.231,-2.2077,-2.1612,-2.1612,-2.1399,-2.1023,-2.1915,-2.2061,-0.6,-0.6537,-0.7363,-0.9349,-1.0529,-1.1566,-1.3045,-1.4342,-1.5441,-1.6271,-1.6628,-1.6803,-1.68,-1.631,-1.5277,-1.3369,-1.2891,-1.2559,0.0,-1.1764,-1.1673,-1.1703,-1.1388,-1.1372,-1.1884,-1.1819,-1.1927,-1.2391,-1.1542,-1.054,-0.9407,-0.8674,-0.7793,-0.678,-0.6803,-0.6813,-0.678,-0.791,-0.8632,-0.8955,-1.0458,-1.1573,-1.2358,-1.3484,-1.417,-1.4477,-1.5061,-1.5426,-1.5676,-1.6253,-1.683,-1.7458,-1.8568,-1.9208,-1.9577,-2.0092,-2.0312,-2.0312,-2.0312,-2.0312,-2.0277,-2.0069,-1.9953,-1.9836,-1.972,-2.0693,-2.1869,-2.1869,-2.2996,-2.4113,-2.3795,-2.3437,-2.3117,-2.2772,-2.25,-2.231,-2.231,-2.231,-2.231,-2.231,-2.231,-2.231,-2.231,-2.231,-2.236,-2.2537,-2.2546,-2.2546,-2.2546,-2.2398,-2.231,-2.231,-2.231,-2.231,-2.231,-2.231,-2.231,-2.231,-2.231,-2.231,-2.231,-2.231,-2.231,-2.231,-2.2003,-2.1764,-2.1582,-2.1337,-2.0975,-2.055,-2.115,-2.1354,-0.4838,-0.5208,-0.5967,-0.7629,-0.8922,-1.0227,-1.1888,-1.3439,-1.4781,-1.5769,-1.6685,-1.7261,-1.7125,-1.7227,-1.67,-1.4847,-1.4606,-1.4293,0.0,-1.3362,-1.3282,-1.257,-1.1741,-1.1555,-1.2466,-1.2329,-1.2612,-1.3717,-1.2502,-1.117,-0.9952,-0.881,-0.754,-0.6122,-0.6082,-0.5983,-0.5732,-0.7047,-0.7809,-0.8017,-0.9611,-1.0782,-1.1541,-1.2635,-1.3468,-1.4071,-1.4627,-1.501,-1.5291,-1.5849,-1.6253,-1.665,-1.7708,-1.8352,-1.8778,-1.9892,-2.0312,-2.0312,-2.0312,-2.0312,-2.0269,-2.0012,-1.9869,-1.9755,-1.955,-2.0372,-2.1383,-2.157,-2.2592,-2.3571,-2.3406,-2.3189,-2.2947,-2.2625,-2.2426,-2.231,-2.231,-2.231,-2.231,-2.231,-2.231,-2.231,-2.231,-2.231,-2.2377,-2.2537,-2.2563,-2.2563,-2.2563,-2.2415,-2.231,-2.231,-2.231,-2.231,-2.231,-2.231,-2.231,-2.231,-2.231,-2.2225,-2.2061,-2.2032,-2.1974,-2.1857,-2.1538,-2.1306,-2.1134,-2.0878,-2.0516,-2.0089,-2.0398,-2.0548]}]]